Time,TemperatureF,DewpointF,PressureIn,WindDirection,WindDirectionDegrees,WindSpeedMPH,WindSpeedGustMPH,Humidity,HourlyPrecipIn,Conditions,Clouds,dailyrainin,SoftwareType,DateUTC
2013-05-03 00:00:00,64.5,57.1,30.09,South,180,0.0,12.0,77,0.00,,---,0.00,VWS V14.01,2013-05-03 04:00:00,
2013-05-03 00:01:00,64.5,57.1,30.09,SE,141,5.0,7.0,77,0.00,,---,0.00,VWS V14.01,2013-05-03 04:01:00,
2013-05-03 00:02:00,64.5,57.1,30.09,SSE,155,3.0,14.0,77,0.00,,---,0.00,VWS V14.01,2013-05-03 04:02:00,
2013-05-03 00:03:00,64.5,57.1,30.09,South,182,1.0,14.0,77,0.00,,---,0.00,VWS V14.01,2013-05-03 04:03:00,
2013-05-03 00:04:00,64.4,57.0,30.09,SSE,165,0.0,14.0,77,0.00,,---,0.00,VWS V14.01,2013-05-03 04:04:00,
2013-05-03 00:05:00,64.5,57.1,30.09,South,171,0.0,14.0,77,0.00,,---,0.00,VWS V14.01,2013-05-03 04:05:00,
2013-05-03 00:06:00,64.5,57.1,30.09,SSE,158,6.0,14.0,77,0.00,,---,0.00,VWS V14.01,2013-05-03 04:06:00,
2013-05-03 00:07:00,64.5,57.5,30.09,SSE,168,8.0,14.0,78,0.00,,---,0.00,VWS V14.01,2013-05-03 04:07:00,
2013-05-03 00:08:00,64.5,57.1,30.09,ESE,108,0.0,14.0,77,0.00,,---,0.00,VWS V14.01,2013-05-03 04:08:00,
2013-05-03 00:09:00,64.5,57.5,30.09,SSE,154,3.0,14.0,78,0.00,,---,0.00,VWS V14.01,2013-05-03 04:09:00,
2013-05-03 00:10:00,64.5,57.5,30.09,SSE,167,0.0,14.0,78,0.00,,---,0.00,VWS V14.01,2013-05-03 04:10:00,
2013-05-03 00:11:00,64.5,57.5,30.09,South,173,0.0,14.0,78,0.00,,---,0.00,VWS V14.01,2013-05-03 04:11:00,
2013-05-03 00:12:00,64.5,57.5,30.08,South,169,0.0,14.0,78,0.00,,---,0.00,VWS V14.01,2013-05-03 04:12:00,
2013-05-03 00:13:00,64.5,57.5,30.08,SSE,168,3.0,14.0,78,0.00,,---,0.00,VWS V14.01,2013-05-03 04:13:00,
2013-05-03 00:14:00,64.5,57.5,30.08,South,180,0.0,14.0,78,0.00,,---,0.00,VWS V14.01,2013-05-03 04:14:00,
2013-05-03 00:15:00,64.5,57.5,30.09,SSW,193,1.0,14.0,78,0.00,,---,0.00,VWS V14.01,2013-05-03 04:15:00,
2013-05-03 00:16:00,64.5,57.5,30.09,South,175,3.0,14.0,78,0.00,,---,0.00,VWS V14.01,2013-05-03 04:16:00,
2013-05-03 00:17:00,64.5,57.5,30.09,South,186,1.0,14.0,78,0.00,,---,0.00,VWS V14.01,2013-05-03 04:17:00,
2013-05-03 00:18:00,64.5,57.5,30.09,South,178,0.0,14.0,78,0.00,,---,0.00,VWS V14.01,2013-05-03 04:18:00,
2013-05-03 00:19:00,64.5,57.5,30.09,SE,141,5.0,14.0,78,0.00,,---,0.00,VWS V14.01,2013-05-03 04:19:00,
2013-05-03 00:20:00,64.5,57.5,30.09,SSW,202,0.0,14.0,78,0.00,,---,0.00,VWS V14.01,2013-05-03 04:20:00,
2013-05-03 00:21:00,64.5,57.5,30.09,South,184,0.0,14.0,78,0.00,,---,0.00,VWS V14.01,2013-05-03 04:21:00,
2013-05-03 00:22:00,64.5,57.5,30.09,South,190,0.0,14.0,78,0.00,,---,0.00,VWS V14.01,2013-05-03 04:22:00,
2013-05-03 00:23:00,64.5,57.5,30.09,South,190,0.0,14.0,78,0.00,,---,0.00,VWS V14.01,2013-05-03 04:23:00,
2013-05-03 00:24:00,64.5,57.5,30.09,SSE,148,0.0,14.0,78,0.00,,---,0.00,VWS V14.01,2013-05-03 04:24:00,
2013-05-03 00:25:00,64.5,57.5,30.09,SSE,158,0.0,14.0,78,0.00,,---,0.00,VWS V14.01,2013-05-03 04:25:00,
2013-05-03 00:26:00,64.5,57.8,30.09,SSE,158,0.0,14.0,79,0.00,,---,0.00,VWS V14.01,2013-05-03 04:26:00,
2013-05-03 00:27:00,64.5,57.8,30.09,SSE,159,0.0,14.0,79,0.00,,---,0.00,VWS V14.01,2013-05-03 04:27:00,
2013-05-03 00:28:00,64.6,58.0,30.09,SSE,162,0.0,14.0,79,0.00,,---,0.00,VWS V14.01,2013-05-03 04:28:00,
2013-05-03 00:29:00,64.6,58.0,30.08,South,173,3.0,14.0,79,0.00,,---,0.00,VWS V14.01,2013-05-03 04:29:00,
2013-05-03 00:30:00,64.5,57.8,30.08,SSE,162,3.0,14.0,79,0.00,,---,0.00,VWS V14.01,2013-05-03 04:30:00,
2013-05-03 00:31:00,64.6,58.0,30.08,SSE,166,1.0,3.0,79,0.00,,---,0.00,VWS V14.01,2013-05-03 04:31:00,
2013-05-03 00:32:00,64.5,57.8,30.08,SSW,192,3.0,7.0,79,0.00,,---,0.00,VWS V14.01,2013-05-03 04:32:00,
2013-05-03 00:33:00,64.5,57.8,30.08,SSE,159,0.0,7.0,79,0.00,,---,0.00,VWS V14.01,2013-05-03 04:33:00,
2013-05-03 00:34:00,64.5,57.8,30.08,SSW,198,6.0,7.0,79,0.00,,---,0.00,VWS V14.01,2013-05-03 04:34:00,
2013-05-03 00:35:00,64.5,57.8,30.08,South,169,3.0,7.0,79,0.00,,---,0.00,VWS V14.01,2013-05-03 04:35:00,
2013-05-03 00:36:00,64.5,57.8,30.08,SSW,200,0.0,7.0,79,0.00,,---,0.00,VWS V14.01,2013-05-03 04:36:00,
2013-05-03 00:37:00,64.6,58.0,30.08,SSW,204,1.0,7.0,79,0.00,,---,0.00,VWS V14.01,2013-05-03 04:37:00,
2013-05-03 00:38:00,64.6,58.0,30.08,SSW,192,0.0,7.0,79,0.00,,---,0.00,VWS V14.01,2013-05-03 04:38:00,
2013-05-03 00:39:00,64.6,58.0,30.08,SE,140,2.0,9.0,79,0.00,,---,0.00,VWS V14.01,2013-05-03 04:39:00,
2013-05-03 00:40:00,64.6,58.0,30.08,SSE,157,5.0,10.0,79,0.00,,---,0.00,VWS V14.01,2013-05-03 04:40:00,
2013-05-03 00:41:00,64.7,58.0,30.08,SSE,167,0.0,10.0,79,0.00,,---,0.00,VWS V14.01,2013-05-03 04:41:00,
2013-05-03 00:42:00,64.7,58.0,30.08,South,186,1.0,10.0,79,0.00,,---,0.00,VWS V14.01,2013-05-03 04:42:00,
2013-05-03 00:43:00,64.6,58.0,30.08,SSW,194,2.0,10.0,79,0.00,,---,0.00,VWS V14.01,2013-05-03 04:43:00,
2013-05-03 00:44:00,64.6,58.0,30.08,South,175,0.0,10.0,79,0.00,,---,0.00,VWS V14.01,2013-05-03 04:44:00,
2013-05-03 00:45:00,64.6,58.0,30.08,South,188,0.0,10.0,79,0.00,,---,0.00,VWS V14.01,2013-05-03 04:45:00,
2013-05-03 00:46:00,64.6,58.0,30.08,SSE,155,0.0,11.0,79,0.00,,---,0.00,VWS V14.01,2013-05-03 04:46:00,
2013-05-03 00:47:00,64.5,58.2,30.08,SSE,161,7.0,11.0,80,0.00,,---,0.00,VWS V14.01,2013-05-03 04:47:00,
2013-05-03 00:48:00,64.5,57.8,30.08,South,176,2.0,11.0,79,0.00,,---,0.00,VWS V14.01,2013-05-03 04:48:00,
2013-05-03 00:49:00,64.5,58.2,30.08,SSW,194,0.0,11.0,80,0.00,,---,0.00,VWS V14.01,2013-05-03 04:49:00,
2013-05-03 00:50:00,64.5,58.2,30.08,SE,131,1.0,11.0,80,0.00,,---,0.00,VWS V14.01,2013-05-03 04:50:00,
2013-05-03 00:51:00,64.5,58.2,30.08,SSE,158,0.0,11.0,80,0.00,,---,0.00,VWS V14.01,2013-05-03 04:51:00,
2013-05-03 00:52:00,64.5,58.2,30.08,SSE,165,3.0,11.0,80,0.00,,---,0.00,VWS V14.01,2013-05-03 04:52:00,
2013-05-03 00:53:00,64.6,58.3,30.07,South,173,0.0,11.0,80,0.00,,---,0.00,VWS V14.01,2013-05-03 04:53:00,
2013-05-03 00:54:00,64.6,58.3,30.08,South,169,0.0,11.0,80,0.00,,---,0.00,VWS V14.01,2013-05-03 04:54:00,
2013-05-03 00:55:00,64.6,58.3,30.08,South,169,0.0,11.0,80,0.00,,---,0.00,VWS V14.01,2013-05-03 04:55:00,
2013-05-03 00:56:00,64.6,58.3,30.07,South,178,2.0,11.0,80,0.00,,---,0.00,VWS V14.01,2013-05-03 04:56:00,
2013-05-03 00:57:00,64.6,58.3,30.07,SSW,198,0.0,11.0,80,0.00,,---,0.00,VWS V14.01,2013-05-03 04:57:00,
2013-05-03 00:58:00,64.7,58.4,30.08,South,171,0.0,11.0,80,0.00,,---,0.00,VWS V14.01,2013-05-03 04:58:00,
2013-05-03 00:59:00,64.7,58.4,30.08,SSE,165,3.0,11.0,80,0.00,,---,0.00,VWS V14.01,2013-05-03 04:59:00,
2013-05-03 01:00:00,64.7,58.4,30.08,SSE,153,0.0,11.0,80,0.00,,---,0.00,VWS V14.01,2013-05-03 05:00:00,
2013-05-03 01:01:00,64.7,58.4,30.08,South,173,5.0,5.0,80,0.00,,---,0.00,VWS V14.01,2013-05-03 05:01:00,
2013-05-03 01:02:00,64.7,58.4,30.08,SW,230,1.0,5.0,80,0.00,,---,0.00,VWS V14.01,2013-05-03 05:02:00,
2013-05-03 01:03:00,64.7,58.4,30.08,SW,234,0.0,5.0,80,0.00,,---,0.00,VWS V14.01,2013-05-03 05:03:00,
2013-05-03 01:04:00,64.7,58.4,30.08,SW,215,0.0,5.0,80,0.00,,---,0.00,VWS V14.01,2013-05-03 05:04:00,
2013-05-03 01:05:00,64.8,58.5,30.08,South,172,3.0,6.0,80,0.00,,---,0.00,VWS V14.01,2013-05-03 05:05:00,
2013-05-03 01:06:00,64.8,58.5,30.08,SW,233,1.0,6.0,80,0.00,,---,0.00,VWS V14.01,2013-05-03 05:06:00,
2013-05-03 01:07:00,64.8,58.5,30.08,South,175,0.0,6.0,80,0.00,,---,0.00,VWS V14.01,2013-05-03 05:07:00,
2013-05-03 01:08:00,64.7,58.4,30.08,South,171,0.0,6.0,80,0.00,,---,0.00,VWS V14.01,2013-05-03 05:08:00,
2013-05-03 01:09:00,64.8,58.8,30.08,South,175,0.0,6.0,81,0.00,,---,0.00,VWS V14.01,2013-05-03 05:09:00,
2013-05-03 01:10:00,64.7,58.7,30.08,South,175,0.0,6.0,81,0.00,,---,0.00,VWS V14.01,2013-05-03 05:10:00,
2013-05-03 01:11:00,64.7,58.7,30.08,South,184,4.0,6.0,81,0.00,,---,0.00,VWS V14.01,2013-05-03 05:11:00,
2013-05-03 01:12:00,64.7,58.7,30.08,SSE,165,2.0,6.0,81,0.00,,---,0.00,VWS V14.01,2013-05-03 05:12:00,
2013-05-03 01:13:00,64.7,58.7,30.08,SSE,161,1.0,6.0,81,0.00,,---,0.00,VWS V14.01,2013-05-03 05:13:00,
2013-05-03 01:14:00,64.7,58.7,30.08,SSE,164,0.0,6.0,81,0.00,,---,0.00,VWS V14.01,2013-05-03 05:14:00,
2013-05-03 01:15:00,64.7,58.7,30.08,SSE,164,0.0,6.0,81,0.00,,---,0.00,VWS V14.01,2013-05-03 05:15:00,
2013-05-03 01:16:00,64.7,58.7,30.08,SSE,164,0.0,6.0,81,0.00,,---,0.00,VWS V14.01,2013-05-03 05:16:00,
2013-05-03 01:17:00,64.7,58.7,30.08,SSE,164,0.0,6.0,81,0.00,,---,0.00,VWS V14.01,2013-05-03 05:17:00,
2013-05-03 01:18:00,64.7,58.7,30.08,SSE,164,0.0,6.0,81,0.00,,---,0.00,VWS V14.01,2013-05-03 05:18:00,
2013-05-03 01:19:00,64.7,58.7,30.08,SSE,164,0.0,6.0,81,0.00,,---,0.00,VWS V14.01,2013-05-03 05:19:00,
2013-05-03 01:20:00,64.7,58.7,30.08,SSE,164,0.0,6.0,81,0.00,,---,0.00,VWS V14.01,2013-05-03 05:20:00,
2013-05-03 01:21:00,64.8,58.8,30.08,SSE,164,0.0,6.0,81,0.00,,---,0.00,VWS V14.01,2013-05-03 05:21:00,
2013-05-03 01:22:00,64.8,58.8,30.08,SSE,164,0.0,6.0,81,0.00,,---,0.00,VWS V14.01,2013-05-03 05:22:00,
2013-05-03 01:23:00,64.8,58.8,30.08,SSE,164,0.0,6.0,81,0.00,,---,0.00,VWS V14.01,2013-05-03 05:23:00,
2013-05-03 01:24:00,64.8,58.8,30.08,SSE,164,0.0,6.0,81,0.00,,---,0.00,VWS V14.01,2013-05-03 05:24:00,
2013-05-03 01:25:00,64.8,58.8,30.08,SSE,164,0.0,6.0,81,0.00,,---,0.00,VWS V14.01,2013-05-03 05:25:00,
2013-05-03 01:26:00,64.9,59.3,30.08,SSE,164,0.0,6.0,82,0.00,,---,0.00,VWS V14.01,2013-05-03 05:26:00,
2013-05-03 01:27:00,64.8,59.2,30.08,SSE,164,0.0,6.0,82,0.00,,---,0.00,VWS V14.01,2013-05-03 05:27:00,
2013-05-03 01:28:00,64.8,58.8,30.08,WNW,282,0.0,6.0,81,0.00,,---,0.00,VWS V14.01,2013-05-03 05:28:00,
2013-05-03 01:29:00,64.9,58.9,30.08,SSE,156,0.0,6.0,81,0.00,,---,0.00,VWS V14.01,2013-05-03 05:29:00,
2013-05-03 01:30:00,64.8,58.8,30.08,SSE,159,2.0,6.0,81,0.00,,---,0.00,VWS V14.01,2013-05-03 05:30:00,
2013-05-03 01:31:00,64.8,59.2,30.08,South,169,0.0,4.0,82,0.00,,---,0.00,VWS V14.01,2013-05-03 05:31:00,
2013-05-03 01:32:00,64.8,59.2,30.08,SSE,163,1.0,4.0,82,0.00,,---,0.00,VWS V14.01,2013-05-03 05:32:00,
2013-05-03 01:33:00,64.8,59.2,30.08,SSE,167,2.0,4.0,82,0.00,,---,0.00,VWS V14.01,2013-05-03 05:33:00,
2013-05-03 01:34:00,64.8,59.2,30.08,SSE,167,0.0,4.0,82,0.00,,---,0.00,VWS V14.01,2013-05-03 05:34:00,
2013-05-03 01:35:00,64.8,59.2,30.08,SSE,167,0.0,4.0,82,0.00,,---,0.00,VWS V14.01,2013-05-03 05:35:00,
2013-05-03 01:36:00,64.8,59.2,30.08,West,263,2.0,5.0,82,0.00,,---,0.00,VWS V14.01,2013-05-03 05:36:00,
2013-05-03 01:37:00,64.7,59.1,30.08,SSW,192,0.0,5.0,82,0.00,,---,0.00,VWS V14.01,2013-05-03 05:37:00,
2013-05-03 01:38:00,64.7,59.1,30.08,SSE,165,4.0,5.0,82,0.00,,---,0.00,VWS V14.01,2013-05-03 05:38:00,
2013-05-03 01:39:00,64.7,59.1,30.08,South,174,1.0,6.0,82,0.00,,---,0.00,VWS V14.01,2013-05-03 05:39:00,
2013-05-03 01:40:00,64.7,58.7,30.08,South,174,0.0,6.0,81,0.00,,---,0.00,VWS V14.01,2013-05-03 05:40:00,
2013-05-03 01:41:00,64.7,59.1,30.08,South,174,0.0,6.0,82,0.00,,---,0.00,VWS V14.01,2013-05-03 05:41:00,
2013-05-03 01:42:00,64.7,59.1,30.08,SSE,160,0.0,6.0,82,0.00,,---,0.00,VWS V14.01,2013-05-03 05:42:00,
2013-05-03 01:43:00,64.7,58.7,30.08,South,170,2.0,6.0,81,0.00,,---,0.00,VWS V14.01,2013-05-03 05:43:00,
2013-05-03 01:44:00,64.7,58.7,30.09,South,181,0.0,6.0,81,0.00,,---,0.00,VWS V14.01,2013-05-03 05:44:00,
2013-05-03 01:45:00,64.7,58.7,30.08,WSW,248,2.0,6.0,81,0.00,,---,0.00,VWS V14.01,2013-05-03 05:45:00,
2013-05-03 01:46:00,64.7,58.7,30.09,West,259,0.0,6.0,81,0.00,,---,0.00,VWS V14.01,2013-05-03 05:46:00,
2013-05-03 01:47:00,64.7,58.7,30.09,WSW,252,6.0,7.0,81,0.00,,---,0.00,VWS V14.01,2013-05-03 05:47:00,
2013-05-03 01:48:00,64.6,58.3,30.08,South,171,0.0,7.0,80,0.00,,---,0.00,VWS V14.01,2013-05-03 05:48:00,
2013-05-03 01:49:00,64.6,58.0,30.08,SSE,166,0.0,7.0,79,0.00,,---,0.00,VWS V14.01,2013-05-03 05:49:00,
2013-05-03 01:50:00,64.6,58.0,30.08,West,263,2.0,7.0,79,0.00,,---,0.00,VWS V14.01,2013-05-03 05:50:00,
2013-05-03 01:51:00,64.6,58.0,30.08,West,263,0.0,7.0,79,0.00,,---,0.00,VWS V14.01,2013-05-03 05:51:00,
2013-05-03 01:52:00,64.6,58.0,30.08,West,263,0.0,7.0,79,0.00,,---,0.00,VWS V14.01,2013-05-03 05:52:00,
2013-05-03 01:53:00,64.6,57.6,30.08,SSE,167,2.0,9.0,78,0.00,,---,0.00,VWS V14.01,2013-05-03 05:53:00,
2013-05-03 01:54:00,64.6,57.2,30.08,SSW,200,0.0,9.0,77,0.00,,---,0.00,VWS V14.01,2013-05-03 05:54:00,
2013-05-03 01:55:00,64.6,56.9,30.08,SSW,192,0.0,9.0,76,0.00,,---,0.00,VWS V14.01,2013-05-03 05:55:00,
2013-05-03 01:56:00,64.6,56.9,30.08,WSW,250,3.0,9.0,76,0.00,,---,0.00,VWS V14.01,2013-05-03 05:56:00,
2013-05-03 01:57:00,64.6,56.9,30.08,WSW,240,3.0,9.0,76,0.00,,---,0.00,VWS V14.01,2013-05-03 05:57:00,
2013-05-03 01:58:00,64.6,56.9,30.08,SW,233,1.0,9.0,76,0.00,,---,0.00,VWS V14.01,2013-05-03 05:58:00,
2013-05-03 01:59:00,64.6,56.9,30.08,WSW,254,0.0,9.0,76,0.00,,---,0.00,VWS V14.01,2013-05-03 05:59:00,
2013-05-03 02:00:00,64.6,56.5,30.08,SSE,168,0.0,9.0,75,0.00,,---,0.00,VWS V14.01,2013-05-03 06:00:00,
2013-05-03 02:01:00,64.5,56.8,30.08,SSE,168,0.0,0.0,76,0.00,,---,0.00,VWS V14.01,2013-05-03 06:01:00,
2013-05-03 02:02:00,64.5,56.8,30.08,SSE,168,0.0,1.0,76,0.00,,---,0.00,VWS V14.01,2013-05-03 06:02:00,
2013-05-03 02:03:00,64.5,56.4,30.08,WSW,254,4.0,6.0,75,0.00,,---,0.00,VWS V14.01,2013-05-03 06:03:00,
2013-05-03 02:04:00,64.5,56.4,30.08,SW,235,0.0,6.0,75,0.00,,---,0.00,VWS V14.01,2013-05-03 06:04:00,
2013-05-03 02:05:00,64.5,56.8,30.08,SW,232,0.0,6.0,76,0.00,,---,0.00,VWS V14.01,2013-05-03 06:05:00,
2013-05-03 02:06:00,64.5,56.4,30.08,SW,222,1.0,7.0,75,0.00,,---,0.00,VWS V14.01,2013-05-03 06:06:00,
2013-05-03 02:07:00,64.5,56.0,30.08,WSW,249,7.0,8.0,74,0.00,,---,0.00,VWS V14.01,2013-05-03 06:07:00,
2013-05-03 02:08:00,64.5,56.0,30.08,West,275,0.0,8.0,74,0.00,,---,0.00,VWS V14.01,2013-05-03 06:08:00,
2013-05-03 02:09:00,64.5,56.0,30.08,SSW,198,0.0,8.0,74,0.00,,---,0.00,VWS V14.01,2013-05-03 06:09:00,
2013-05-03 02:10:00,64.5,56.4,30.08,SSW,198,0.0,8.0,75,0.00,,---,0.00,VWS V14.01,2013-05-03 06:10:00,
2013-05-03 02:11:00,64.5,56.4,30.08,SW,217,0.0,8.0,75,0.00,,---,0.00,VWS V14.01,2013-05-03 06:11:00,
2013-05-03 02:12:00,64.4,56.3,30.08,SW,229,0.0,8.0,75,0.00,,---,0.00,VWS V14.01,2013-05-03 06:12:00,
2013-05-03 02:13:00,64.4,56.3,30.08,South,173,1.0,8.0,75,0.00,,---,0.00,VWS V14.01,2013-05-03 06:13:00,
2013-05-03 02:14:00,64.4,55.9,30.08,SW,217,0.0,8.0,74,0.00,,---,0.00,VWS V14.01,2013-05-03 06:14:00,
2013-05-03 02:15:00,64.3,55.8,30.08,South,179,0.0,8.0,74,0.00,,---,0.00,VWS V14.01,2013-05-03 06:15:00,
2013-05-03 02:16:00,64.3,55.8,30.08,South,179,2.0,8.0,74,0.00,,---,0.00,VWS V14.01,2013-05-03 06:16:00,
2013-05-03 02:17:00,64.3,55.8,30.08,SSE,153,0.0,8.0,74,0.00,,---,0.00,VWS V14.01,2013-05-03 06:17:00,
2013-05-03 02:18:00,64.3,55.8,30.08,SSE,153,0.0,8.0,74,0.00,,---,0.00,VWS V14.01,2013-05-03 06:18:00,
2013-05-03 02:19:00,64.3,55.8,30.08,SSE,153,0.0,8.0,74,0.00,,---,0.00,VWS V14.01,2013-05-03 06:19:00,
2013-05-03 02:20:00,64.2,55.8,30.08,West,267,5.0,8.0,74,0.00,,---,0.00,VWS V14.01,2013-05-03 06:20:00,
2013-05-03 02:21:00,64.2,55.8,30.08,West,266,0.0,8.0,74,0.00,,---,0.00,VWS V14.01,2013-05-03 06:21:00,
2013-05-03 02:22:00,64.1,55.7,30.08,South,184,2.0,8.0,74,0.00,,---,0.00,VWS V14.01,2013-05-03 06:22:00,
2013-05-03 02:23:00,64.1,55.3,30.08,South,178,0.0,8.0,73,0.00,,---,0.00,VWS V14.01,2013-05-03 06:23:00,
2013-05-03 02:24:00,64.1,55.3,30.08,South,173,1.0,8.0,73,0.00,,---,0.00,VWS V14.01,2013-05-03 06:24:00,
2013-05-03 02:25:00,64.0,54.8,30.08,ESE,118,0.0,8.0,72,0.00,,---,0.00,VWS V14.01,2013-05-03 06:25:00,
2013-05-03 02:26:00,64.0,54.8,30.08,South,174,1.0,8.0,72,0.00,,---,0.00,VWS V14.01,2013-05-03 06:26:00,
2013-05-03 02:27:00,64.0,54.8,30.08,South,185,0.0,8.0,72,0.00,,---,0.00,VWS V14.01,2013-05-03 06:27:00,
2013-05-03 02:28:00,64.0,54.8,30.08,SSE,167,3.0,8.0,72,0.00,,---,0.00,VWS V14.01,2013-05-03 06:28:00,
2013-05-03 02:29:00,64.0,54.8,30.08,SSW,192,0.0,8.0,72,0.00,,---,0.00,VWS V14.01,2013-05-03 06:29:00,
2013-05-03 02:30:00,63.9,55.1,30.08,South,173,4.0,4.0,73,0.00,,---,0.00,VWS V14.01,2013-05-03 06:30:00,
2013-05-03 02:31:00,63.9,54.7,30.08,South,173,0.0,4.0,72,0.00,,---,0.00,VWS V14.01,2013-05-03 06:31:00,
2013-05-03 02:32:00,63.9,54.7,30.08,SSW,204,0.0,5.0,72,0.00,,---,0.00,VWS V14.01,2013-05-03 06:32:00,
2013-05-03 02:33:00,63.8,54.6,30.08,South,174,0.0,5.0,72,0.00,,---,0.00,VWS V14.01,2013-05-03 06:33:00,
2013-05-03 02:34:00,63.8,54.6,30.08,South,170,4.0,5.0,72,0.00,,---,0.00,VWS V14.01,2013-05-03 06:34:00,
2013-05-03 02:35:00,63.8,54.6,30.08,South,173,0.0,5.0,72,0.00,,---,0.00,VWS V14.01,2013-05-03 06:35:00,
2013-05-03 02:36:00,63.7,54.5,30.08,South,173,0.0,5.0,72,0.00,,---,0.00,VWS V14.01,2013-05-03 06:36:00,
2013-05-03 02:37:00,63.7,54.5,30.08,South,173,2.0,5.0,72,0.00,,---,0.00,VWS V14.01,2013-05-03 06:37:00,
2013-05-03 02:38:00,63.6,54.4,30.08,South,182,1.0,5.0,72,0.00,,---,0.00,VWS V14.01,2013-05-03 06:38:00,
2013-05-03 02:39:00,63.6,54.8,30.08,ESE,109,0.0,5.0,73,0.00,,---,0.00,VWS V14.01,2013-05-03 06:39:00,
2013-05-03 02:40:00,63.6,54.8,30.08,South,179,6.0,8.0,73,0.00,,---,0.00,VWS V14.01,2013-05-03 06:40:00,
2013-05-03 02:41:00,63.5,54.3,30.08,SSE,155,4.0,8.0,72,0.00,,---,0.00,VWS V14.01,2013-05-03 06:41:00,
2013-05-03 02:42:00,63.5,54.3,30.08,South,169,0.0,8.0,72,0.00,,---,0.00,VWS V14.01,2013-05-03 06:42:00,
2013-05-03 02:43:00,63.5,54.3,30.08,South,169,0.0,8.0,72,0.00,,---,0.00,VWS V14.01,2013-05-03 06:43:00,
2013-05-03 02:44:00,63.5,54.7,30.08,SSE,161,8.0,8.0,73,0.00,,---,0.00,VWS V14.01,2013-05-03 06:44:00,
2013-05-03 02:45:00,63.4,54.2,30.08,SSW,208,0.0,10.0,72,0.00,,---,0.00,VWS V14.01,2013-05-03 06:45:00,
2013-05-03 02:46:00,63.4,54.2,30.08,South,178,2.0,10.0,72,0.00,,---,0.00,VWS V14.01,2013-05-03 06:46:00,
2013-05-03 02:47:00,63.4,54.2,30.08,South,174,4.0,10.0,72,0.00,,---,0.00,VWS V14.01,2013-05-03 06:47:00,
2013-05-03 02:48:00,63.3,54.1,30.08,SSW,210,0.0,10.0,72,0.00,,---,0.00,VWS V14.01,2013-05-03 06:48:00,
2013-05-03 02:49:00,63.3,54.5,30.08,SSE,153,0.0,10.0,73,0.00,,---,0.00,VWS V14.01,2013-05-03 06:49:00,
2013-05-03 02:50:00,63.3,54.5,30.08,SSE,153,0.0,10.0,73,0.00,,---,0.00,VWS V14.01,2013-05-03 06:50:00,
2013-05-03 02:51:00,63.3,54.5,30.08,South,178,0.0,10.0,73,0.00,,---,0.00,VWS V14.01,2013-05-03 06:51:00,
2013-05-03 02:52:00,63.2,54.4,30.08,SSW,192,0.0,10.0,73,0.00,,---,0.00,VWS V14.01,2013-05-03 06:52:00,
2013-05-03 02:53:00,63.2,54.4,30.08,South,182,0.0,10.0,73,0.00,,---,0.00,VWS V14.01,2013-05-03 06:53:00,
2013-05-03 02:54:00,63.2,54.4,30.08,SSE,164,3.0,10.0,73,0.00,,---,0.00,VWS V14.01,2013-05-03 06:54:00,
2013-05-03 02:55:00,63.2,54.4,30.08,South,169,0.0,10.0,73,0.00,,---,0.00,VWS V14.01,2013-05-03 06:55:00,
2013-05-03 02:56:00,63.1,54.3,30.08,WSW,250,1.0,10.0,73,0.00,,---,0.00,VWS V14.01,2013-05-03 06:56:00,
2013-05-03 02:57:00,63.1,54.3,30.08,South,191,6.0,10.0,73,0.00,,---,0.00,VWS V14.01,2013-05-03 06:57:00,
2013-05-03 02:58:00,63.1,54.3,30.08,South,175,0.0,10.0,73,0.00,,---,0.00,VWS V14.01,2013-05-03 06:58:00,
2013-05-03 02:59:00,63.1,54.3,30.08,South,189,0.0,10.0,73,0.00,,---,0.00,VWS V14.01,2013-05-03 06:59:00,
2013-05-03 03:00:00,63.0,54.2,30.08,South,189,0.0,0.0,73,0.00,,---,0.00,VWS V14.01,2013-05-03 07:00:00,
2013-05-03 03:01:00,63.0,54.2,30.08,WSW,250,7.0,7.0,73,0.00,,---,0.00,VWS V14.01,2013-05-03 07:01:00,
2013-05-03 03:02:00,63.0,54.2,30.08,West,266,0.0,7.0,73,0.00,,---,0.00,VWS V14.01,2013-05-03 07:02:00,
2013-05-03 03:03:00,62.9,54.1,30.08,West,277,1.0,11.0,73,0.00,,---,0.00,VWS V14.01,2013-05-03 07:03:00,
2013-05-03 03:04:00,62.9,54.1,30.08,South,190,0.0,11.0,73,0.00,,---,0.00,VWS V14.01,2013-05-03 07:04:00,
2013-05-03 03:05:00,62.9,54.1,30.08,WSW,238,3.0,11.0,73,0.00,,---,0.00,VWS V14.01,2013-05-03 07:05:00,
2013-05-03 03:06:00,62.9,54.1,30.08,WNW,282,0.0,11.0,73,0.00,,---,0.00,VWS V14.01,2013-05-03 07:06:00,
2013-05-03 03:07:00,62.8,54.0,30.08,WSW,253,5.0,11.0,73,0.00,,---,0.00,VWS V14.01,2013-05-03 07:07:00,
2013-05-03 03:08:00,62.8,54.0,30.09,South,177,0.0,11.0,73,0.00,,---,0.00,VWS V14.01,2013-05-03 07:08:00,
2013-05-03 03:09:00,62.8,54.0,30.08,South,181,0.0,11.0,73,0.00,,---,0.00,VWS V14.01,2013-05-03 07:09:00,
2013-05-03 03:10:00,62.8,54.0,30.08,West,273,0.0,11.0,73,0.00,,---,0.00,VWS V14.01,2013-05-03 07:10:00,
2013-05-03 03:11:00,62.7,53.9,30.09,SW,232,4.0,11.0,73,0.00,,---,0.00,VWS V14.01,2013-05-03 07:11:00,
2013-05-03 03:12:00,62.7,53.9,30.09,SW,221,0.0,11.0,73,0.00,,---,0.00,VWS V14.01,2013-05-03 07:12:00,
2013-05-03 03:13:00,62.7,53.9,30.09,SW,219,0.0,11.0,73,0.00,,---,0.00,VWS V14.01,2013-05-03 07:13:00,
2013-05-03 03:14:00,62.7,53.9,30.08,WSW,245,0.0,11.0,73,0.00,,---,0.00,VWS V14.01,2013-05-03 07:14:00,
2013-05-03 03:15:00,62.7,53.9,30.09,WSW,255,0.0,11.0,73,0.00,,---,0.00,VWS V14.01,2013-05-03 07:15:00,
2013-05-03 03:16:00,62.6,53.8,30.09,SSE,167,0.0,11.0,73,0.00,,---,0.00,VWS V14.01,2013-05-03 07:16:00,
2013-05-03 03:17:00,62.6,53.8,30.09,WSW,257,0.0,11.0,73,0.00,,---,0.00,VWS V14.01,2013-05-03 07:17:00,
2013-05-03 03:18:00,62.6,53.8,30.09,SW,215,0.0,11.0,73,0.00,,---,0.00,VWS V14.01,2013-05-03 07:18:00,
2013-05-03 03:19:00,62.6,53.8,30.09,WSW,244,0.0,11.0,73,0.00,,---,0.00,VWS V14.01,2013-05-03 07:19:00,
2013-05-03 03:20:00,62.6,53.8,30.09,SSE,165,0.0,11.0,73,0.00,,---,0.00,VWS V14.01,2013-05-03 07:20:00,
2013-05-03 03:21:00,62.6,53.5,30.09,SSE,166,1.0,11.0,72,0.00,,---,0.00,VWS V14.01,2013-05-03 07:21:00,
2013-05-03 03:22:00,62.5,53.4,30.09,SW,222,1.0,11.0,72,0.00,,---,0.00,VWS V14.01,2013-05-03 07:22:00,
2013-05-03 03:23:00,62.5,53.4,30.09,SSW,200,5.0,11.0,72,0.00,,---,0.00,VWS V14.01,2013-05-03 07:23:00,
2013-05-03 03:24:00,62.5,53.0,30.09,WSW,249,4.0,11.0,71,0.00,,---,0.00,VWS V14.01,2013-05-03 07:24:00,
2013-05-03 03:25:00,62.5,53.0,30.09,SSE,160,0.0,11.0,71,0.00,,---,0.00,VWS V14.01,2013-05-03 07:25:00,
2013-05-03 03:26:00,62.5,53.4,30.09,SSE,161,0.0,11.0,72,0.00,,---,0.00,VWS V14.01,2013-05-03 07:26:00,
2013-05-03 03:27:00,62.5,53.4,30.09,SSW,195,0.0,11.0,72,0.00,,---,0.00,VWS V14.01,2013-05-03 07:27:00,
2013-05-03 03:28:00,62.5,53.0,30.09,SW,227,0.0,11.0,71,0.00,,---,0.00,VWS V14.01,2013-05-03 07:28:00,
2013-05-03 03:29:00,62.5,53.0,30.09,WSW,248,0.0,11.0,71,0.00,,---,0.00,VWS V14.01,2013-05-03 07:29:00,
2013-05-03 03:30:00,62.5,53.4,30.09,WSW,246,0.0,11.0,72,0.00,,---,0.00,VWS V14.01,2013-05-03 07:30:00,
2013-05-03 03:31:00,62.5,53.4,30.09,South,173,0.0,1.0,72,0.00,,---,0.00,VWS V14.01,2013-05-03 07:31:00,
2013-05-03 03:32:00,62.5,53.4,30.09,SW,236,1.0,5.0,72,0.00,,---,0.00,VWS V14.01,2013-05-03 07:32:00,
2013-05-03 03:33:00,62.4,53.3,30.09,SW,236,3.0,5.0,72,0.00,,---,0.00,VWS V14.01,2013-05-03 07:33:00,
2013-05-03 03:34:00,62.4,53.3,30.09,SSW,205,0.0,5.0,72,0.00,,---,0.00,VWS V14.01,2013-05-03 07:34:00,
2013-05-03 03:35:00,62.4,53.3,30.09,South,178,0.0,5.0,72,0.00,,---,0.00,VWS V14.01,2013-05-03 07:35:00,
2013-05-03 03:36:00,62.4,53.3,30.09,WSW,246,2.0,6.0,72,0.00,,---,0.00,VWS V14.01,2013-05-03 07:36:00,
2013-05-03 03:37:00,62.4,52.9,30.09,South,181,2.0,7.0,71,0.00,,---,0.00,VWS V14.01,2013-05-03 07:37:00,
2013-05-03 03:38:00,62.3,53.2,30.09,South,184,0.0,7.0,72,0.00,,---,0.00,VWS V14.01,2013-05-03 07:38:00,
2013-05-03 03:39:00,62.3,52.8,30.09,WSW,254,0.0,7.0,71,0.00,,---,0.00,VWS V14.01,2013-05-03 07:39:00,
2013-05-03 03:40:00,62.3,53.2,30.09,SW,231,0.0,7.0,72,0.00,,---,0.00,VWS V14.01,2013-05-03 07:40:00,
2013-05-03 03:41:00,62.3,53.2,30.09,WSW,242,0.0,7.0,72,0.00,,---,0.00,VWS V14.01,2013-05-03 07:41:00,
2013-05-03 03:42:00,62.3,53.2,30.09,West,277,1.0,7.0,72,0.00,,---,0.00,VWS V14.01,2013-05-03 07:42:00,
2013-05-03 03:43:00,62.2,53.1,30.09,South,179,1.0,7.0,72,0.00,,---,0.00,VWS V14.01,2013-05-03 07:43:00,
2013-05-03 03:44:00,62.2,53.1,30.09,South,170,0.0,7.0,72,0.00,,---,0.00,VWS V14.01,2013-05-03 07:44:00,
2013-05-03 03:45:00,62.2,53.1,30.09,SSW,198,0.0,7.0,72,0.00,,---,0.00,VWS V14.01,2013-05-03 07:45:00,
2013-05-03 03:46:00,62.2,53.1,30.09,SSW,208,0.0,7.0,72,0.00,,---,0.00,VWS V14.01,2013-05-03 07:46:00,
2013-05-03 03:47:00,62.1,53.0,30.09,SSW,193,0.0,7.0,72,0.00,,---,0.00,VWS V14.01,2013-05-03 07:47:00,
2013-05-03 03:48:00,62.1,53.0,30.09,SW,234,2.0,8.0,72,0.00,,---,0.00,VWS V14.01,2013-05-03 07:48:00,
2013-05-03 03:49:00,62.1,53.0,30.09,SSW,199,0.0,8.0,72,0.00,,---,0.00,VWS V14.01,2013-05-03 07:49:00,
2013-05-03 03:50:00,62.0,52.5,30.09,SSW,213,0.0,8.0,71,0.00,,---,0.00,VWS V14.01,2013-05-03 07:50:00,
2013-05-03 03:51:00,62.0,52.5,30.09,SSE,148,0.0,8.0,71,0.00,,---,0.00,VWS V14.01,2013-05-03 07:51:00,
2013-05-03 03:52:00,62.0,52.5,30.09,South,171,0.0,8.0,71,0.00,,---,0.00,VWS V14.01,2013-05-03 07:52:00,
2013-05-03 03:53:00,62.0,52.5,30.09,South,173,0.0,8.0,71,0.00,,---,0.00,VWS V14.01,2013-05-03 07:53:00,
2013-05-03 03:54:00,61.9,52.4,30.09,South,178,2.0,8.0,71,0.00,,---,0.00,VWS V14.01,2013-05-03 07:54:00,
2013-05-03 03:55:00,61.9,52.4,30.09,South,176,7.0,8.0,71,0.00,,---,0.00,VWS V14.01,2013-05-03 07:55:00,
2013-05-03 03:56:00,61.9,52.4,30.09,South,190,0.0,11.0,71,0.00,,---,0.00,VWS V14.01,2013-05-03 07:56:00,
2013-05-03 03:57:00,61.9,52.4,30.09,SSW,201,0.0,11.0,71,0.00,,---,0.00,VWS V14.01,2013-05-03 07:57:00,
2013-05-03 03:58:00,61.9,52.4,30.09,SSW,200,0.0,11.0,71,0.00,,---,0.00,VWS V14.01,2013-05-03 07:58:00,
2013-05-03 03:59:00,61.9,52.4,30.09,SSW,209,0.0,11.0,71,0.00,,---,0.00,VWS V14.01,2013-05-03 07:59:00,
2013-05-03 04:00:00,61.8,52.3,30.09,SSW,212,0.0,11.0,71,0.00,,---,0.00,VWS V14.01,2013-05-03 08:00:00,
2013-05-03 04:01:00,61.8,52.3,30.09,South,187,3.0,5.0,71,0.00,,---,0.00,VWS V14.01,2013-05-03 08:01:00,
2013-05-03 04:02:00,61.8,52.3,30.09,South,187,0.0,5.0,71,0.00,,---,0.00,VWS V14.01,2013-05-03 08:02:00,
2013-05-03 04:03:00,61.8,52.3,30.09,South,187,0.0,5.0,71,0.00,,---,0.00,VWS V14.01,2013-05-03 08:03:00,
2013-05-03 04:04:00,61.7,52.2,30.09,South,182,0.0,5.0,71,0.00,,---,0.00,VWS V14.01,2013-05-03 08:04:00,
2013-05-03 04:05:00,61.7,52.2,30.09,South,182,0.0,5.0,71,0.00,,---,0.00,VWS V14.01,2013-05-03 08:05:00,
2013-05-03 04:06:00,61.7,52.2,30.09,SSE,153,9.0,9.0,71,0.00,,---,0.00,VWS V14.01,2013-05-03 08:06:00,
2013-05-03 04:07:00,61.7,52.2,30.09,SSE,153,8.0,9.0,71,0.00,,---,0.00,VWS V14.01,2013-05-03 08:07:00,
2013-05-03 04:08:00,61.7,52.2,30.09,SSE,153,8.0,9.0,71,0.00,,---,0.00,VWS V14.01,2013-05-03 08:08:00,
2013-05-03 04:09:00,61.6,51.7,30.09,South,169,0.0,9.0,70,0.00,,---,0.00,VWS V14.01,2013-05-03 08:09:00,
2013-05-03 04:10:00,61.6,51.7,30.09,South,184,0.0,12.0,70,0.00,,---,0.00,VWS V14.01,2013-05-03 08:10:00,
2013-05-03 04:11:00,61.5,51.6,30.09,SSW,192,8.0,12.0,70,0.00,,---,0.00,VWS V14.01,2013-05-03 08:11:00,
2013-05-03 04:12:00,61.5,51.6,30.09,South,171,3.0,12.0,70,0.00,,---,0.00,VWS V14.01,2013-05-03 08:12:00,
2013-05-03 04:13:00,61.5,51.6,30.09,South,186,3.0,12.0,70,0.00,,---,0.00,VWS V14.01,2013-05-03 08:13:00,
2013-05-03 04:14:00,61.5,51.6,30.09,SW,218,4.0,12.0,70,0.00,,---,0.00,VWS V14.01,2013-05-03 08:14:00,
2013-05-03 04:15:00,61.4,51.5,30.09,South,169,4.0,17.0,70,0.00,,---,0.00,VWS V14.01,2013-05-03 08:15:00,
2013-05-03 04:16:00,61.4,51.5,30.09,SSE,150,3.0,17.0,70,0.00,,---,0.00,VWS V14.01,2013-05-03 08:16:00,
2013-05-03 04:17:00,61.4,51.5,30.09,South,190,6.0,17.0,70,0.00,,---,0.00,VWS V14.01,2013-05-03 08:17:00,
2013-05-03 04:18:00,61.4,51.5,30.09,ESE,103,0.0,17.0,70,0.00,,---,0.00,VWS V14.01,2013-05-03 08:18:00,
2013-05-03 04:19:00,61.3,51.5,30.09,SSE,165,2.0,17.0,70,0.00,,---,0.00,VWS V14.01,2013-05-03 08:19:00,
2013-05-03 04:20:00,61.3,51.5,30.09,SW,233,12.0,17.0,70,0.00,,---,0.00,VWS V14.01,2013-05-03 08:20:00,
2013-05-03 04:21:00,61.3,51.5,30.09,South,181,0.0,17.0,70,0.00,,---,0.00,VWS V14.01,2013-05-03 08:21:00,
2013-05-03 04:22:00,61.3,51.5,30.09,South,175,3.0,17.0,70,0.00,,---,0.00,VWS V14.01,2013-05-03 08:22:00,
2013-05-03 04:23:00,61.3,51.5,30.09,South,169,0.0,17.0,70,0.00,,---,0.00,VWS V14.01,2013-05-03 08:23:00,
2013-05-03 04:24:00,61.2,51.3,30.09,South,180,5.0,17.0,70,0.00,,---,0.00,VWS V14.01,2013-05-03 08:24:00,
2013-05-03 04:25:00,61.2,51.3,30.10,WSW,238,0.0,17.0,70,0.00,,---,0.00,VWS V14.01,2013-05-03 08:25:00,
2013-05-03 04:26:00,61.2,51.3,30.10,South,178,1.0,17.0,70,0.00,,---,0.00,VWS V14.01,2013-05-03 08:26:00,
2013-05-03 04:27:00,61.1,51.2,30.10,West,263,3.0,17.0,70,0.00,,---,0.00,VWS V14.01,2013-05-03 08:27:00,
2013-05-03 04:28:00,61.1,51.2,30.10,South,178,2.0,17.0,70,0.00,,---,0.00,VWS V14.01,2013-05-03 08:28:00,
2013-05-03 04:29:00,61.1,51.2,30.10,South,187,0.0,17.0,70,0.00,,---,0.00,VWS V14.01,2013-05-03 08:29:00,
2013-05-03 04:30:00,61.0,51.2,30.10,South,175,1.0,17.0,70,0.00,,---,0.00,VWS V14.01,2013-05-03 08:30:00,
2013-05-03 04:31:00,61.0,51.2,30.10,South,171,0.0,4.0,70,0.00,,---,0.00,VWS V14.01,2013-05-03 08:31:00,
2013-05-03 04:32:00,60.9,51.1,30.10,South,172,4.0,8.0,70,0.00,,---,0.00,VWS V14.01,2013-05-03 08:32:00,
2013-05-03 04:33:00,60.9,51.5,30.10,SSE,157,6.0,11.0,71,0.00,,---,0.00,VWS V14.01,2013-05-03 08:33:00,
2013-05-03 04:34:00,60.9,51.1,30.10,South,182,2.0,11.0,70,0.00,,---,0.00,VWS V14.01,2013-05-03 08:34:00,
2013-05-03 04:35:00,60.8,51.0,30.10,South,191,12.0,12.0,70,0.00,,---,0.00,VWS V14.01,2013-05-03 08:35:00,
2013-05-03 04:36:00,60.7,50.9,30.10,South,175,3.0,12.0,70,0.00,,---,0.00,VWS V14.01,2013-05-03 08:36:00,
2013-05-03 04:37:00,60.7,50.9,30.10,SSW,192,0.0,12.0,70,0.00,,---,0.00,VWS V14.01,2013-05-03 08:37:00,
2013-05-03 04:38:00,60.7,50.9,30.10,South,188,2.0,12.0,70,0.00,,---,0.00,VWS V14.01,2013-05-03 08:38:00,
2013-05-03 04:39:00,60.6,50.8,30.10,WNW,289,2.0,12.0,70,0.00,,---,0.00,VWS V14.01,2013-05-03 08:39:00,
2013-05-03 04:40:00,60.6,50.8,30.10,WSW,247,0.0,12.0,70,0.00,,---,0.00,VWS V14.01,2013-05-03 08:40:00,
2013-05-03 04:41:00,60.5,51.1,30.10,SSE,163,0.0,12.0,71,0.00,,---,0.00,VWS V14.01,2013-05-03 08:41:00,
2013-05-03 04:42:00,60.5,51.1,30.10,SSW,194,1.0,12.0,71,0.00,,---,0.00,VWS V14.01,2013-05-03 08:42:00,
2013-05-03 04:43:00,60.5,51.1,30.10,SSE,154,0.0,12.0,71,0.00,,---,0.00,VWS V14.01,2013-05-03 08:43:00,
2013-05-03 04:44:00,60.5,51.1,30.10,South,190,0.0,12.0,71,0.00,,---,0.00,VWS V14.01,2013-05-03 08:44:00,
2013-05-03 04:45:00,60.4,51.0,30.10,South,184,0.0,12.0,71,0.00,,---,0.00,VWS V14.01,2013-05-03 08:45:00,
2013-05-03 04:46:00,60.4,51.0,30.10,SSE,166,4.0,12.0,71,0.00,,---,0.00,VWS V14.01,2013-05-03 08:46:00,
2013-05-03 04:47:00,60.4,51.0,30.10,SSW,193,3.0,12.0,71,0.00,,---,0.00,VWS V14.01,2013-05-03 08:47:00,
2013-05-03 04:48:00,60.4,51.0,30.11,SSE,161,0.0,12.0,71,0.00,,---,0.00,VWS V14.01,2013-05-03 08:48:00,
2013-05-03 04:49:00,60.4,51.0,30.11,SSW,196,9.0,12.0,71,0.00,,---,0.00,VWS V14.01,2013-05-03 08:49:00,
2013-05-03 04:50:00,60.3,50.9,30.11,South,190,3.0,17.0,71,0.00,,---,0.00,VWS V14.01,2013-05-03 08:50:00,
2013-05-03 04:51:00,60.3,50.9,30.11,South,189,3.0,17.0,71,0.00,,---,0.00,VWS V14.01,2013-05-03 08:51:00,
2013-05-03 04:52:00,60.3,50.9,30.11,South,183,6.0,17.0,71,0.00,,---,0.00,VWS V14.01,2013-05-03 08:52:00,
2013-05-03 04:53:00,60.3,50.9,30.11,South,186,0.0,17.0,71,0.00,,---,0.00,VWS V14.01,2013-05-03 08:53:00,
2013-05-03 04:54:00,60.3,50.9,30.11,SSW,211,0.0,17.0,71,0.00,,---,0.00,VWS V14.01,2013-05-03 08:54:00,
2013-05-03 04:55:00,60.2,50.8,30.11,ESE,104,0.0,17.0,71,0.00,,---,0.00,VWS V14.01,2013-05-03 08:55:00,
2013-05-03 04:56:00,60.2,51.2,30.11,South,175,5.0,17.0,72,0.00,,---,0.00,VWS V14.01,2013-05-03 08:56:00,
2013-05-03 04:57:00,60.2,50.8,30.11,SSE,154,4.0,17.0,71,0.00,,---,0.00,VWS V14.01,2013-05-03 08:57:00,
2013-05-03 04:58:00,60.2,50.8,30.11,SSW,192,0.0,17.0,71,0.00,,---,0.00,VWS V14.01,2013-05-03 08:58:00,
2013-05-03 04:59:00,60.1,50.7,30.11,SSW,209,1.0,17.0,71,0.00,,---,0.00,VWS V14.01,2013-05-03 08:59:00,
2013-05-03 05:00:00,60.1,50.7,30.11,SE,142,5.0,17.0,71,0.00,,---,0.00,VWS V14.01,2013-05-03 09:00:00,
2013-05-03 05:01:00,60.1,50.7,30.11,South,178,3.0,5.0,71,0.00,,---,0.00,VWS V14.01,2013-05-03 09:01:00,
2013-05-03 05:02:00,60.0,50.6,30.11,SSE,163,0.0,5.0,71,0.00,,---,0.00,VWS V14.01,2013-05-03 09:02:00,
2013-05-03 05:03:00,60.0,50.6,30.11,South,182,1.0,7.0,71,0.00,,---,0.00,VWS V14.01,2013-05-03 09:03:00,
2013-05-03 05:04:00,59.9,50.5,30.11,South,172,5.0,13.0,71,0.00,,---,0.00,VWS V14.01,2013-05-03 09:04:00,
2013-05-03 05:05:00,59.9,50.1,30.11,South,185,7.0,13.0,70,0.00,,---,0.00,VWS V14.01,2013-05-03 09:05:00,
2013-05-03 05:06:00,59.9,50.5,30.11,SSW,205,4.0,13.0,71,0.00,,---,0.00,VWS V14.01,2013-05-03 09:06:00,
2013-05-03 05:07:00,59.8,50.4,30.11,SW,234,6.0,13.0,71,0.00,,---,0.00,VWS V14.01,2013-05-03 09:07:00,
2013-05-03 05:08:00,59.8,50.4,30.11,SSE,159,7.0,13.0,71,0.00,,---,0.00,VWS V14.01,2013-05-03 09:08:00,
2013-05-03 05:09:00,59.8,50.0,30.11,SSW,192,4.0,13.0,70,0.00,,---,0.00,VWS V14.01,2013-05-03 09:09:00,
2013-05-03 05:10:00,59.7,50.3,30.11,South,178,7.0,13.0,71,0.00,,---,0.00,VWS V14.01,2013-05-03 09:10:00,
2013-05-03 05:11:00,59.7,50.7,30.11,South,190,8.0,13.0,72,0.00,,---,0.00,VWS V14.01,2013-05-03 09:11:00,
2013-05-03 05:12:00,59.7,49.9,30.10,SSE,164,3.0,13.0,70,0.00,,---,0.00,VWS V14.01,2013-05-03 09:12:00,
2013-05-03 05:13:00,59.6,49.8,30.10,South,171,2.0,13.0,70,0.00,,---,0.00,VWS V14.01,2013-05-03 09:13:00,
2013-05-03 05:14:00,59.6,49.8,30.10,South,174,0.0,13.0,70,0.00,,---,0.00,VWS V14.01,2013-05-03 09:14:00,
2013-05-03 05:15:00,59.6,49.8,30.10,South,180,5.0,13.0,70,0.00,,---,0.00,VWS V14.01,2013-05-03 09:15:00,
2013-05-03 05:16:00,59.6,49.8,30.10,South,172,0.0,13.0,70,0.00,,---,0.00,VWS V14.01,2013-05-03 09:16:00,
2013-05-03 05:17:00,59.5,49.7,30.10,SSE,161,0.0,13.0,70,0.00,,---,0.00,VWS V14.01,2013-05-03 09:17:00,
2013-05-03 05:18:00,59.5,49.7,30.10,South,186,6.0,13.0,70,0.00,,---,0.00,VWS V14.01,2013-05-03 09:18:00,
2013-05-03 05:19:00,59.5,49.7,30.10,South,188,5.0,13.0,70,0.00,,---,0.00,VWS V14.01,2013-05-03 09:19:00,
2013-05-03 05:20:00,59.5,49.7,30.10,South,184,6.0,13.0,70,0.00,,---,0.00,VWS V14.01,2013-05-03 09:20:00,
2013-05-03 05:21:00,59.5,49.7,30.10,SSE,163,5.0,13.0,70,0.00,,---,0.00,VWS V14.01,2013-05-03 09:21:00,
2013-05-03 05:22:00,59.4,49.6,30.10,South,184,1.0,13.0,70,0.00,,---,0.00,VWS V14.01,2013-05-03 09:22:00,
2013-05-03 05:23:00,59.4,49.6,30.10,SE,137,6.0,13.0,70,0.00,,---,0.00,VWS V14.01,2013-05-03 09:23:00,
2013-05-03 05:24:00,59.4,49.6,30.10,SSW,197,7.0,13.0,70,0.00,,---,0.00,VWS V14.01,2013-05-03 09:24:00,
2013-05-03 05:25:00,59.3,49.5,30.10,SSW,195,0.0,13.0,70,0.00,,---,0.00,VWS V14.01,2013-05-03 09:25:00,
2013-05-03 05:26:00,59.3,49.5,30.10,SSE,155,1.0,13.0,70,0.00,,---,0.00,VWS V14.01,2013-05-03 09:26:00,
2013-05-03 05:27:00,59.3,49.5,30.10,SSE,151,0.0,13.0,70,0.00,,---,0.00,VWS V14.01,2013-05-03 09:27:00,
2013-05-03 05:28:00,59.3,49.5,30.10,SSW,200,8.0,13.0,70,0.00,,---,0.00,VWS V14.01,2013-05-03 09:28:00,
2013-05-03 05:29:00,59.3,49.1,30.10,South,174,0.0,13.0,69,0.00,,---,0.00,VWS V14.01,2013-05-03 09:29:00,
2013-05-03 05:30:00,59.3,49.1,30.10,South,180,0.0,13.0,69,0.00,,---,0.00,VWS V14.01,2013-05-03 09:30:00,
2013-05-03 05:31:00,59.3,49.5,30.10,South,180,0.0,1.0,70,0.00,,---,0.00,VWS V14.01,2013-05-03 09:31:00,
2013-05-03 05:32:00,59.2,49.4,30.10,South,176,5.0,5.0,70,0.00,,---,0.00,VWS V14.01,2013-05-03 09:32:00,
2013-05-03 05:33:00,59.2,49.4,30.10,SE,142,0.0,5.0,70,0.00,,---,0.00,VWS V14.01,2013-05-03 09:33:00,
2013-05-03 05:34:00,59.2,49.4,30.10,SSE,157,0.0,5.0,70,0.00,,---,0.00,VWS V14.01,2013-05-03 09:34:00,
2013-05-03 05:35:00,59.1,49.3,30.10,South,177,4.0,6.0,70,0.00,,---,0.00,VWS V14.01,2013-05-03 09:35:00,
2013-05-03 05:36:00,59.1,49.0,30.10,SSW,209,10.0,10.0,69,0.00,,---,0.00,VWS V14.01,2013-05-03 09:36:00,
2013-05-03 05:37:00,59.1,49.0,30.10,South,172,0.0,12.0,69,0.00,,---,0.00,VWS V14.01,2013-05-03 09:37:00,
2013-05-03 05:38:00,59.1,49.0,30.10,South,170,2.0,12.0,69,0.00,,---,0.00,VWS V14.01,2013-05-03 09:38:00,
2013-05-03 05:39:00,59.1,49.0,30.10,South,169,1.0,12.0,69,0.00,,---,0.00,VWS V14.01,2013-05-03 09:39:00,
2013-05-03 05:40:00,59.0,48.9,30.10,South,182,5.0,12.0,69,0.00,,---,0.00,VWS V14.01,2013-05-03 09:40:00,
2013-05-03 05:41:00,59.0,48.9,30.10,SSE,154,4.0,12.0,69,0.00,,---,0.00,VWS V14.01,2013-05-03 09:41:00,
2013-05-03 05:42:00,58.9,48.8,30.10,South,186,3.0,12.0,69,0.00,,---,0.00,VWS V14.01,2013-05-03 09:42:00,
2013-05-03 05:43:00,58.9,48.8,30.10,SE,128,10.0,12.0,69,0.00,,---,0.00,VWS V14.01,2013-05-03 09:43:00,
2013-05-03 05:44:00,58.9,48.4,30.10,SSW,194,4.0,17.0,68,0.00,,---,0.00,VWS V14.01,2013-05-03 09:44:00,
2013-05-03 05:45:00,58.9,48.4,30.10,South,184,7.0,17.0,68,0.00,,---,0.00,VWS V14.01,2013-05-03 09:45:00,
2013-05-03 05:46:00,58.9,48.4,30.10,SSE,163,1.0,17.0,68,0.00,,---,0.00,VWS V14.01,2013-05-03 09:46:00,
2013-05-03 05:47:00,58.9,48.4,30.10,SSE,166,3.0,17.0,68,0.00,,---,0.00,VWS V14.01,2013-05-03 09:47:00,
2013-05-03 05:48:00,58.8,48.3,30.10,South,173,8.0,17.0,68,0.00,,---,0.00,VWS V14.01,2013-05-03 09:48:00,
2013-05-03 05:49:00,58.8,47.9,30.10,South,178,3.0,17.0,67,0.00,,---,0.00,VWS V14.01,2013-05-03 09:49:00,
2013-05-03 05:50:00,58.8,48.3,30.10,South,188,4.0,17.0,68,0.00,,---,0.00,VWS V14.01,2013-05-03 09:50:00,
2013-05-03 05:51:00,58.8,47.9,30.10,South,176,5.0,17.0,67,0.00,,---,0.00,VWS V14.01,2013-05-03 09:51:00,
2013-05-03 05:52:00,58.7,48.2,30.10,SSW,200,0.0,17.0,68,0.00,,---,0.00,VWS V14.01,2013-05-03 09:52:00,
2013-05-03 05:53:00,58.7,47.8,30.10,South,177,0.0,17.0,67,0.00,,---,0.00,VWS V14.01,2013-05-03 09:53:00,
2013-05-03 05:54:00,58.7,48.2,30.10,South,178,0.0,17.0,68,0.00,,---,0.00,VWS V14.01,2013-05-03 09:54:00,
2013-05-03 05:55:00,58.6,48.1,30.10,South,182,0.0,17.0,68,0.00,,---,0.00,VWS V14.01,2013-05-03 09:55:00,
2013-05-03 05:56:00,58.6,48.1,30.10,South,184,5.0,17.0,68,0.00,,---,0.00,VWS V14.01,2013-05-03 09:56:00,
2013-05-03 05:57:00,58.5,48.0,30.10,South,169,0.0,17.0,68,0.00,,---,0.00,VWS V14.01,2013-05-03 09:57:00,
2013-05-03 05:58:00,58.5,48.0,30.10,South,169,5.0,17.0,68,0.00,,---,0.00,VWS V14.01,2013-05-03 09:58:00,
2013-05-03 05:59:00,58.4,47.9,30.10,South,176,6.0,17.0,68,0.00,,---,0.00,VWS V14.01,2013-05-03 09:59:00,
2013-05-03 06:00:00,58.4,47.5,30.10,South,175,7.0,17.0,67,0.00,,---,0.00,VWS V14.01,2013-05-03 10:00:00,
2013-05-03 06:01:00,58.3,47.8,30.10,South,179,4.0,8.0,68,0.00,,---,0.00,VWS V14.01,2013-05-03 10:01:00,
2013-05-03 06:02:00,58.3,47.8,30.10,SSW,203,5.0,9.0,68,0.00,,---,0.00,VWS V14.01,2013-05-03 10:02:00,
2013-05-03 06:03:00,58.2,47.7,30.10,South,185,7.0,11.0,68,0.00,,---,0.00,VWS V14.01,2013-05-03 10:03:00,
2013-05-03 06:04:00,58.2,47.3,30.10,South,182,2.0,11.0,67,0.00,,---,0.00,VWS V14.01,2013-05-03 10:04:00,
2013-05-03 06:05:00,58.1,47.6,30.10,South,169,4.0,11.0,68,0.00,,---,0.00,VWS V14.01,2013-05-03 10:05:00,
2013-05-03 06:06:00,58.1,47.6,30.09,SSE,167,14.0,17.0,68,0.00,,---,0.00,VWS V14.01,2013-05-03 10:06:00,
2013-05-03 06:07:00,58.0,47.5,30.09,SSE,168,2.0,17.0,68,0.00,,---,0.00,VWS V14.01,2013-05-03 10:07:00,
2013-05-03 06:08:00,58.0,47.5,30.10,South,188,3.0,17.0,68,0.00,,---,0.00,VWS V14.01,2013-05-03 10:08:00,
2013-05-03 06:09:00,58.0,47.5,30.10,WSW,255,0.0,17.0,68,0.00,,---,0.00,VWS V14.01,2013-05-03 10:09:00,
2013-05-03 06:10:00,57.9,47.4,30.10,SSE,165,1.0,17.0,68,0.00,,---,0.00,VWS V14.01,2013-05-03 10:10:00,
2013-05-03 06:11:00,57.9,47.4,30.09,SSE,151,9.0,17.0,68,0.00,,---,0.00,VWS V14.01,2013-05-03 10:11:00,
2013-05-03 06:12:00,57.8,47.3,30.09,SSW,193,6.0,17.0,68,0.00,,---,0.00,VWS V14.01,2013-05-03 10:12:00,
2013-05-03 06:13:00,57.8,47.3,30.09,South,184,6.0,17.0,68,0.00,,---,0.00,VWS V14.01,2013-05-03 10:13:00,
2013-05-03 06:14:00,57.7,47.2,30.09,SW,236,4.0,17.0,68,0.00,,---,0.00,VWS V14.01,2013-05-03 10:14:00,
2013-05-03 06:15:00,57.7,47.6,30.09,SSE,152,4.0,17.0,69,0.00,,---,0.00,VWS V14.01,2013-05-03 10:15:00,
2013-05-03 06:16:00,57.6,47.5,30.09,South,184,0.0,17.0,69,0.00,,---,0.00,VWS V14.01,2013-05-03 10:16:00,
2013-05-03 06:17:00,57.6,47.5,30.09,SSW,195,2.0,17.0,69,0.00,,---,0.00,VWS V14.01,2013-05-03 10:17:00,
2013-05-03 06:18:00,57.6,47.5,30.09,SE,133,1.0,17.0,69,0.00,,---,0.00,VWS V14.01,2013-05-03 10:18:00,
2013-05-03 06:19:00,57.5,47.4,30.09,SSE,165,5.0,17.0,69,0.00,,---,0.00,VWS V14.01,2013-05-03 10:19:00,
2013-05-03 06:20:00,57.5,47.4,30.09,SSE,159,1.0,17.0,69,0.00,,---,0.00,VWS V14.01,2013-05-03 10:20:00,
2013-05-03 06:21:00,57.4,47.3,30.09,South,180,3.0,17.0,69,0.00,,---,0.00,VWS V14.01,2013-05-03 10:21:00,
2013-05-03 06:22:00,57.4,47.3,30.09,South,180,4.0,17.0,69,0.00,,---,0.00,VWS V14.01,2013-05-03 10:22:00,
2013-05-03 06:23:00,57.3,47.2,30.09,ESE,121,0.0,17.0,69,0.00,,---,0.00,VWS V14.01,2013-05-03 10:23:00,
2013-05-03 06:24:00,57.3,47.2,30.09,SSE,159,1.0,17.0,69,0.00,,---,0.00,VWS V14.01,2013-05-03 10:24:00,
2013-05-03 06:25:00,57.3,47.6,30.09,South,171,2.0,17.0,70,0.00,,---,0.00,VWS V14.01,2013-05-03 10:25:00,
2013-05-03 06:26:00,57.2,47.5,30.09,South,178,6.0,17.0,70,0.00,,---,0.00,VWS V14.01,2013-05-03 10:26:00,
2013-05-03 06:27:00,57.2,47.5,30.09,South,181,3.0,17.0,70,0.00,,---,0.00,VWS V14.01,2013-05-03 10:27:00,
2013-05-03 06:28:00,57.2,47.5,30.09,South,186,7.0,17.0,70,0.00,,---,0.00,VWS V14.01,2013-05-03 10:28:00,
2013-05-03 06:29:00,57.1,47.4,30.09,South,182,8.0,17.0,70,0.00,,---,0.00,VWS V14.01,2013-05-03 10:29:00,
2013-05-03 06:30:00,57.1,47.4,30.09,SSE,161,3.0,17.0,70,0.00,,---,0.00,VWS V14.01,2013-05-03 10:30:00,
2013-05-03 06:31:00,57.1,47.4,30.09,South,183,4.0,12.0,70,0.00,,---,0.00,VWS V14.01,2013-05-03 10:31:00,
2013-05-03 06:32:00,57.0,47.3,30.09,SSW,205,4.0,12.0,70,0.00,,---,0.00,VWS V14.01,2013-05-03 10:32:00,
2013-05-03 06:33:00,57.0,47.7,30.09,SSW,193,4.0,12.0,71,0.00,,---,0.00,VWS V14.01,2013-05-03 10:33:00,
2013-05-03 06:34:00,57.0,47.7,30.09,SSE,151,5.0,12.0,71,0.00,,---,0.00,VWS V14.01,2013-05-03 10:34:00,
2013-05-03 06:35:00,56.9,47.6,30.09,SE,139,0.0,12.0,71,0.00,,---,0.00,VWS V14.01,2013-05-03 10:35:00,
2013-05-03 06:36:00,56.9,47.6,30.10,South,185,5.0,12.0,71,0.00,,---,0.00,VWS V14.01,2013-05-03 10:36:00,
2013-05-03 06:37:00,56.9,47.6,30.10,South,175,2.0,12.0,71,0.00,,---,0.00,VWS V14.01,2013-05-03 10:37:00,
2013-05-03 06:38:00,56.8,47.5,30.09,SSE,164,17.0,19.0,71,0.00,,---,0.00,VWS V14.01,2013-05-03 10:38:00,
2013-05-03 06:39:00,56.8,47.5,30.09,South,180,6.0,19.0,71,0.00,,---,0.00,VWS V14.01,2013-05-03 10:39:00,
2013-05-03 06:40:00,56.8,47.5,30.09,South,175,3.0,19.0,71,0.00,,---,0.00,VWS V14.01,2013-05-03 10:40:00,
2013-05-03 06:41:00,56.8,47.5,30.09,South,179,3.0,19.0,71,0.00,,---,0.00,VWS V14.01,2013-05-03 10:41:00,
2013-05-03 06:42:00,56.7,47.8,30.09,SSE,147,7.0,19.0,72,0.00,,---,0.00,VWS V14.01,2013-05-03 10:42:00,
2013-05-03 06:43:00,56.7,47.8,30.09,South,184,5.0,19.0,72,0.00,,---,0.00,VWS V14.01,2013-05-03 10:43:00,
2013-05-03 06:44:00,56.7,47.8,30.09,SSE,153,0.0,19.0,72,0.00,,---,0.00,VWS V14.01,2013-05-03 10:44:00,
2013-05-03 06:45:00,56.6,47.7,30.09,South,180,0.0,19.0,72,0.00,,---,0.00,VWS V14.01,2013-05-03 10:45:00,
2013-05-03 06:46:00,56.6,47.7,30.09,South,178,0.0,19.0,72,0.00,,---,0.00,VWS V14.01,2013-05-03 10:46:00,
2013-05-03 06:47:00,56.6,47.7,30.09,South,181,7.0,19.0,72,0.00,,---,0.00,VWS V14.01,2013-05-03 10:47:00,
2013-05-03 06:48:00,56.5,47.6,30.09,South,181,0.0,19.0,72,0.00,,---,0.00,VWS V14.01,2013-05-03 10:48:00,
2013-05-03 06:49:00,56.5,47.6,30.09,ESE,104,1.0,19.0,72,0.00,,---,0.00,VWS V14.01,2013-05-03 10:49:00,
2013-05-03 06:50:00,56.5,47.6,30.09,WSW,248,8.0,19.0,72,0.00,,---,0.00,VWS V14.01,2013-05-03 10:50:00,
2013-05-03 06:51:00,56.5,47.6,30.09,SSE,155,0.0,19.0,72,0.00,,---,0.00,VWS V14.01,2013-05-03 10:51:00,
2013-05-03 06:52:00,56.4,47.5,30.09,SSW,198,4.0,19.0,72,0.00,,---,0.00,VWS V14.01,2013-05-03 10:52:00,
2013-05-03 06:53:00,56.4,47.5,30.09,South,187,7.0,19.0,72,0.00,,---,0.00,VWS V14.01,2013-05-03 10:53:00,
2013-05-03 06:54:00,56.4,47.5,30.09,South,178,0.0,19.0,72,0.00,,---,0.00,VWS V14.01,2013-05-03 10:54:00,
2013-05-03 06:55:00,56.3,47.4,30.09,SSE,163,2.0,19.0,72,0.00,,---,0.00,VWS V14.01,2013-05-03 10:55:00,
2013-05-03 06:56:00,56.3,47.4,30.09,South,175,7.0,19.0,72,0.00,,---,0.00,VWS V14.01,2013-05-03 10:56:00,
2013-05-03 06:57:00,56.3,47.4,30.09,South,181,5.0,19.0,72,0.00,,---,0.00,VWS V14.01,2013-05-03 10:57:00,
2013-05-03 06:58:00,56.3,47.4,30.09,SSW,192,2.0,19.0,72,0.00,,---,0.00,VWS V14.01,2013-05-03 10:58:00,
2013-05-03 06:59:00,56.3,47.4,30.09,South,177,11.0,19.0,72,0.00,,---,0.00,VWS V14.01,2013-05-03 10:59:00,
2013-05-03 07:00:00,56.3,47.4,30.09,South,178,4.0,19.0,72,0.00,,---,0.00,VWS V14.01,2013-05-03 11:00:00,
2013-05-03 07:01:00,56.2,47.3,30.09,SSW,192,8.0,8.0,72,0.00,,---,0.00,VWS V14.01,2013-05-03 11:01:00,
2013-05-03 07:02:00,56.2,47.3,30.08,SSW,195,0.0,9.0,72,0.00,,---,0.00,VWS V14.01,2013-05-03 11:02:00,
2013-05-03 07:03:00,56.2,47.3,30.08,South,178,0.0,9.0,72,0.00,,---,0.00,VWS V14.01,2013-05-03 11:03:00,
2013-05-03 07:04:00,56.2,47.3,30.08,SW,215,4.0,9.0,72,0.00,,---,0.00,VWS V14.01,2013-05-03 11:04:00,
2013-05-03 07:05:00,56.2,47.3,30.08,South,170,2.0,10.0,72,0.00,,---,0.00,VWS V14.01,2013-05-03 11:05:00,
2013-05-03 07:06:00,56.2,47.3,30.09,South,175,8.0,10.0,72,0.00,,---,0.00,VWS V14.01,2013-05-03 11:06:00,
2013-05-03 07:07:00,56.1,47.2,30.09,SSE,163,3.0,11.0,72,0.00,,---,0.00,VWS V14.01,2013-05-03 11:07:00,
2013-05-03 07:08:00,56.1,47.2,30.09,SSW,205,11.0,16.0,72,0.00,,---,0.00,VWS V14.01,2013-05-03 11:08:00,
2013-05-03 07:09:00,56.1,47.2,30.09,South,188,1.0,16.0,72,0.00,,---,0.00,VWS V14.01,2013-05-03 11:09:00,
2013-05-03 07:10:00,56.1,47.2,30.08,South,173,0.0,16.0,72,0.00,,---,0.00,VWS V14.01,2013-05-03 11:10:00,
2013-05-03 07:11:00,56.1,47.2,30.08,South,175,2.0,16.0,72,0.00,,---,0.00,VWS V14.01,2013-05-03 11:11:00,
2013-05-03 07:12:00,56.1,47.2,30.08,South,175,0.0,16.0,72,0.00,,---,0.00,VWS V14.01,2013-05-03 11:12:00,
2013-05-03 07:13:00,56.1,47.6,30.08,South,191,7.0,16.0,73,0.00,,---,0.00,VWS V14.01,2013-05-03 11:13:00,
2013-05-03 07:14:00,56.1,47.2,30.08,SE,132,0.0,16.0,72,0.00,,---,0.00,VWS V14.01,2013-05-03 11:14:00,
2013-05-03 07:15:00,56.0,47.5,30.08,South,176,1.0,16.0,73,0.00,,---,0.00,VWS V14.01,2013-05-03 11:15:00,
2013-05-03 07:16:00,56.0,47.5,30.08,South,174,1.0,16.0,73,0.00,,---,0.00,VWS V14.01,2013-05-03 11:16:00,
2013-05-03 07:17:00,56.0,47.5,30.08,SSW,194,3.0,16.0,73,0.00,,---,0.00,VWS V14.01,2013-05-03 11:17:00,
2013-05-03 07:18:00,56.0,47.5,30.08,South,188,1.0,16.0,73,0.00,,---,0.00,VWS V14.01,2013-05-03 11:18:00,
2013-05-03 07:19:00,55.9,47.4,30.08,SSE,163,3.0,16.0,73,0.00,,---,0.00,VWS V14.01,2013-05-03 11:19:00,
2013-05-03 07:20:00,55.9,47.4,30.08,South,186,6.0,16.0,73,0.00,,---,0.00,VWS V14.01,2013-05-03 11:20:00,
2013-05-03 07:21:00,55.9,47.4,30.08,South,180,4.0,16.0,73,0.00,,---,0.00,VWS V14.01,2013-05-03 11:21:00,
2013-05-03 07:22:00,55.9,47.4,30.08,WSW,241,3.0,16.0,73,0.00,,---,0.00,VWS V14.01,2013-05-03 11:22:00,
2013-05-03 07:23:00,55.9,47.4,30.08,SSW,207,0.0,16.0,73,0.00,,---,0.00,VWS V14.01,2013-05-03 11:23:00,
2013-05-03 07:24:00,55.9,47.4,30.08,SSE,148,0.0,16.0,73,0.00,,---,0.00,VWS V14.01,2013-05-03 11:24:00,
2013-05-03 07:25:00,55.8,47.3,30.08,South,169,0.0,16.0,73,0.00,,---,0.00,VWS V14.01,2013-05-03 11:25:00,
2013-05-03 07:26:00,55.9,47.4,30.08,South,172,0.0,16.0,73,0.00,,---,0.00,VWS V14.01,2013-05-03 11:26:00,
2013-05-03 07:27:00,55.8,47.3,30.08,SSW,196,4.0,16.0,73,0.00,,---,0.00,VWS V14.01,2013-05-03 11:27:00,
2013-05-03 07:28:00,55.8,47.7,30.08,SSE,167,0.0,16.0,74,0.00,,---,0.00,VWS V14.01,2013-05-03 11:28:00,
2013-05-03 07:29:00,55.8,47.3,30.08,SSE,164,8.0,16.0,73,0.00,,---,0.00,VWS V14.01,2013-05-03 11:29:00,
2013-05-03 07:30:00,55.8,47.3,30.08,South,175,0.0,16.0,73,0.00,,---,0.00,VWS V14.01,2013-05-03 11:30:00,
2013-05-03 07:31:00,55.8,47.7,30.08,South,185,4.0,5.0,74,0.00,,---,0.00,VWS V14.01,2013-05-03 11:31:00,
2013-05-03 07:32:00,55.7,47.5,30.08,South,186,4.0,9.0,74,0.00,,---,0.00,VWS V14.01,2013-05-03 11:32:00,
2013-05-03 07:33:00,55.7,47.2,30.08,South,176,8.0,10.0,73,0.00,,---,0.00,VWS V14.01,2013-05-03 11:33:00,
2013-05-03 07:34:00,55.7,47.5,30.08,SSE,164,0.0,12.0,74,0.00,,---,0.00,VWS V14.01,2013-05-03 11:34:00,
2013-05-03 07:35:00,55.7,47.5,30.08,South,178,5.0,12.0,74,0.00,,---,0.00,VWS V14.01,2013-05-03 11:35:00,
2013-05-03 07:36:00,55.7,47.5,30.08,South,184,1.0,12.0,74,0.00,,---,0.00,VWS V14.01,2013-05-03 11:36:00,
2013-05-03 07:37:00,55.7,47.5,30.08,South,183,0.0,12.0,74,0.00,,---,0.00,VWS V14.01,2013-05-03 11:37:00,
2013-05-03 07:38:00,55.7,47.5,30.08,South,183,0.0,12.0,74,0.00,,---,0.00,VWS V14.01,2013-05-03 11:38:00,
2013-05-03 07:39:00,55.7,47.5,30.08,South,169,0.0,12.0,74,0.00,,---,0.00,VWS V14.01,2013-05-03 11:39:00,
2013-05-03 07:40:00,55.6,47.5,30.08,South,169,3.0,12.0,74,0.00,,---,0.00,VWS V14.01,2013-05-03 11:40:00,
2013-05-03 07:41:00,55.6,47.5,30.08,SSE,148,0.0,12.0,74,0.00,,---,0.00,VWS V14.01,2013-05-03 11:41:00,
2013-05-03 07:42:00,55.6,47.5,30.08,SSE,148,0.0,12.0,74,0.00,,---,0.00,VWS V14.01,2013-05-03 11:42:00,
2013-05-03 07:43:00,55.6,47.5,30.08,SSE,168,0.0,12.0,74,0.00,,---,0.00,VWS V14.01,2013-05-03 11:43:00,
2013-05-03 07:44:00,55.5,47.4,30.08,South,178,2.0,12.0,74,0.00,,---,0.00,VWS V14.01,2013-05-03 11:44:00,
2013-05-03 07:45:00,55.5,47.4,30.08,South,169,1.0,12.0,74,0.00,,---,0.00,VWS V14.01,2013-05-03 11:45:00,
2013-05-03 07:46:00,55.5,47.4,30.08,SSE,154,6.0,12.0,74,0.00,,---,0.00,VWS V14.01,2013-05-03 11:46:00,
2013-05-03 07:47:00,55.5,47.4,30.08,South,185,1.0,12.0,74,0.00,,---,0.00,VWS V14.01,2013-05-03 11:47:00,
2013-05-03 07:48:00,55.5,47.4,30.08,South,173,0.0,12.0,74,0.00,,---,0.00,VWS V14.01,2013-05-03 11:48:00,
2013-05-03 07:49:00,55.4,47.3,30.08,South,172,0.0,12.0,74,0.00,,---,0.00,VWS V14.01,2013-05-03 11:49:00,
2013-05-03 07:50:00,55.4,47.3,30.08,SSE,167,1.0,12.0,74,0.00,,---,0.00,VWS V14.01,2013-05-03 11:50:00,
2013-05-03 07:51:00,55.4,47.3,30.08,SSW,192,7.0,12.0,74,0.00,,---,0.00,VWS V14.01,2013-05-03 11:51:00,
2013-05-03 07:52:00,55.4,47.6,30.08,SSE,167,1.0,12.0,75,0.00,,---,0.00,VWS V14.01,2013-05-03 11:52:00,
2013-05-03 07:53:00,55.3,47.5,30.08,South,187,3.0,12.0,75,0.00,,---,0.00,VWS V14.01,2013-05-03 11:53:00,
2013-05-03 07:54:00,55.3,47.5,30.08,South,176,0.0,12.0,75,0.00,,---,0.00,VWS V14.01,2013-05-03 11:54:00,
2013-05-03 07:55:00,55.3,47.5,30.08,South,187,4.0,12.0,75,0.00,,---,0.00,VWS V14.01,2013-05-03 11:55:00,
2013-05-03 07:56:00,55.3,47.5,30.08,South,180,5.0,12.0,75,0.00,,---,0.00,VWS V14.01,2013-05-03 11:56:00,
2013-05-03 07:57:00,55.3,47.5,30.08,SSE,167,4.0,12.0,75,0.00,,---,0.00,VWS V14.01,2013-05-03 11:57:00,
2013-05-03 07:58:00,55.3,47.5,30.08,SSE,148,8.0,12.0,75,0.00,,---,0.00,VWS V14.01,2013-05-03 11:58:00,
2013-05-03 07:59:00,55.3,47.5,30.08,SSE,164,0.0,12.0,75,0.00,,---,0.00,VWS V14.01,2013-05-03 11:59:00,
2013-05-03 08:00:00,55.2,47.4,30.08,South,176,0.0,12.0,75,0.00,,---,0.00,VWS V14.01,2013-05-03 12:00:00,
2013-05-03 08:01:00,55.2,47.4,30.08,SE,127,0.0,1.0,75,0.00,,---,0.00,VWS V14.01,2013-05-03 12:01:00,
2013-05-03 08:02:00,55.2,47.8,30.08,South,190,7.0,8.0,76,0.00,,---,0.00,VWS V14.01,2013-05-03 12:02:00,
2013-05-03 08:03:00,55.1,47.7,30.08,South,185,3.0,9.0,76,0.00,,---,0.00,VWS V14.01,2013-05-03 12:03:00,
2013-05-03 08:04:00,55.1,47.7,30.08,SSE,165,3.0,9.0,76,0.00,,---,0.00,VWS V14.01,2013-05-03 12:04:00,
2013-05-03 08:05:00,55.1,47.7,30.08,SSE,161,1.0,9.0,76,0.00,,---,0.00,VWS V14.01,2013-05-03 12:05:00,
2013-05-03 08:06:00,55.1,47.7,30.08,SE,143,4.0,9.0,76,0.00,,---,0.00,VWS V14.01,2013-05-03 12:06:00,
2013-05-03 08:07:00,55.1,47.7,30.07,South,170,0.0,9.0,76,0.00,,---,0.00,VWS V14.01,2013-05-03 12:07:00,
2013-05-03 08:08:00,55.1,47.7,30.07,South,171,0.0,9.0,76,0.00,,---,0.00,VWS V14.01,2013-05-03 12:08:00,
2013-05-03 08:09:00,55.0,47.6,30.07,SSE,152,2.0,9.0,76,0.00,,---,0.00,VWS V14.01,2013-05-03 12:09:00,
2013-05-03 08:10:00,55.0,47.6,30.07,SE,125,0.0,9.0,76,0.00,,---,0.00,VWS V14.01,2013-05-03 12:10:00,
2013-05-03 08:11:00,55.0,47.6,30.07,South,169,0.0,9.0,76,0.00,,---,0.00,VWS V14.01,2013-05-03 12:11:00,
2013-05-03 08:12:00,55.0,47.6,30.07,South,171,0.0,9.0,76,0.00,,---,0.00,VWS V14.01,2013-05-03 12:12:00,
2013-05-03 08:13:00,54.9,47.5,30.07,South,171,0.0,9.0,76,0.00,,---,0.00,VWS V14.01,2013-05-03 12:13:00,
2013-05-03 08:14:00,54.9,47.5,30.07,SSE,157,0.0,9.0,76,0.00,,---,0.00,VWS V14.01,2013-05-03 12:14:00,
2013-05-03 08:15:00,54.9,47.5,30.07,SSE,166,0.0,9.0,76,0.00,,---,0.00,VWS V14.01,2013-05-03 12:15:00,
2013-05-03 08:16:00,54.9,47.5,30.07,SSW,205,2.0,9.0,76,0.00,,---,0.00,VWS V14.01,2013-05-03 12:16:00,
2013-05-03 08:17:00,54.9,47.5,30.07,South,178,1.0,9.0,76,0.00,,---,0.00,VWS V14.01,2013-05-03 12:17:00,
2013-05-03 08:18:00,54.9,47.5,30.07,SSE,148,0.0,9.0,76,0.00,,---,0.00,VWS V14.01,2013-05-03 12:18:00,
2013-05-03 08:19:00,54.9,47.8,30.07,SSE,151,0.0,9.0,77,0.00,,---,0.00,VWS V14.01,2013-05-03 12:19:00,
2013-05-03 08:20:00,54.9,47.8,30.07,SSE,157,2.0,12.0,77,0.00,,---,0.00,VWS V14.01,2013-05-03 12:20:00,
2013-05-03 08:21:00,54.8,47.4,30.07,South,179,3.0,12.0,76,0.00,,---,0.00,VWS V14.01,2013-05-03 12:21:00,
2013-05-03 08:22:00,54.8,47.4,30.07,SSE,166,2.0,12.0,76,0.00,,---,0.00,VWS V14.01,2013-05-03 12:22:00,
2013-05-03 08:23:00,54.8,47.4,30.07,South,170,3.0,12.0,76,0.00,,---,0.00,VWS V14.01,2013-05-03 12:23:00,
2013-05-03 08:24:00,54.8,47.4,30.07,South,173,3.0,12.0,76,0.00,,---,0.00,VWS V14.01,2013-05-03 12:24:00,
2013-05-03 08:25:00,54.8,47.7,30.07,South,183,0.0,12.0,77,0.00,,---,0.00,VWS V14.01,2013-05-03 12:25:00,
2013-05-03 08:26:00,54.8,47.7,30.07,South,183,2.0,12.0,77,0.00,,---,0.00,VWS V14.01,2013-05-03 12:26:00,
2013-05-03 08:27:00,54.8,47.7,30.07,SSW,192,7.0,12.0,77,0.00,,---,0.00,VWS V14.01,2013-05-03 12:27:00,
2013-05-03 08:28:00,54.8,47.7,30.07,SSE,155,0.0,12.0,77,0.00,,---,0.00,VWS V14.01,2013-05-03 12:28:00,
2013-05-03 08:29:00,54.8,47.7,30.07,South,178,0.0,12.0,77,0.00,,---,0.00,VWS V14.01,2013-05-03 12:29:00,
2013-05-03 08:30:00,54.7,47.6,30.07,SSW,201,7.0,12.0,77,0.00,,---,0.00,VWS V14.01,2013-05-03 12:30:00,
2013-05-03 08:31:00,54.7,47.6,30.07,South,175,3.0,8.0,77,0.00,,---,0.00,VWS V14.01,2013-05-03 12:31:00,
2013-05-03 08:32:00,54.7,47.6,30.07,South,176,0.0,8.0,77,0.00,,---,0.00,VWS V14.01,2013-05-03 12:32:00,
2013-05-03 08:33:00,54.7,47.6,30.07,SSW,192,1.0,8.0,77,0.00,,---,0.00,VWS V14.01,2013-05-03 12:33:00,
2013-05-03 08:34:00,54.7,47.6,30.07,South,175,5.0,8.0,77,0.00,,---,0.00,VWS V14.01,2013-05-03 12:34:00,
2013-05-03 08:35:00,54.7,47.6,30.07,South,179,0.0,8.0,77,0.00,,---,0.00,VWS V14.01,2013-05-03 12:35:00,
2013-05-03 08:36:00,54.7,47.6,30.07,South,179,0.0,8.0,77,0.00,,---,0.00,VWS V14.01,2013-05-03 12:36:00,
2013-05-03 08:37:00,54.7,47.6,30.07,South,179,0.0,8.0,77,0.00,,---,0.00,VWS V14.01,2013-05-03 12:37:00,
2013-05-03 08:38:00,54.7,47.6,30.07,SSE,166,4.0,8.0,77,0.00,,---,0.00,VWS V14.01,2013-05-03 12:38:00,
2013-05-03 08:39:00,54.6,47.5,30.06,South,188,3.0,8.0,77,0.00,,---,0.00,VWS V14.01,2013-05-03 12:39:00,
2013-05-03 08:40:00,54.6,47.5,30.06,South,181,2.0,8.0,77,0.00,,---,0.00,VWS V14.01,2013-05-03 12:40:00,
2013-05-03 08:41:00,54.6,47.5,30.06,South,184,3.0,8.0,77,0.00,,---,0.00,VWS V14.01,2013-05-03 12:41:00,
2013-05-03 08:42:00,54.6,47.5,30.06,West,265,0.0,8.0,77,0.00,,---,0.00,VWS V14.01,2013-05-03 12:42:00,
2013-05-03 08:43:00,54.6,47.5,30.06,SE,142,0.0,8.0,77,0.00,,---,0.00,VWS V14.01,2013-05-03 12:43:00,
2013-05-03 08:44:00,54.6,47.5,30.06,SSE,163,0.0,8.0,77,0.00,,---,0.00,VWS V14.01,2013-05-03 12:44:00,
2013-05-03 08:45:00,54.6,47.5,30.06,SSE,163,0.0,8.0,77,0.00,,---,0.00,VWS V14.01,2013-05-03 12:45:00,
2013-05-03 08:46:00,54.6,47.5,30.06,SSW,202,1.0,8.0,77,0.00,,---,0.00,VWS V14.01,2013-05-03 12:46:00,
2013-05-03 08:47:00,54.5,47.5,30.06,South,187,5.0,8.0,77,0.00,,---,0.00,VWS V14.01,2013-05-03 12:47:00,
2013-05-03 08:48:00,54.5,47.5,30.06,South,188,3.0,12.0,77,0.00,,---,0.00,VWS V14.01,2013-05-03 12:48:00,
2013-05-03 08:49:00,54.5,47.5,30.06,South,171,6.0,12.0,77,0.00,,---,0.00,VWS V14.01,2013-05-03 12:49:00,
2013-05-03 08:50:00,54.5,47.5,30.06,South,184,4.0,12.0,77,0.00,,---,0.00,VWS V14.01,2013-05-03 12:50:00,
2013-05-03 08:51:00,54.5,47.5,30.06,SSE,168,2.0,12.0,77,0.00,,---,0.00,VWS V14.01,2013-05-03 12:51:00,
2013-05-03 08:52:00,54.5,47.5,30.06,SE,146,0.0,12.0,77,0.00,,---,0.00,VWS V14.01,2013-05-03 12:52:00,
2013-05-03 08:53:00,54.5,47.5,30.06,SSE,159,0.0,12.0,77,0.00,,---,0.00,VWS V14.01,2013-05-03 12:53:00,
2013-05-03 08:54:00,54.5,47.5,30.06,South,171,0.0,12.0,77,0.00,,---,0.00,VWS V14.01,2013-05-03 12:54:00,
2013-05-03 08:55:00,54.5,47.5,30.06,SE,146,0.0,12.0,77,0.00,,---,0.00,VWS V14.01,2013-05-03 12:55:00,
2013-05-03 08:56:00,54.5,47.5,30.06,SSE,153,0.0,12.0,77,0.00,,---,0.00,VWS V14.01,2013-05-03 12:56:00,
2013-05-03 08:57:00,54.5,47.5,30.06,South,190,0.0,12.0,77,0.00,,---,0.00,VWS V14.01,2013-05-03 12:57:00,
2013-05-03 08:58:00,54.5,47.5,30.06,South,180,0.0,12.0,77,0.00,,---,0.00,VWS V14.01,2013-05-03 12:58:00,
2013-05-03 08:59:00,54.4,47.3,30.06,South,180,3.0,12.0,77,0.00,,---,0.00,VWS V14.01,2013-05-03 12:59:00,
2013-05-03 09:00:00,54.4,47.3,30.06,SSW,193,7.0,7.0,77,0.00,,---,0.00,VWS V14.01,2013-05-03 13:00:00,
2013-05-03 09:01:00,54.4,47.3,30.06,SSE,155,0.0,9.0,77,0.00,,---,0.00,VWS V14.01,2013-05-03 13:01:00,
2013-05-03 09:02:00,54.4,47.3,30.06,South,175,0.0,9.0,77,0.00,,---,0.00,VWS V14.01,2013-05-03 13:02:00,
2013-05-03 09:03:00,54.4,47.3,30.06,SSE,157,6.0,9.0,77,0.00,,---,0.00,VWS V14.01,2013-05-03 13:03:00,
2013-05-03 09:04:00,54.3,47.2,30.06,South,178,2.0,9.0,77,0.00,,---,0.00,VWS V14.01,2013-05-03 13:04:00,
2013-05-03 09:05:00,54.3,47.6,30.06,SSE,149,3.0,9.0,78,0.00,,---,0.00,VWS V14.01,2013-05-03 13:05:00,
2013-05-03 09:06:00,54.3,47.6,30.06,South,173,1.0,9.0,78,0.00,,---,0.00,VWS V14.01,2013-05-03 13:06:00,
2013-05-03 09:07:00,54.3,47.6,30.06,South,188,8.0,9.0,78,0.00,,---,0.00,VWS V14.01,2013-05-03 13:07:00,
2013-05-03 09:08:00,54.3,47.6,30.06,SSE,167,5.0,9.0,78,0.00,,---,0.00,VWS V14.01,2013-05-03 13:08:00,
2013-05-03 09:09:00,54.3,47.6,30.06,South,188,2.0,9.0,78,0.00,,---,0.00,VWS V14.01,2013-05-03 13:09:00,
2013-05-03 09:10:00,54.3,47.6,30.06,SSE,168,0.0,9.0,78,0.00,,---,0.00,VWS V14.01,2013-05-03 13:10:00,
2013-05-03 09:11:00,54.3,47.6,30.05,South,186,6.0,9.0,78,0.00,,---,0.00,VWS V14.01,2013-05-03 13:11:00,
2013-05-03 09:12:00,54.2,47.5,30.06,South,176,1.0,9.0,78,0.00,,---,0.00,VWS V14.01,2013-05-03 13:12:00,
2013-05-03 09:13:00,54.2,47.5,30.06,SSE,160,0.0,9.0,78,0.00,,---,0.00,VWS V14.01,2013-05-03 13:13:00,
2013-05-03 09:14:00,54.2,47.5,30.06,SE,136,0.0,9.0,78,0.00,,---,0.00,VWS V14.01,2013-05-03 13:14:00,
2013-05-03 09:15:00,54.2,47.5,30.06,SSE,152,0.0,9.0,78,0.00,,---,0.00,VWS V14.01,2013-05-03 13:15:00,
2013-05-03 09:16:00,54.2,47.5,30.06,SSE,156,1.0,9.0,78,0.00,,---,0.00,VWS V14.01,2013-05-03 13:16:00,
2013-05-03 09:17:00,54.1,47.4,30.06,SSW,194,7.0,9.0,78,0.00,,---,0.00,VWS V14.01,2013-05-03 13:17:00,
2013-05-03 09:18:00,54.1,47.4,30.06,South,172,2.0,9.0,78,0.00,,---,0.00,VWS V14.01,2013-05-03 13:18:00,
2013-05-03 09:19:00,54.1,47.4,30.06,South,176,2.0,9.0,78,0.00,,---,0.00,VWS V14.01,2013-05-03 13:19:00,
2013-05-03 09:20:00,54.1,47.4,30.05,SSE,163,1.0,9.0,78,0.00,,---,0.00,VWS V14.01,2013-05-03 13:20:00,
2013-05-03 09:21:00,54.1,47.4,30.05,SSE,159,4.0,9.0,78,0.00,,---,0.00,VWS V14.01,2013-05-03 13:21:00,
2013-05-03 09:22:00,54.1,47.4,30.05,South,178,15.0,15.0,78,0.00,,---,0.00,VWS V14.01,2013-05-03 13:22:00,
2013-05-03 09:23:00,54.1,47.4,30.05,South,176,6.0,15.0,78,0.00,,---,0.00,VWS V14.01,2013-05-03 13:23:00,
2013-05-03 09:24:00,54.1,47.4,30.05,SSE,166,3.0,15.0,78,0.00,,---,0.00,VWS V14.01,2013-05-03 13:24:00,
2013-05-03 09:25:00,54.1,47.7,30.05,South,189,6.0,15.0,79,0.00,,---,0.00,VWS V14.01,2013-05-03 13:25:00,
2013-05-03 09:26:00,54.1,47.7,30.05,SSW,199,5.0,15.0,79,0.00,,---,0.00,VWS V14.01,2013-05-03 13:26:00,
2013-05-03 09:27:00,54.0,47.6,30.05,SSE,163,0.0,15.0,79,0.00,,---,0.00,VWS V14.01,2013-05-03 13:27:00,
2013-05-03 09:28:00,54.0,47.6,30.05,South,177,5.0,15.0,79,0.00,,---,0.00,VWS V14.01,2013-05-03 13:28:00,
2013-05-03 09:29:00,54.0,47.6,30.05,SSE,165,0.0,15.0,79,0.00,,---,0.00,VWS V14.01,2013-05-03 13:29:00,
2013-05-03 09:30:00,54.0,47.6,30.05,SSE,161,0.0,15.0,79,0.00,,---,0.00,VWS V14.01,2013-05-03 13:30:00,
2013-05-03 09:31:00,54.0,47.6,30.05,South,171,0.0,8.0,79,0.00,,---,0.00,VWS V14.01,2013-05-03 13:31:00,
2013-05-03 09:32:00,54.0,47.6,30.05,South,184,2.0,8.0,79,0.00,,---,0.00,VWS V14.01,2013-05-03 13:32:00,
2013-05-03 09:33:00,54.0,47.6,30.05,South,175,7.0,9.0,79,0.00,,---,0.00,VWS V14.01,2013-05-03 13:33:00,
2013-05-03 09:34:00,54.0,47.6,30.05,South,190,6.0,14.0,79,0.00,,---,0.00,VWS V14.01,2013-05-03 13:34:00,
2013-05-03 09:35:00,54.0,47.6,30.05,South,181,1.0,14.0,79,0.00,,---,0.00,VWS V14.01,2013-05-03 13:35:00,
2013-05-03 09:36:00,54.0,47.6,30.05,SSW,195,8.0,14.0,79,0.00,,---,0.00,VWS V14.01,2013-05-03 13:36:00,
2013-05-03 09:37:00,54.0,47.6,30.05,SE,127,1.0,14.0,79,0.00,,---,0.00,VWS V14.01,2013-05-03 13:37:00,
2013-05-03 09:38:00,54.0,47.6,30.05,South,190,0.0,14.0,79,0.00,,---,0.00,VWS V14.01,2013-05-03 13:38:00,
2013-05-03 09:39:00,54.0,47.6,30.05,South,189,2.0,14.0,79,0.00,,---,0.00,VWS V14.01,2013-05-03 13:39:00,
2013-05-03 09:40:00,54.0,47.6,30.05,SE,135,0.0,14.0,79,0.00,,---,0.00,VWS V14.01,2013-05-03 13:40:00,
2013-05-03 09:41:00,54.0,47.6,30.04,South,182,0.0,14.0,79,0.00,,---,0.00,VWS V14.01,2013-05-03 13:41:00,
2013-05-03 09:42:00,54.0,47.6,30.04,South,171,0.0,14.0,79,0.00,,---,0.00,VWS V14.01,2013-05-03 13:42:00,
2013-05-03 09:43:00,53.9,47.5,30.04,South,171,1.0,14.0,79,0.00,,---,0.00,VWS V14.01,2013-05-03 13:43:00,
2013-05-03 09:44:00,53.9,47.5,30.04,SSE,165,0.0,14.0,79,0.00,,---,0.00,VWS V14.01,2013-05-03 13:44:00,
2013-05-03 09:45:00,53.9,47.9,30.04,SSE,166,2.0,14.0,80,0.00,,---,0.00,VWS V14.01,2013-05-03 13:45:00,
2013-05-03 09:46:00,53.9,47.9,30.04,SE,141,6.0,14.0,80,0.00,,---,0.00,VWS V14.01,2013-05-03 13:46:00,
2013-05-03 09:47:00,53.9,47.5,30.04,South,188,6.0,14.0,79,0.00,,---,0.00,VWS V14.01,2013-05-03 13:47:00,
2013-05-03 09:48:00,53.9,47.9,30.04,South,184,2.0,14.0,80,0.00,,---,0.00,VWS V14.01,2013-05-03 13:48:00,
2013-05-03 09:49:00,53.9,47.9,30.04,SSE,165,5.0,14.0,80,0.00,,---,0.00,VWS V14.01,2013-05-03 13:49:00,
2013-05-03 09:50:00,53.8,47.8,30.04,SSE,165,0.0,14.0,80,0.00,,---,0.00,VWS V14.01,2013-05-03 13:50:00,
2013-05-03 09:51:00,53.8,47.5,30.04,South,189,8.0,14.0,79,0.00,,---,0.00,VWS V14.01,2013-05-03 13:51:00,
2013-05-03 09:52:00,53.8,47.5,30.04,SSE,160,0.0,14.0,79,0.00,,---,0.00,VWS V14.01,2013-05-03 13:52:00,
2013-05-03 09:53:00,53.8,47.5,30.04,South,185,4.0,14.0,79,0.00,,---,0.00,VWS V14.01,2013-05-03 13:53:00,
2013-05-03 09:54:00,53.8,47.8,30.04,SE,144,4.0,14.0,80,0.00,,---,0.00,VWS V14.01,2013-05-03 13:54:00,
2013-05-03 09:55:00,53.7,47.7,30.04,South,180,0.0,14.0,80,0.00,,---,0.00,VWS V14.01,2013-05-03 13:55:00,
2013-05-03 09:56:00,53.7,47.7,30.04,South,169,2.0,14.0,80,0.00,,---,0.00,VWS V14.01,2013-05-03 13:56:00,
2013-05-03 09:57:00,53.7,47.7,30.03,SSE,165,0.0,14.0,80,0.00,,---,0.00,VWS V14.01,2013-05-03 13:57:00,
2013-05-03 09:58:00,53.7,47.7,30.03,South,173,4.0,14.0,80,0.00,,---,0.00,VWS V14.01,2013-05-03 13:58:00,
2013-05-03 09:59:00,53.7,47.7,30.03,SE,146,6.0,14.0,80,0.00,,---,0.00,VWS V14.01,2013-05-03 13:59:00,
2013-05-03 10:00:00,53.7,47.7,30.03,South,171,0.0,0.0,80,0.00,,---,0.00,VWS V14.01,2013-05-03 14:00:00,
2013-05-03 10:01:00,53.7,47.7,30.03,SSE,167,0.0,7.0,80,0.00,,---,0.00,VWS V14.01,2013-05-03 14:01:00,
2013-05-03 10:02:00,53.7,47.7,30.03,SSE,149,4.0,7.0,80,0.00,,---,0.00,VWS V14.01,2013-05-03 14:02:00,
2013-05-03 10:03:00,53.6,47.6,30.03,South,186,0.0,7.0,80,0.00,,---,0.00,VWS V14.01,2013-05-03 14:03:00,
2013-05-03 10:04:00,53.6,47.6,30.03,SSE,158,0.0,7.0,80,0.00,,---,0.00,VWS V14.01,2013-05-03 14:04:00,
2013-05-03 10:05:00,53.6,47.6,30.03,South,182,2.0,7.0,80,0.00,,---,0.00,VWS V14.01,2013-05-03 14:05:00,
2013-05-03 10:06:00,53.6,47.6,30.03,South,173,3.0,7.0,80,0.00,,---,0.00,VWS V14.01,2013-05-03 14:06:00,
2013-05-03 10:07:00,53.5,47.5,30.03,South,187,7.0,9.0,80,0.00,,---,0.00,VWS V14.01,2013-05-03 14:07:00,
2013-05-03 10:08:00,53.5,47.8,30.03,SSE,162,0.0,12.0,81,0.00,,---,0.00,VWS V14.01,2013-05-03 14:08:00,
2013-05-03 10:09:00,53.5,47.8,30.03,South,171,3.0,12.0,81,0.00,,---,0.00,VWS V14.01,2013-05-03 14:09:00,
2013-05-03 10:10:00,53.5,47.8,30.03,SSW,207,7.0,15.0,81,0.00,,---,0.00,VWS V14.01,2013-05-03 14:10:00,
2013-05-03 10:11:00,53.5,47.8,30.03,South,174,0.0,15.0,81,0.00,,---,0.00,VWS V14.01,2013-05-03 14:11:00,
2013-05-03 10:12:00,53.5,47.8,30.03,SSE,168,0.0,15.0,81,0.00,,---,0.00,VWS V14.01,2013-05-03 14:12:00,
2013-05-03 10:13:00,53.5,47.8,30.03,South,172,2.0,15.0,81,0.00,,---,0.00,VWS V14.01,2013-05-03 14:13:00,
2013-05-03 10:14:00,53.5,47.8,30.03,South,189,0.0,15.0,81,0.00,,---,0.00,VWS V14.01,2013-05-03 14:14:00,
2013-05-03 10:15:00,53.5,47.8,30.03,SSW,196,2.0,15.0,81,0.00,,---,0.00,VWS V14.01,2013-05-03 14:15:00,
2013-05-03 10:16:00,53.5,47.8,30.03,South,169,6.0,15.0,81,0.00,,---,0.00,VWS V14.01,2013-05-03 14:16:00,
2013-05-03 10:17:00,53.5,47.8,30.03,SW,221,6.0,16.0,81,0.00,,---,0.00,VWS V14.01,2013-05-03 14:17:00,
2013-05-03 10:18:00,53.5,47.8,30.03,SE,138,3.0,16.0,81,0.00,,---,0.00,VWS V14.01,2013-05-03 14:18:00,
2013-05-03 10:19:00,53.5,47.8,30.03,South,174,9.0,16.0,81,0.00,,---,0.00,VWS V14.01,2013-05-03 14:19:00,
2013-05-03 10:20:00,53.4,47.7,30.03,SSE,167,1.0,16.0,81,0.00,,---,0.00,VWS V14.01,2013-05-03 14:20:00,
2013-05-03 10:21:00,53.4,47.7,30.03,SE,130,5.0,16.0,81,0.00,,---,0.00,VWS V14.01,2013-05-03 14:21:00,
2013-05-03 10:22:00,53.4,47.7,30.03,South,171,7.0,16.0,81,0.00,,---,0.00,VWS V14.01,2013-05-03 14:22:00,
2013-05-03 10:23:00,53.4,47.7,30.03,SSE,154,0.0,16.0,81,0.00,,---,0.00,VWS V14.01,2013-05-03 14:23:00,
2013-05-03 10:24:00,53.4,47.7,30.03,SSE,168,2.0,16.0,81,0.00,,---,0.00,VWS V14.01,2013-05-03 14:24:00,
2013-05-03 10:25:00,53.4,47.7,30.03,South,183,4.0,16.0,81,0.00,,---,0.00,VWS V14.01,2013-05-03 14:25:00,
2013-05-03 10:26:00,53.4,47.7,30.03,South,184,3.0,16.0,81,0.00,,---,0.00,VWS V14.01,2013-05-03 14:26:00,
2013-05-03 10:27:00,53.4,47.7,30.03,SSE,164,1.0,16.0,81,0.00,,---,0.00,VWS V14.01,2013-05-03 14:27:00,
2013-05-03 10:28:00,53.4,47.7,30.03,South,190,0.0,16.0,81,0.00,,---,0.00,VWS V14.01,2013-05-03 14:28:00,
2013-05-03 10:29:00,53.4,48.0,30.03,SSE,154,0.0,16.0,82,0.00,,---,0.00,VWS V14.01,2013-05-03 14:29:00,
2013-05-03 10:30:00,53.4,48.0,30.03,SE,140,0.0,16.0,82,0.00,,---,0.00,VWS V14.01,2013-05-03 14:30:00,
2013-05-03 10:31:00,53.4,48.0,30.03,SSE,166,0.0,4.0,82,0.00,,---,0.00,VWS V14.01,2013-05-03 14:31:00,
2013-05-03 10:32:00,53.4,48.0,30.03,South,171,3.0,10.0,82,0.00,,---,0.00,VWS V14.01,2013-05-03 14:32:00,
2013-05-03 10:33:00,53.4,48.0,30.03,SSE,162,0.0,10.0,82,0.00,,---,0.00,VWS V14.01,2013-05-03 14:33:00,
2013-05-03 10:34:00,53.4,48.0,30.03,SSE,162,0.0,10.0,82,0.00,,---,0.00,VWS V14.01,2013-05-03 14:34:00,
2013-05-03 10:35:00,53.4,48.0,30.03,SSE,157,7.0,10.0,82,0.00,,---,0.00,VWS V14.01,2013-05-03 14:35:00,
2013-05-03 10:36:00,53.4,48.0,30.03,SSW,192,7.0,13.0,82,0.00,,---,0.00,VWS V14.01,2013-05-03 14:36:00,
2013-05-03 10:37:00,53.4,48.0,30.03,SSE,167,0.0,13.0,82,0.00,,---,0.00,VWS V14.01,2013-05-03 14:37:00,
2013-05-03 10:38:00,53.4,48.0,30.03,SE,131,3.0,13.0,82,0.00,,---,0.00,VWS V14.01,2013-05-03 14:38:00,
2013-05-03 10:39:00,53.4,48.0,30.03,SSW,194,9.0,13.0,82,0.00,,---,0.00,VWS V14.01,2013-05-03 14:39:00,
2013-05-03 10:40:00,53.4,48.0,30.03,South,180,0.0,13.0,82,0.00,,---,0.00,VWS V14.01,2013-05-03 14:40:00,
2013-05-03 10:41:00,53.3,48.0,30.03,SSE,161,1.0,13.0,82,0.00,,---,0.00,VWS V14.01,2013-05-03 14:41:00,
2013-05-03 10:42:00,53.3,48.0,30.03,South,172,3.0,13.0,82,0.00,,---,0.00,VWS V14.01,2013-05-03 14:42:00,
2013-05-03 10:43:00,53.3,48.0,30.03,ESE,118,4.0,13.0,82,0.00,,---,0.00,VWS V14.01,2013-05-03 14:43:00,
2013-05-03 10:44:00,53.3,48.0,30.03,SE,134,0.0,13.0,82,0.00,,---,0.00,VWS V14.01,2013-05-03 14:44:00,
2013-05-03 10:45:00,53.3,48.0,30.03,South,183,6.0,13.0,82,0.00,,---,0.00,VWS V14.01,2013-05-03 14:45:00,
2013-05-03 10:46:00,53.3,48.0,30.03,SSE,161,0.0,13.0,82,0.00,,---,0.00,VWS V14.01,2013-05-03 14:46:00,
2013-05-03 10:47:00,53.3,48.0,30.03,South,188,5.0,13.0,82,0.00,,---,0.00,VWS V14.01,2013-05-03 14:47:00,
2013-05-03 10:48:00,53.3,48.3,30.03,South,173,4.0,13.0,83,0.00,,---,0.00,VWS V14.01,2013-05-03 14:48:00,
2013-05-03 10:49:00,53.3,48.3,30.03,SE,128,0.0,13.0,83,0.00,,---,0.00,VWS V14.01,2013-05-03 14:49:00,
2013-05-03 10:50:00,53.3,48.3,30.03,South,175,7.0,13.0,83,0.00,,---,0.00,VWS V14.01,2013-05-03 14:50:00,
2013-05-03 10:51:00,53.3,48.0,30.03,SSE,165,5.0,13.0,82,0.00,,---,0.00,VWS V14.01,2013-05-03 14:51:00,
2013-05-03 10:52:00,53.3,48.3,30.03,South,175,5.0,13.0,83,0.00,,---,0.00,VWS V14.01,2013-05-03 14:52:00,
2013-05-03 10:53:00,53.3,48.3,30.03,SE,146,6.0,13.0,83,0.00,,---,0.00,VWS V14.01,2013-05-03 14:53:00,
2013-05-03 10:54:00,53.3,48.3,30.03,South,185,3.0,13.0,83,0.00,,---,0.00,VWS V14.01,2013-05-03 14:54:00,
2013-05-03 10:55:00,53.3,48.3,30.03,South,180,0.0,13.0,83,0.00,,---,0.00,VWS V14.01,2013-05-03 14:55:00,
2013-05-03 10:56:00,53.3,48.3,30.03,South,169,0.0,13.0,83,0.00,,---,0.00,VWS V14.01,2013-05-03 14:56:00,
2013-05-03 10:57:00,53.3,48.3,30.03,South,186,5.0,13.0,83,0.00,,---,0.00,VWS V14.01,2013-05-03 14:57:00,
2013-05-03 10:58:00,53.3,48.3,30.03,SW,221,2.0,13.0,83,0.00,,---,0.00,VWS V14.01,2013-05-03 14:58:00,
2013-05-03 10:59:00,53.3,48.3,30.03,South,180,0.0,13.0,83,0.00,,---,0.00,VWS V14.01,2013-05-03 14:59:00,
2013-05-03 11:00:00,53.3,48.3,30.03,South,186,7.0,13.0,83,0.00,,---,0.00,VWS V14.01,2013-05-03 15:00:00,
2013-05-03 11:01:00,53.3,48.3,30.03,SSE,166,2.0,8.0,83,0.00,,---,0.00,VWS V14.01,2013-05-03 15:01:00,
2013-05-03 11:02:00,53.3,48.3,30.03,SSE,166,1.0,8.0,83,0.00,,---,0.00,VWS V14.01,2013-05-03 15:02:00,
2013-05-03 11:03:00,53.3,48.3,30.03,South,175,6.0,8.0,83,0.00,,---,0.00,VWS V14.01,2013-05-03 15:03:00,
2013-05-03 11:04:00,53.3,48.3,30.03,SSE,157,0.0,11.0,83,0.00,,---,0.00,VWS V14.01,2013-05-03 15:04:00,
2013-05-03 11:05:00,53.3,48.3,30.03,SSE,165,0.0,11.0,83,0.00,,---,0.00,VWS V14.01,2013-05-03 15:05:00,
2013-05-03 11:06:00,53.3,48.3,30.03,South,188,4.0,11.0,83,0.00,,---,0.00,VWS V14.01,2013-05-03 15:06:00,
2013-05-03 11:07:00,53.3,48.3,30.03,South,190,6.0,11.0,83,0.00,,---,0.00,VWS V14.01,2013-05-03 15:07:00,
2013-05-03 11:08:00,53.3,48.3,30.03,SSE,148,4.0,11.0,83,0.00,,---,0.00,VWS V14.01,2013-05-03 15:08:00,
2013-05-03 11:09:00,53.3,48.3,30.03,SSE,159,0.0,11.0,83,0.00,,---,0.00,VWS V14.01,2013-05-03 15:09:00,
2013-05-03 11:10:00,53.3,48.3,30.03,SSE,152,5.0,11.0,83,0.00,,---,0.00,VWS V14.01,2013-05-03 15:10:00,
2013-05-03 11:11:00,53.4,48.4,30.03,SSW,198,5.0,11.0,83,0.00,,---,0.00,VWS V14.01,2013-05-03 15:11:00,
2013-05-03 11:12:00,53.4,48.4,30.03,SE,138,0.0,11.0,83,0.00,,---,0.00,VWS V14.01,2013-05-03 15:12:00,
2013-05-03 11:13:00,53.4,48.4,30.03,SSE,149,4.0,11.0,83,0.00,,---,0.00,VWS V14.01,2013-05-03 15:13:00,
2013-05-03 11:14:00,53.4,48.4,30.03,SSW,211,6.0,11.0,83,0.00,,---,0.00,VWS V14.01,2013-05-03 15:14:00,
2013-05-03 11:15:00,53.4,48.4,30.03,South,170,4.0,12.0,83,0.00,,---,0.00,VWS V14.01,2013-05-03 15:15:00,
2013-05-03 11:16:00,53.4,48.4,30.03,SSW,192,6.0,12.0,83,0.00,,---,0.00,VWS V14.01,2013-05-03 15:16:00,
2013-05-03 11:17:00,53.5,48.5,30.03,South,177,3.0,12.0,83,0.00,,---,0.00,VWS V14.01,2013-05-03 15:17:00,
2013-05-03 11:18:00,53.5,48.5,30.03,SE,142,9.0,17.0,83,0.00,,---,0.00,VWS V14.01,2013-05-03 15:18:00,
2013-05-03 11:19:00,53.5,48.5,30.03,SSE,165,0.0,17.0,83,0.00,,---,0.00,VWS V14.01,2013-05-03 15:19:00,
2013-05-03 11:20:00,53.5,48.5,30.03,SE,134,0.0,17.0,83,0.00,,---,0.00,VWS V14.01,2013-05-03 15:20:00,
2013-05-03 11:21:00,53.5,48.5,30.03,South,186,0.0,17.0,83,0.00,,---,0.00,VWS V14.01,2013-05-03 15:21:00,
2013-05-03 11:22:00,53.5,48.5,30.03,SE,125,0.0,17.0,83,0.00,,---,0.00,VWS V14.01,2013-05-03 15:22:00,
2013-05-03 11:23:00,53.5,48.5,30.03,South,169,3.0,17.0,83,0.00,,---,0.00,VWS V14.01,2013-05-03 15:23:00,
2013-05-03 11:24:00,53.5,48.5,30.03,South,172,0.0,17.0,83,0.00,,---,0.00,VWS V14.01,2013-05-03 15:24:00,
2013-05-03 11:25:00,53.5,48.5,30.03,SSE,159,0.0,17.0,83,0.00,,---,0.00,VWS V14.01,2013-05-03 15:25:00,
2013-05-03 11:26:00,53.5,48.5,30.03,South,174,0.0,17.0,83,0.00,,---,0.00,VWS V14.01,2013-05-03 15:26:00,
2013-05-03 11:27:00,53.5,48.5,30.03,South,174,0.0,17.0,83,0.00,,---,0.00,VWS V14.01,2013-05-03 15:27:00,
2013-05-03 11:28:00,53.5,48.5,30.03,South,171,0.0,17.0,83,0.00,,---,0.00,VWS V14.01,2013-05-03 15:28:00,
2013-05-03 11:29:00,53.5,48.5,30.03,South,174,7.0,17.0,83,0.00,,---,0.00,VWS V14.01,2013-05-03 15:29:00,
2013-05-03 11:30:00,53.5,48.8,30.03,SSE,155,0.0,17.0,84,0.00,,---,0.00,VWS V14.01,2013-05-03 15:30:00,
2013-05-03 11:31:00,53.5,48.8,30.03,South,191,0.0,3.0,84,0.00,,---,0.00,VWS V14.01,2013-05-03 15:31:00,
2013-05-03 11:32:00,53.6,48.9,30.03,SSE,157,0.0,5.0,84,0.00,,---,0.00,VWS V14.01,2013-05-03 15:32:00,
2013-05-03 11:33:00,53.6,48.9,30.03,SSE,147,2.0,6.0,84,0.00,,---,0.00,VWS V14.01,2013-05-03 15:33:00,
2013-05-03 11:34:00,53.6,48.9,30.03,South,181,4.0,6.0,84,0.00,,---,0.00,VWS V14.01,2013-05-03 15:34:00,
2013-05-03 11:35:00,53.6,48.6,30.03,SSE,167,0.0,6.0,83,0.00,,---,0.00,VWS V14.01,2013-05-03 15:35:00,
2013-05-03 11:36:00,53.7,49.0,30.03,SSE,161,0.0,6.0,84,0.00,,---,0.00,VWS V14.01,2013-05-03 15:36:00,
2013-05-03 11:37:00,53.7,49.0,30.03,SSE,166,1.0,6.0,84,0.00,,---,0.00,VWS V14.01,2013-05-03 15:37:00,
2013-05-03 11:38:00,53.7,49.0,30.03,South,181,0.0,7.0,84,0.00,,---,0.00,VWS V14.01,2013-05-03 15:38:00,
2013-05-03 11:39:00,53.7,49.0,30.03,SSE,151,0.0,12.0,84,0.00,,---,0.00,VWS V14.01,2013-05-03 15:39:00,
2013-05-03 11:40:00,53.7,49.0,30.03,South,190,2.0,12.0,84,0.00,,---,0.00,VWS V14.01,2013-05-03 15:40:00,
2013-05-03 11:41:00,53.8,49.1,30.03,SSE,164,5.0,12.0,84,0.00,,---,0.00,VWS V14.01,2013-05-03 15:41:00,
2013-05-03 11:42:00,53.8,48.8,30.03,SSE,161,5.0,12.0,83,0.00,,---,0.00,VWS V14.01,2013-05-03 15:42:00,
2013-05-03 11:43:00,53.8,48.8,30.03,South,184,7.0,12.0,83,0.00,,---,0.00,VWS V14.01,2013-05-03 15:43:00,
2013-05-03 11:44:00,53.9,48.9,30.03,South,180,0.0,12.0,83,0.00,,---,0.00,VWS V14.01,2013-05-03 15:44:00,
2013-05-03 11:45:00,53.9,48.9,30.03,ESE,115,0.0,12.0,83,0.00,,---,0.00,VWS V14.01,2013-05-03 15:45:00,
2013-05-03 11:46:00,53.9,48.9,30.03,SSE,157,3.0,12.0,83,0.00,,---,0.00,VWS V14.01,2013-05-03 15:46:00,
2013-05-03 11:47:00,53.9,48.9,30.03,SSE,167,1.0,12.0,83,0.00,,---,0.00,VWS V14.01,2013-05-03 15:47:00,
2013-05-03 11:48:00,53.9,48.9,30.03,SSE,166,0.0,12.0,83,0.00,,---,0.00,VWS V14.01,2013-05-03 15:48:00,
2013-05-03 11:49:00,53.9,48.9,30.03,SSE,163,3.0,12.0,83,0.00,,---,0.00,VWS V14.01,2013-05-03 15:49:00,
2013-05-03 11:50:00,53.9,48.9,30.03,South,170,0.0,12.0,83,0.00,,---,0.00,VWS V14.01,2013-05-03 15:50:00,
2013-05-03 11:51:00,54.0,49.0,30.03,South,170,3.0,12.0,83,0.00,,---,0.00,VWS V14.01,2013-05-03 15:51:00,
2013-05-03 11:52:00,54.0,49.0,30.03,South,180,4.0,12.0,83,0.00,,---,0.00,VWS V14.01,2013-05-03 15:52:00,
2013-05-03 11:53:00,54.0,49.0,30.03,SSE,163,1.0,12.0,83,0.00,,---,0.00,VWS V14.01,2013-05-03 15:53:00,
2013-05-03 11:54:00,54.0,49.0,30.03,South,171,3.0,12.0,83,0.00,,---,0.00,VWS V14.01,2013-05-03 15:54:00,
2013-05-03 11:55:00,54.0,49.0,30.03,South,175,1.0,12.0,83,0.00,,---,0.00,VWS V14.01,2013-05-03 15:55:00,
2013-05-03 11:56:00,54.0,49.0,30.03,SSW,193,4.0,12.0,83,0.00,,---,0.00,VWS V14.01,2013-05-03 15:56:00,
2013-05-03 11:57:00,54.1,49.1,30.03,SSE,161,4.0,12.0,83,0.00,,---,0.00,VWS V14.01,2013-05-03 15:57:00,
2013-05-03 11:58:00,54.1,49.1,30.03,South,175,0.0,12.0,83,0.00,,---,0.00,VWS V14.01,2013-05-03 15:58:00,
2013-05-03 11:59:00,54.1,49.1,30.03,South,170,4.0,12.0,83,0.00,,---,0.00,VWS V14.01,2013-05-03 15:59:00,
2013-05-03 12:00:00,54.1,49.1,30.03,SSE,168,1.0,12.0,83,0.00,,---,0.00,VWS V14.01,2013-05-03 16:00:00,
2013-05-03 12:01:00,54.1,49.1,30.03,SSE,165,5.0,5.0,83,0.00,,---,0.00,VWS V14.01,2013-05-03 16:01:00,
2013-05-03 12:02:00,54.1,49.1,30.03,South,169,4.0,11.0,83,0.00,,---,0.00,VWS V14.01,2013-05-03 16:02:00,
2013-05-03 12:03:00,54.1,49.1,30.03,SSE,161,7.0,11.0,83,0.00,,---,0.00,VWS V14.01,2013-05-03 16:03:00,
2013-05-03 12:04:00,54.1,49.1,30.03,South,171,0.0,11.0,83,0.00,,---,0.00,VWS V14.01,2013-05-03 16:04:00,
2013-05-03 12:05:00,54.1,49.1,30.03,South,173,0.0,11.0,83,0.00,,---,0.00,VWS V14.01,2013-05-03 16:05:00,
2013-05-03 12:06:00,54.1,49.1,30.03,SSE,154,5.0,11.0,83,0.00,,---,0.00,VWS V14.01,2013-05-03 16:06:00,
2013-05-03 12:07:00,54.1,49.1,30.03,South,190,0.0,11.0,83,0.00,,---,0.00,VWS V14.01,2013-05-03 16:07:00,
2013-05-03 12:08:00,54.1,49.1,30.03,SSE,156,0.0,11.0,83,0.00,,---,0.00,VWS V14.01,2013-05-03 16:08:00,
2013-05-03 12:09:00,54.1,49.1,30.03,WSW,242,0.0,11.0,83,0.00,,---,0.00,VWS V14.01,2013-05-03 16:09:00,
2013-05-03 12:10:00,54.1,49.1,30.03,SSW,209,3.0,11.0,83,0.00,,---,0.00,VWS V14.01,2013-05-03 16:10:00,
2013-05-03 12:11:00,54.0,49.0,30.03,South,183,6.0,11.0,83,0.00,,---,0.00,VWS V14.01,2013-05-03 16:11:00,
2013-05-03 12:12:00,54.0,49.0,30.03,SW,215,4.0,11.0,83,0.00,,---,0.00,VWS V14.01,2013-05-03 16:12:00,
2013-05-03 12:13:00,54.0,49.0,30.03,SSW,195,7.0,11.0,83,0.00,,---,0.00,VWS V14.01,2013-05-03 16:13:00,
2013-05-03 12:14:00,54.0,49.0,30.03,South,171,4.0,11.0,83,0.00,,---,0.00,VWS V14.01,2013-05-03 16:14:00,
2013-05-03 12:15:00,54.0,49.0,30.03,SSE,167,4.0,12.0,83,0.00,,---,0.00,VWS V14.01,2013-05-03 16:15:00,
2013-05-03 12:16:00,54.0,49.0,30.03,SE,144,0.0,12.0,83,0.00,,---,0.00,VWS V14.01,2013-05-03 16:16:00,
2013-05-03 12:17:00,53.9,48.9,30.03,SSW,197,0.0,12.0,83,0.00,,---,0.00,VWS V14.01,2013-05-03 16:17:00,
2013-05-03 12:18:00,53.9,48.9,30.03,SSE,165,0.0,12.0,83,0.00,,---,0.00,VWS V14.01,2013-05-03 16:18:00,
2013-05-03 12:19:00,54.0,49.0,30.04,SE,146,4.0,12.0,83,0.00,,---,0.00,VWS V14.01,2013-05-03 16:19:00,
2013-05-03 12:20:00,53.9,48.9,30.03,South,182,7.0,14.0,83,0.00,,---,0.00,VWS V14.01,2013-05-03 16:20:00,
2013-05-03 12:21:00,53.9,48.9,30.03,SSE,167,0.0,14.0,83,0.00,,---,0.00,VWS V14.01,2013-05-03 16:21:00,
2013-05-03 12:22:00,53.9,48.9,30.03,South,173,3.0,14.0,83,0.00,,---,0.00,VWS V14.01,2013-05-03 16:22:00,
2013-05-03 12:23:00,53.9,48.9,30.03,South,180,2.0,14.0,83,0.00,,---,0.00,VWS V14.01,2013-05-03 16:23:00,
2013-05-03 12:24:00,53.9,48.9,30.03,SSW,192,6.0,14.0,83,0.00,,---,0.00,VWS V14.01,2013-05-03 16:24:00,
2013-05-03 12:25:00,53.9,48.9,30.03,SSW,192,9.0,14.0,83,0.00,,---,0.00,VWS V14.01,2013-05-03 16:25:00,
2013-05-03 12:26:00,53.9,48.9,30.04,SSW,192,3.0,14.0,83,0.00,,---,0.00,VWS V14.01,2013-05-03 16:26:00,
2013-05-03 12:27:00,53.9,48.9,30.04,SSE,162,0.0,14.0,83,0.00,,---,0.00,VWS V14.01,2013-05-03 16:27:00,
2013-05-03 12:28:00,53.9,48.9,30.04,South,184,7.0,14.0,83,0.00,,---,0.00,VWS V14.01,2013-05-03 16:28:00,
2013-05-03 12:29:00,53.9,48.9,30.04,SSE,162,5.0,14.0,83,0.00,,---,0.00,VWS V14.01,2013-05-03 16:29:00,
2013-05-03 12:30:00,53.9,48.9,30.04,SSE,148,4.0,14.0,83,0.00,,---,0.00,VWS V14.01,2013-05-03 16:30:00,
2013-05-03 12:31:00,53.9,48.9,30.04,SSE,167,1.0,4.0,83,0.00,,---,0.00,VWS V14.01,2013-05-03 16:31:00,
2013-05-03 12:32:00,53.9,49.2,30.04,South,180,5.0,11.0,84,0.00,,---,0.00,VWS V14.01,2013-05-03 16:32:00,
2013-05-03 12:33:00,53.9,49.2,30.04,South,175,0.0,11.0,84,0.00,,---,0.00,VWS V14.01,2013-05-03 16:33:00,
2013-05-03 12:34:00,53.9,49.2,30.04,South,175,0.0,11.0,84,0.00,,---,0.00,VWS V14.01,2013-05-03 16:34:00,
2013-05-03 12:35:00,53.9,49.2,30.04,South,175,0.0,11.0,84,0.00,,---,0.00,VWS V14.01,2013-05-03 16:35:00,
2013-05-03 12:36:00,53.9,49.2,30.04,South,175,0.0,11.0,84,0.00,,---,0.00,VWS V14.01,2013-05-03 16:36:00,
2013-05-03 12:37:00,53.9,49.2,30.04,South,175,0.0,11.0,84,0.00,,---,0.00,VWS V14.01,2013-05-03 16:37:00,
2013-05-03 12:38:00,53.9,49.2,30.04,South,175,0.0,11.0,84,0.00,,---,0.00,VWS V14.01,2013-05-03 16:38:00,
2013-05-03 12:39:00,53.7,49.0,30.04,South,191,7.0,11.0,84,0.00,,---,0.00,VWS V14.01,2013-05-03 16:39:00,
2013-05-03 12:40:00,53.7,49.0,30.04,South,180,3.0,11.0,84,0.00,,---,0.00,VWS V14.01,2013-05-03 16:40:00,
2013-05-03 12:41:00,53.7,49.0,30.04,South,180,4.0,11.0,84,0.00,,---,0.00,VWS V14.01,2013-05-03 16:41:00,
2013-05-03 12:42:00,53.7,49.0,30.04,South,175,4.0,11.0,84,0.00,,---,0.00,VWS V14.01,2013-05-03 16:42:00,
2013-05-03 12:43:00,53.7,49.0,30.04,South,190,0.0,11.0,84,0.00,,---,0.00,VWS V14.01,2013-05-03 16:43:00,
2013-05-03 12:44:00,53.7,49.0,30.04,South,178,6.0,11.0,84,0.00,,---,0.00,VWS V14.01,2013-05-03 16:44:00,
2013-05-03 12:45:00,53.7,49.0,30.04,South,175,2.0,11.0,84,0.00,,---,0.00,VWS V14.01,2013-05-03 16:45:00,
2013-05-03 12:46:00,53.7,49.0,30.04,South,175,3.0,11.0,84,0.00,,---,0.00,VWS V14.01,2013-05-03 16:46:00,
2013-05-03 12:47:00,53.7,49.0,30.04,South,180,7.0,11.0,84,0.00,,---,0.00,VWS V14.01,2013-05-03 16:47:00,
2013-05-03 12:48:00,53.7,49.0,30.04,SSE,167,2.0,11.0,84,0.00,,---,0.00,VWS V14.01,2013-05-03 16:48:00,
2013-05-03 12:49:00,53.7,49.0,30.04,South,175,1.0,11.0,84,0.00,,---,0.00,VWS V14.01,2013-05-03 16:49:00,
2013-05-03 12:50:00,53.7,49.0,30.04,SSE,158,4.0,11.0,84,0.00,,---,0.00,VWS V14.01,2013-05-03 16:50:00,
2013-05-03 12:51:00,53.7,49.0,30.04,SSE,152,0.0,11.0,84,0.00,,---,0.00,VWS V14.01,2013-05-03 16:51:00,
2013-05-03 12:52:00,53.7,49.0,30.04,SSE,152,0.0,11.0,84,0.00,,---,0.00,VWS V14.01,2013-05-03 16:52:00,
2013-05-03 12:53:00,53.7,49.0,30.04,South,172,8.0,11.0,84,0.00,,---,0.00,VWS V14.01,2013-05-03 16:53:00,
2013-05-03 12:54:00,53.7,49.0,30.04,South,173,0.0,11.0,84,0.00,,---,0.00,VWS V14.01,2013-05-03 16:54:00,
2013-05-03 12:55:00,53.7,49.0,30.04,South,180,0.0,11.0,84,0.00,,---,0.00,VWS V14.01,2013-05-03 16:55:00,
2013-05-03 12:56:00,53.7,49.0,30.05,South,180,0.0,11.0,84,0.00,,---,0.00,VWS V14.01,2013-05-03 16:56:00,
2013-05-03 12:57:00,53.7,49.0,30.04,South,175,2.0,11.0,84,0.00,,---,0.00,VWS V14.01,2013-05-03 16:57:00,
2013-05-03 12:58:00,53.7,49.0,30.04,SSE,153,2.0,11.0,84,0.00,,---,0.00,VWS V14.01,2013-05-03 16:58:00,
2013-05-03 12:59:00,53.7,49.0,30.04,South,179,0.0,11.0,84,0.00,,---,0.00,VWS V14.01,2013-05-03 16:59:00,
2013-05-03 13:00:00,53.7,49.0,30.04,South,185,5.0,11.0,84,0.00,,---,0.00,VWS V14.01,2013-05-03 17:00:00,
2013-05-03 13:01:00,53.6,48.9,30.04,SSE,165,1.0,11.0,84,0.00,,---,0.00,VWS V14.01,2013-05-03 17:01:00,
2013-05-03 13:02:00,53.6,48.9,30.04,South,171,4.0,11.0,84,0.00,,---,0.00,VWS V14.01,2013-05-03 17:02:00,
2013-05-03 13:03:00,53.7,49.0,30.05,SE,144,4.0,11.0,84,0.00,,---,0.00,VWS V14.01,2013-05-03 17:03:00,
2013-05-03 13:04:00,53.6,48.9,30.05,East,85,0.0,11.0,84,0.00,,---,0.00,VWS V14.01,2013-05-03 17:04:00,
2013-05-03 13:05:00,53.7,49.0,30.05,South,178,1.0,11.0,84,0.00,,---,0.00,VWS V14.01,2013-05-03 17:05:00,
2013-05-03 13:06:00,53.7,49.0,30.05,SSE,155,0.0,11.0,84,0.00,,---,0.00,VWS V14.01,2013-05-03 17:06:00,
2013-05-03 13:07:00,53.7,49.0,30.05,South,190,12.0,12.0,84,0.00,,---,0.00,VWS V14.01,2013-05-03 17:07:00,
2013-05-03 13:08:00,53.6,48.9,30.05,SSE,165,2.0,12.0,84,0.00,,---,0.00,VWS V14.01,2013-05-03 17:08:00,
2013-05-03 13:09:00,53.6,48.9,30.05,South,173,5.0,12.0,84,0.00,,---,0.00,VWS V14.01,2013-05-03 17:09:00,
2013-05-03 13:10:00,53.6,48.9,30.05,South,174,2.0,12.0,84,0.00,,---,0.00,VWS V14.01,2013-05-03 17:10:00,
2013-05-03 13:11:00,53.6,48.9,30.05,South,173,1.0,12.0,84,0.00,,---,0.00,VWS V14.01,2013-05-03 17:11:00,
2013-05-03 13:12:00,53.6,48.9,30.05,South,176,1.0,12.0,84,0.00,,---,0.00,VWS V14.01,2013-05-03 17:12:00,
2013-05-03 13:13:00,53.6,48.9,30.05,South,177,0.0,12.0,84,0.00,,---,0.00,VWS V14.01,2013-05-03 17:13:00,
2013-05-03 13:14:00,53.6,48.9,30.05,South,174,0.0,12.0,84,0.00,,---,0.00,VWS V14.01,2013-05-03 17:14:00,
2013-05-03 13:15:00,53.6,48.9,30.05,South,189,0.0,12.0,84,0.00,,---,0.00,VWS V14.01,2013-05-03 17:15:00,
2013-05-03 13:16:00,53.6,48.9,30.05,SSW,194,7.0,12.0,84,0.00,,---,0.00,VWS V14.01,2013-05-03 17:16:00,
2013-05-03 13:17:00,53.6,48.9,30.05,South,180,4.0,12.0,84,0.00,,---,0.00,VWS V14.01,2013-05-03 17:17:00,
2013-05-03 13:18:00,53.6,48.9,30.05,SE,145,5.0,12.0,84,0.00,,---,0.00,VWS V14.01,2013-05-03 17:18:00,
2013-05-03 13:19:00,53.6,49.2,30.05,South,178,1.0,12.0,85,0.00,,---,0.00,VWS V14.01,2013-05-03 17:19:00,
2013-05-03 13:20:00,53.6,49.2,30.05,South,191,6.0,12.0,85,0.00,,---,0.00,VWS V14.01,2013-05-03 17:20:00,
2013-05-03 13:21:00,53.6,48.9,30.05,South,179,0.0,13.0,84,0.00,,---,0.00,VWS V14.01,2013-05-03 17:21:00,
2013-05-03 13:22:00,53.6,49.2,30.05,South,176,10.0,13.0,85,0.00,,---,0.00,VWS V14.01,2013-05-03 17:22:00,
2013-05-03 13:23:00,53.5,49.1,30.05,South,178,6.0,13.0,85,0.00,,---,0.00,VWS V14.01,2013-05-03 17:23:00,
2013-05-03 13:24:00,53.6,49.2,30.05,SSE,168,6.0,13.0,85,0.00,,---,0.00,VWS V14.01,2013-05-03 17:24:00,
2013-05-03 13:25:00,53.6,49.2,30.05,South,179,1.0,13.0,85,0.00,,---,0.00,VWS V14.01,2013-05-03 17:25:00,
2013-05-03 13:26:00,53.5,49.1,30.05,South,183,4.0,13.0,85,0.00,,---,0.00,VWS V14.01,2013-05-03 17:26:00,
2013-05-03 13:27:00,53.5,49.1,30.05,SSE,148,4.0,13.0,85,0.00,,---,0.00,VWS V14.01,2013-05-03 17:27:00,
2013-05-03 13:28:00,53.5,49.1,30.05,South,169,1.0,13.0,85,0.00,,---,0.00,VWS V14.01,2013-05-03 17:28:00,
2013-05-03 13:29:00,53.5,49.1,30.05,SSE,168,0.0,13.0,85,0.00,,---,0.00,VWS V14.01,2013-05-03 17:29:00,
2013-05-03 13:30:00,53.5,49.1,30.05,South,190,9.0,13.0,85,0.00,,---,0.00,VWS V14.01,2013-05-03 17:30:00,
2013-05-03 13:31:00,53.5,49.1,30.05,SE,141,3.0,9.0,85,0.00,,---,0.00,VWS V14.01,2013-05-03 17:31:00,
2013-05-03 13:32:00,53.5,49.1,30.05,South,190,7.0,9.0,85,0.00,,---,0.00,VWS V14.01,2013-05-03 17:32:00,
2013-05-03 13:33:00,53.5,49.1,30.05,SSW,197,0.0,9.0,85,0.00,,---,0.00,VWS V14.01,2013-05-03 17:33:00,
2013-05-03 13:34:00,53.5,49.1,30.05,South,178,0.0,9.0,85,0.00,,---,0.00,VWS V14.01,2013-05-03 17:34:00,
2013-05-03 13:35:00,53.5,49.1,30.05,South,180,5.0,9.0,85,0.00,,---,0.00,VWS V14.01,2013-05-03 17:35:00,
2013-05-03 13:36:00,53.5,49.1,30.05,South,186,6.0,9.0,85,0.00,,---,0.00,VWS V14.01,2013-05-03 17:36:00,
2013-05-03 13:37:00,53.5,49.1,30.05,South,172,3.0,9.0,85,0.00,,---,0.00,VWS V14.01,2013-05-03 17:37:00,
2013-05-03 13:38:00,53.5,49.1,30.05,SE,146,6.0,9.0,85,0.00,,---,0.00,VWS V14.01,2013-05-03 17:38:00,
2013-05-03 13:39:00,53.5,49.1,30.05,South,186,2.0,13.0,85,0.00,,---,0.00,VWS V14.01,2013-05-03 17:39:00,
2013-05-03 13:40:00,53.5,49.1,30.05,SSE,158,8.0,13.0,85,0.00,,---,0.00,VWS V14.01,2013-05-03 17:40:00,
2013-05-03 13:41:00,53.5,49.1,30.05,South,180,5.0,13.0,85,0.00,,---,0.00,VWS V14.01,2013-05-03 17:41:00,
2013-05-03 13:42:00,53.5,49.1,30.05,South,175,2.0,13.0,85,0.00,,---,0.00,VWS V14.01,2013-05-03 17:42:00,
2013-05-03 13:43:00,53.5,49.1,30.05,SE,135,0.0,13.0,85,0.00,,---,0.00,VWS V14.01,2013-05-03 17:43:00,
2013-05-03 13:44:00,53.5,49.1,30.05,South,169,0.0,13.0,85,0.00,,---,0.00,VWS V14.01,2013-05-03 17:44:00,
2013-05-03 13:45:00,53.5,49.1,30.05,SSE,148,6.0,13.0,85,0.00,,---,0.00,VWS V14.01,2013-05-03 17:45:00,
2013-05-03 13:46:00,53.5,49.1,30.05,SSW,203,0.0,13.0,85,0.00,,---,0.00,VWS V14.01,2013-05-03 17:46:00,
2013-05-03 13:47:00,53.5,49.1,30.05,South,175,0.0,13.0,85,0.00,,---,0.00,VWS V14.01,2013-05-03 17:47:00,
2013-05-03 13:48:00,53.6,49.2,30.05,South,178,0.0,13.0,85,0.00,,---,0.00,VWS V14.01,2013-05-03 17:48:00,
2013-05-03 13:49:00,53.6,49.2,30.05,South,180,5.0,13.0,85,0.00,,---,0.00,VWS V14.01,2013-05-03 17:49:00,
2013-05-03 13:50:00,53.6,49.2,30.05,South,182,1.0,13.0,85,0.00,,---,0.00,VWS V14.01,2013-05-03 17:50:00,
2013-05-03 13:51:00,53.6,49.2,30.05,South,182,6.0,13.0,85,0.00,,---,0.00,VWS V14.01,2013-05-03 17:51:00,
2013-05-03 13:52:00,53.6,49.2,30.05,SSE,166,5.0,13.0,85,0.00,,---,0.00,VWS V14.01,2013-05-03 17:52:00,
2013-05-03 13:53:00,53.6,49.2,30.05,SSW,192,5.0,13.0,85,0.00,,---,0.00,VWS V14.01,2013-05-03 17:53:00,
2013-05-03 13:54:00,53.6,49.2,30.05,South,178,0.0,13.0,85,0.00,,---,0.00,VWS V14.01,2013-05-03 17:54:00,
2013-05-03 13:55:00,53.6,49.2,30.05,SSE,161,0.0,13.0,85,0.00,,---,0.00,VWS V14.01,2013-05-03 17:55:00,
2013-05-03 13:56:00,53.6,49.2,30.05,SSE,163,0.0,13.0,85,0.00,,---,0.00,VWS V14.01,2013-05-03 17:56:00,
2013-05-03 13:57:00,53.6,49.2,30.05,South,175,0.0,13.0,85,0.00,,---,0.00,VWS V14.01,2013-05-03 17:57:00,
2013-05-03 13:58:00,53.6,49.2,30.05,South,175,0.0,13.0,85,0.00,,---,0.00,VWS V14.01,2013-05-03 17:58:00,
2013-05-03 13:59:00,53.6,49.2,30.05,SE,146,3.0,13.0,85,0.00,,---,0.00,VWS V14.01,2013-05-03 17:59:00,
2013-05-03 14:00:00,53.6,49.2,30.05,South,175,1.0,13.0,85,0.00,,---,0.00,VWS V14.01,2013-05-03 18:00:00,
2013-05-03 14:01:00,53.6,49.2,30.06,SSE,158,2.0,7.0,85,0.00,,---,0.00,VWS V14.01,2013-05-03 18:01:00,
2013-05-03 14:02:00,53.7,49.3,30.06,ESE,120,0.0,7.0,85,0.00,,---,0.00,VWS V14.01,2013-05-03 18:02:00,
2013-05-03 14:03:00,53.6,49.2,30.05,South,186,2.0,7.0,85,0.00,,---,0.00,VWS V14.01,2013-05-03 18:03:00,
2013-05-03 14:04:00,53.7,49.3,30.05,South,172,3.0,7.0,85,0.00,,---,0.00,VWS V14.01,2013-05-03 18:04:00,
2013-05-03 14:05:00,53.7,49.3,30.06,South,189,4.0,7.0,85,0.00,,---,0.00,VWS V14.01,2013-05-03 18:05:00,
2013-05-03 14:06:00,53.7,49.3,30.06,South,178,5.0,7.0,85,0.00,,---,0.00,VWS V14.01,2013-05-03 18:06:00,
2013-05-03 14:07:00,53.7,49.3,30.06,South,178,0.0,7.0,85,0.00,,---,0.00,VWS V14.01,2013-05-03 18:07:00,
2013-05-03 14:08:00,53.7,49.3,30.06,SSE,166,0.0,7.0,85,0.00,,---,0.00,VWS V14.01,2013-05-03 18:08:00,
2013-05-03 14:09:00,53.7,49.3,30.06,SSE,161,2.0,8.0,85,0.00,,---,0.00,VWS V14.01,2013-05-03 18:09:00,
2013-05-03 14:10:00,53.7,49.3,30.06,SSE,166,2.0,8.0,85,0.00,,---,0.00,VWS V14.01,2013-05-03 18:10:00,
2013-05-03 14:11:00,53.7,49.3,30.06,South,171,0.0,8.0,85,0.00,,---,0.00,VWS V14.01,2013-05-03 18:11:00,
2013-05-03 14:12:00,53.7,49.3,30.06,SE,137,0.0,8.0,85,0.00,,---,0.00,VWS V14.01,2013-05-03 18:12:00,
2013-05-03 14:13:00,53.7,49.6,30.06,South,177,0.0,8.0,86,0.00,,---,0.00,VWS V14.01,2013-05-03 18:13:00,
2013-05-03 14:14:00,53.8,49.4,30.06,South,175,0.0,8.0,85,0.00,,---,0.00,VWS V14.01,2013-05-03 18:14:00,
2013-05-03 14:15:00,53.8,49.7,30.06,SE,140,4.0,8.0,86,0.00,,---,0.00,VWS V14.01,2013-05-03 18:15:00,
2013-05-03 14:16:00,53.8,49.7,30.06,SE,141,0.0,10.0,86,0.00,,---,0.00,VWS V14.01,2013-05-03 18:16:00,
2013-05-03 14:17:00,53.8,49.4,30.06,SSW,194,7.0,10.0,85,0.00,,---,0.00,VWS V14.01,2013-05-03 18:17:00,
2013-05-03 14:18:00,53.8,49.4,30.06,SSE,160,3.0,10.0,85,0.00,,---,0.00,VWS V14.01,2013-05-03 18:18:00,
2013-05-03 14:19:00,53.8,49.4,30.06,SE,142,1.0,10.0,85,0.00,,---,0.00,VWS V14.01,2013-05-03 18:19:00,
2013-05-03 14:20:00,53.8,49.4,30.06,SSW,192,4.0,10.0,85,0.00,,---,0.00,VWS V14.01,2013-05-03 18:20:00,
2013-05-03 14:21:00,53.9,49.8,30.06,South,184,2.0,10.0,86,0.00,,---,0.00,VWS V14.01,2013-05-03 18:21:00,
2013-05-03 14:22:00,53.9,49.8,30.06,SSE,168,4.0,10.0,86,0.00,,---,0.00,VWS V14.01,2013-05-03 18:22:00,
2013-05-03 14:23:00,53.9,49.8,30.06,SSW,196,6.0,10.0,86,0.00,,---,0.00,VWS V14.01,2013-05-03 18:23:00,
2013-05-03 14:24:00,53.9,49.5,30.06,SSW,194,7.0,10.0,85,0.00,,---,0.00,VWS V14.01,2013-05-03 18:24:00,
2013-05-03 14:25:00,53.9,49.5,30.06,South,170,0.0,10.0,85,0.00,,---,0.00,VWS V14.01,2013-05-03 18:25:00,
2013-05-03 14:26:00,53.9,49.5,30.06,SE,141,0.0,10.0,85,0.00,,---,0.00,VWS V14.01,2013-05-03 18:26:00,
2013-05-03 14:27:00,53.9,49.5,30.06,SSE,168,0.0,10.0,85,0.00,,---,0.00,VWS V14.01,2013-05-03 18:27:00,
2013-05-03 14:28:00,53.9,49.5,30.06,South,180,0.0,10.0,85,0.00,,---,0.00,VWS V14.01,2013-05-03 18:28:00,
2013-05-03 14:29:00,53.9,49.5,30.06,South,181,7.0,10.0,85,0.00,,---,0.00,VWS V14.01,2013-05-03 18:29:00,
2013-05-03 14:30:00,54.0,49.6,30.06,South,174,0.0,10.0,85,0.00,,---,0.00,VWS V14.01,2013-05-03 18:30:00,
2013-05-03 14:31:00,54.0,49.6,30.06,South,174,0.0,4.0,85,0.00,,---,0.00,VWS V14.01,2013-05-03 18:31:00,
2013-05-03 14:32:00,53.9,49.5,30.06,South,186,6.0,13.0,85,0.00,,---,0.00,VWS V14.01,2013-05-03 18:32:00,
2013-05-03 14:33:00,53.9,49.5,30.06,SE,145,1.0,13.0,85,0.00,,---,0.00,VWS V14.01,2013-05-03 18:33:00,
2013-05-03 14:34:00,54.0,49.6,30.06,South,191,0.0,13.0,85,0.00,,---,0.00,VWS V14.01,2013-05-03 18:34:00,
2013-05-03 14:35:00,54.0,49.6,30.06,South,191,9.0,13.0,85,0.00,,---,0.00,VWS V14.01,2013-05-03 18:35:00,
2013-05-03 14:36:00,54.0,49.6,30.06,South,190,6.0,13.0,85,0.00,,---,0.00,VWS V14.01,2013-05-03 18:36:00,
2013-05-03 14:37:00,54.0,49.6,30.06,South,185,0.0,13.0,85,0.00,,---,0.00,VWS V14.01,2013-05-03 18:37:00,
2013-05-03 14:38:00,54.0,49.6,30.06,South,191,0.0,13.0,85,0.00,,---,0.00,VWS V14.01,2013-05-03 18:38:00,
2013-05-03 14:39:00,54.0,49.6,30.06,South,170,4.0,13.0,85,0.00,,---,0.00,VWS V14.01,2013-05-03 18:39:00,
2013-05-03 14:40:00,54.1,49.7,30.06,SSE,155,7.0,13.0,85,0.00,,---,0.00,VWS V14.01,2013-05-03 18:40:00,
2013-05-03 14:41:00,54.1,49.7,30.06,South,181,6.0,13.0,85,0.00,,---,0.00,VWS V14.01,2013-05-03 18:41:00,
2013-05-03 14:42:00,54.1,49.7,30.06,South,176,3.0,13.0,85,0.00,,---,0.00,VWS V14.01,2013-05-03 18:42:00,
2013-05-03 14:43:00,54.1,49.7,30.06,South,180,0.0,13.0,85,0.00,,---,0.00,VWS V14.01,2013-05-03 18:43:00,
2013-05-03 14:44:00,54.1,49.7,30.06,SSE,161,0.0,13.0,85,0.00,,---,0.00,VWS V14.01,2013-05-03 18:44:00,
2013-05-03 14:45:00,54.2,49.8,30.06,SSW,198,7.0,13.0,85,0.00,,---,0.00,VWS V14.01,2013-05-03 18:45:00,
2013-05-03 14:46:00,54.2,49.8,30.06,SSW,192,4.0,13.0,85,0.00,,---,0.00,VWS V14.01,2013-05-03 18:46:00,
2013-05-03 14:47:00,54.2,49.8,30.06,South,169,3.0,13.0,85,0.00,,---,0.00,VWS V14.01,2013-05-03 18:47:00,
2013-05-03 14:48:00,54.3,49.9,30.06,SW,231,0.0,13.0,85,0.00,,---,0.00,VWS V14.01,2013-05-03 18:48:00,
2013-05-03 14:49:00,54.2,49.8,30.06,SSE,148,6.0,13.0,85,0.00,,---,0.00,VWS V14.01,2013-05-03 18:49:00,
2013-05-03 14:50:00,54.3,49.9,30.06,SE,146,3.0,13.0,85,0.00,,---,0.00,VWS V14.01,2013-05-03 18:50:00,
2013-05-03 14:51:00,54.3,49.9,30.06,South,169,0.0,13.0,85,0.00,,---,0.00,VWS V14.01,2013-05-03 18:51:00,
2013-05-03 14:52:00,54.4,50.0,30.06,SSE,161,0.0,13.0,85,0.00,,---,0.00,VWS V14.01,2013-05-03 18:52:00,
2013-05-03 14:53:00,54.4,50.0,30.06,South,189,4.0,13.0,85,0.00,,---,0.00,VWS V14.01,2013-05-03 18:53:00,
2013-05-03 14:54:00,54.4,50.0,30.06,SSE,163,4.0,13.0,85,0.00,,---,0.00,VWS V14.01,2013-05-03 18:54:00,
2013-05-03 14:55:00,54.4,50.0,30.06,South,180,5.0,13.0,85,0.00,,---,0.00,VWS V14.01,2013-05-03 18:55:00,
2013-05-03 14:56:00,54.4,50.0,30.06,South,173,5.0,13.0,85,0.00,,---,0.00,VWS V14.01,2013-05-03 18:56:00,
2013-05-03 14:57:00,54.4,50.0,30.06,SSW,194,6.0,13.0,85,0.00,,---,0.00,VWS V14.01,2013-05-03 18:57:00,
2013-05-03 14:58:00,54.4,50.0,30.07,SSE,168,3.0,13.0,85,0.00,,---,0.00,VWS V14.01,2013-05-03 18:58:00,
2013-05-03 14:59:00,54.4,50.0,30.07,South,173,0.0,13.0,85,0.00,,---,0.00,VWS V14.01,2013-05-03 18:59:00,
2013-05-03 15:00:00,54.4,50.0,30.07,SSE,166,8.0,13.0,85,0.00,,---,0.00,VWS V14.01,2013-05-03 19:00:00,
2013-05-03 15:01:00,54.4,50.0,30.07,SSE,168,1.0,9.0,85,0.00,,---,0.00,VWS V14.01,2013-05-03 19:01:00,
2013-05-03 15:02:00,54.4,50.0,30.07,SSE,150,5.0,9.0,85,0.00,,---,0.00,VWS V14.01,2013-05-03 19:02:00,
2013-05-03 15:03:00,54.4,50.0,30.07,SSW,200,7.0,10.0,85,0.00,,---,0.00,VWS V14.01,2013-05-03 19:03:00,
2013-05-03 15:04:00,54.4,50.0,30.07,SSE,164,3.0,10.0,85,0.00,,---,0.00,VWS V14.01,2013-05-03 19:04:00,
2013-05-03 15:05:00,54.4,50.0,30.07,SSE,151,0.0,10.0,85,0.00,,---,0.00,VWS V14.01,2013-05-03 19:05:00,
2013-05-03 15:06:00,54.4,50.0,30.07,SSE,158,3.0,10.0,85,0.00,,---,0.00,VWS V14.01,2013-05-03 19:06:00,
2013-05-03 15:07:00,54.4,50.0,30.07,SE,127,4.0,10.0,85,0.00,,---,0.00,VWS V14.01,2013-05-03 19:07:00,
2013-05-03 15:08:00,54.4,50.0,30.07,ESE,109,9.0,10.0,85,0.00,,---,0.00,VWS V14.01,2013-05-03 19:08:00,
2013-05-03 15:09:00,54.4,50.0,30.07,South,188,8.0,10.0,85,0.00,,---,0.00,VWS V14.01,2013-05-03 19:09:00,
2013-05-03 15:10:00,54.4,50.0,30.07,SSE,162,5.0,10.0,85,0.00,,---,0.00,VWS V14.01,2013-05-03 19:10:00,
2013-05-03 15:11:00,54.4,50.0,30.07,South,186,5.0,11.0,85,0.00,,---,0.00,VWS V14.01,2013-05-03 19:11:00,
2013-05-03 15:12:00,54.4,50.0,30.07,SSE,165,2.0,11.0,85,0.00,,---,0.00,VWS V14.01,2013-05-03 19:12:00,
2013-05-03 15:13:00,54.4,50.0,30.07,SE,136,8.0,11.0,85,0.00,,---,0.00,VWS V14.01,2013-05-03 19:13:00,
2013-05-03 15:14:00,54.4,50.0,30.07,South,189,5.0,12.0,85,0.00,,---,0.00,VWS V14.01,2013-05-03 19:14:00,
2013-05-03 15:15:00,54.4,50.0,30.07,SE,144,7.0,12.0,85,0.00,,---,0.00,VWS V14.01,2013-05-03 19:15:00,
2013-05-03 15:16:00,54.4,50.0,30.07,SE,140,0.0,12.0,85,0.00,,---,0.00,VWS V14.01,2013-05-03 19:16:00,
2013-05-03 15:17:00,54.4,50.0,30.07,South,182,0.0,12.0,85,0.00,,---,0.00,VWS V14.01,2013-05-03 19:17:00,
2013-05-03 15:18:00,54.4,50.0,30.06,South,176,0.0,12.0,85,0.00,,---,0.00,VWS V14.01,2013-05-03 19:18:00,
2013-05-03 15:19:00,54.4,50.0,30.06,South,190,3.0,12.0,85,0.00,,---,0.00,VWS V14.01,2013-05-03 19:19:00,
2013-05-03 15:20:00,54.4,50.0,30.06,SSE,153,2.0,12.0,85,0.00,,---,0.00,VWS V14.01,2013-05-03 19:20:00,
2013-05-03 15:21:00,54.5,50.1,30.06,SE,140,5.0,12.0,85,0.00,,---,0.00,VWS V14.01,2013-05-03 19:21:00,
2013-05-03 15:22:00,54.5,50.1,30.06,South,169,1.0,12.0,85,0.00,,---,0.00,VWS V14.01,2013-05-03 19:22:00,
2013-05-03 15:23:00,54.5,50.1,30.06,SSW,192,5.0,12.0,85,0.00,,---,0.00,VWS V14.01,2013-05-03 19:23:00,
2013-05-03 15:24:00,54.5,50.1,30.06,SSE,161,0.0,12.0,85,0.00,,---,0.00,VWS V14.01,2013-05-03 19:24:00,
2013-05-03 15:25:00,54.5,50.1,30.06,SSE,158,5.0,12.0,85,0.00,,---,0.00,VWS V14.01,2013-05-03 19:25:00,
2013-05-03 15:26:00,54.5,50.1,30.06,South,173,4.0,12.0,85,0.00,,---,0.00,VWS V14.01,2013-05-03 19:26:00,
2013-05-03 15:27:00,54.5,50.1,30.06,SSW,193,3.0,13.0,85,0.00,,---,0.00,VWS V14.01,2013-05-03 19:27:00,
2013-05-03 15:28:00,54.5,50.1,30.06,SE,144,5.0,13.0,85,0.00,,---,0.00,VWS V14.01,2013-05-03 19:28:00,
2013-05-03 15:29:00,54.5,50.1,30.06,SSE,167,4.0,13.0,85,0.00,,---,0.00,VWS V14.01,2013-05-03 19:29:00,
2013-05-03 15:30:00,54.5,50.4,30.06,SE,135,0.0,13.0,86,0.00,,---,0.00,VWS V14.01,2013-05-03 19:30:00,
2013-05-03 15:31:00,54.5,50.4,30.06,South,175,0.0,3.0,86,0.00,,---,0.00,VWS V14.01,2013-05-03 19:31:00,
2013-05-03 15:32:00,54.6,50.5,30.06,South,178,0.0,5.0,86,0.00,,---,0.00,VWS V14.01,2013-05-03 19:32:00,
2013-05-03 15:33:00,54.6,50.2,30.06,SSE,167,3.0,9.0,85,0.00,,---,0.00,VWS V14.01,2013-05-03 19:33:00,
2013-05-03 15:34:00,54.6,50.2,30.06,SSE,157,8.0,9.0,85,0.00,,---,0.00,VWS V14.01,2013-05-03 19:34:00,
2013-05-03 15:35:00,54.6,50.2,30.06,South,173,3.0,9.0,85,0.00,,---,0.00,VWS V14.01,2013-05-03 19:35:00,
2013-05-03 15:36:00,54.6,50.2,30.06,South,177,7.0,9.0,85,0.00,,---,0.00,VWS V14.01,2013-05-03 19:36:00,
2013-05-03 15:37:00,54.7,50.3,30.06,SSE,163,9.0,12.0,85,0.00,,---,0.00,VWS V14.01,2013-05-03 19:37:00,
2013-05-03 15:38:00,54.6,50.2,30.06,SSE,152,3.0,12.0,85,0.00,,---,0.00,VWS V14.01,2013-05-03 19:38:00,
2013-05-03 15:39:00,54.6,50.2,30.06,SE,133,1.0,12.0,85,0.00,,---,0.00,VWS V14.01,2013-05-03 19:39:00,
2013-05-03 15:40:00,54.6,50.2,30.06,South,191,5.0,12.0,85,0.00,,---,0.00,VWS V14.01,2013-05-03 19:40:00,
2013-05-03 15:41:00,54.7,50.3,30.06,South,185,11.0,12.0,85,0.00,,---,0.00,VWS V14.01,2013-05-03 19:41:00,
2013-05-03 15:42:00,54.7,50.3,30.06,ESE,120,11.0,12.0,85,0.00,,---,0.00,VWS V14.01,2013-05-03 19:42:00,
2013-05-03 15:43:00,54.7,50.3,30.06,South,185,7.0,12.0,85,0.00,,---,0.00,VWS V14.01,2013-05-03 19:43:00,
2013-05-03 15:44:00,54.7,50.3,30.06,SSE,167,0.0,12.0,85,0.00,,---,0.00,VWS V14.01,2013-05-03 19:44:00,
2013-05-03 15:45:00,54.7,50.3,30.06,South,178,2.0,12.0,85,0.00,,---,0.00,VWS V14.01,2013-05-03 19:45:00,
2013-05-03 15:46:00,54.8,50.4,30.06,SSE,150,4.0,12.0,85,0.00,,---,0.00,VWS V14.01,2013-05-03 19:46:00,
2013-05-03 15:47:00,54.8,50.4,30.06,SSW,209,0.0,12.0,85,0.00,,---,0.00,VWS V14.01,2013-05-03 19:47:00,
2013-05-03 15:48:00,54.8,50.4,30.06,SE,127,3.0,12.0,85,0.00,,---,0.00,VWS V14.01,2013-05-03 19:48:00,
2013-05-03 15:49:00,54.8,50.4,30.06,South,173,0.0,12.0,85,0.00,,---,0.00,VWS V14.01,2013-05-03 19:49:00,
2013-05-03 15:50:00,54.9,50.5,30.06,South,177,6.0,12.0,85,0.00,,---,0.00,VWS V14.01,2013-05-03 19:50:00,
2013-05-03 15:51:00,54.9,50.5,30.06,SSE,154,5.0,12.0,85,0.00,,---,0.00,VWS V14.01,2013-05-03 19:51:00,
2013-05-03 15:52:00,54.9,50.5,30.06,SSE,165,6.0,12.0,85,0.00,,---,0.00,VWS V14.01,2013-05-03 19:52:00,
2013-05-03 15:53:00,54.9,50.5,30.06,West,267,0.0,12.0,85,0.00,,---,0.00,VWS V14.01,2013-05-03 19:53:00,
2013-05-03 15:54:00,55.0,50.9,30.06,SSE,164,5.0,12.0,86,0.00,,---,0.00,VWS V14.01,2013-05-03 19:54:00,
2013-05-03 15:55:00,55.0,50.6,30.06,SSE,153,7.0,12.0,85,0.00,,---,0.00,VWS V14.01,2013-05-03 19:55:00,
2013-05-03 15:56:00,55.0,50.6,30.06,South,177,2.0,12.0,85,0.00,,---,0.00,VWS V14.01,2013-05-03 19:56:00,
2013-05-03 15:57:00,55.0,50.6,30.06,SSE,157,0.0,12.0,85,0.00,,---,0.00,VWS V14.01,2013-05-03 19:57:00,
2013-05-03 15:58:00,55.1,50.7,30.06,SSE,150,10.0,12.0,85,0.00,,---,0.00,VWS V14.01,2013-05-03 19:58:00,
2013-05-03 15:59:00,55.1,50.7,30.06,South,185,12.0,13.0,85,0.00,,---,0.00,VWS V14.01,2013-05-03 19:59:00,
2013-05-03 16:00:00,55.1,50.7,30.06,South,186,9.0,13.0,85,0.00,,---,0.00,VWS V14.01,2013-05-03 20:00:00,
2013-05-03 16:01:00,55.1,50.7,30.06,South,182,6.0,8.0,85,0.00,,---,0.00,VWS V14.01,2013-05-03 20:01:00,
2013-05-03 16:02:00,55.1,50.7,30.06,SSE,151,4.0,10.0,85,0.00,,---,0.00,VWS V14.01,2013-05-03 20:02:00,
2013-05-03 16:03:00,55.1,50.7,30.06,SSE,161,0.0,10.0,85,0.00,,---,0.00,VWS V14.01,2013-05-03 20:03:00,
2013-05-03 16:04:00,55.2,50.8,30.06,South,169,1.0,10.0,85,0.00,,---,0.00,VWS V14.01,2013-05-03 20:04:00,
2013-05-03 16:05:00,55.2,50.8,30.06,South,184,3.0,10.0,85,0.00,,---,0.00,VWS V14.01,2013-05-03 20:05:00,
2013-05-03 16:06:00,55.3,50.9,30.05,South,184,8.0,10.0,85,0.00,,---,0.00,VWS V14.01,2013-05-03 20:06:00,
2013-05-03 16:07:00,55.3,50.9,30.05,SSE,163,6.0,10.0,85,0.00,,---,0.00,VWS V14.01,2013-05-03 20:07:00,
2013-05-03 16:08:00,55.3,50.9,30.05,South,169,7.0,10.0,85,0.00,,---,0.00,VWS V14.01,2013-05-03 20:08:00,
2013-05-03 16:09:00,55.3,50.9,30.05,SSE,167,3.0,10.0,85,0.00,,---,0.00,VWS V14.01,2013-05-03 20:09:00,
2013-05-03 16:10:00,55.4,51.0,30.05,South,186,0.0,10.0,85,0.00,,---,0.00,VWS V14.01,2013-05-03 20:10:00,
2013-05-03 16:11:00,55.4,51.0,30.05,South,173,5.0,10.0,85,0.00,,---,0.00,VWS V14.01,2013-05-03 20:11:00,
2013-05-03 16:12:00,55.4,51.0,30.05,SE,146,6.0,10.0,85,0.00,,---,0.00,VWS V14.01,2013-05-03 20:12:00,
2013-05-03 16:13:00,55.5,51.1,30.05,South,190,3.0,10.0,85,0.00,,---,0.00,VWS V14.01,2013-05-03 20:13:00,
2013-05-03 16:14:00,55.5,51.1,30.06,South,173,0.0,10.0,85,0.00,,---,0.00,VWS V14.01,2013-05-03 20:14:00,
2013-05-03 16:15:00,55.5,51.1,30.06,South,191,3.0,10.0,85,0.00,,---,0.00,VWS V14.01,2013-05-03 20:15:00,
2013-05-03 16:16:00,55.6,51.2,30.06,South,171,0.0,10.0,85,0.00,,---,0.00,VWS V14.01,2013-05-03 20:16:00,
2013-05-03 16:17:00,55.6,51.2,30.06,SSW,194,0.0,10.0,85,0.00,,---,0.00,VWS V14.01,2013-05-03 20:17:00,
2013-05-03 16:18:00,55.6,51.2,30.06,SSW,197,6.0,10.0,85,0.00,,---,0.00,VWS V14.01,2013-05-03 20:18:00,
2013-05-03 16:19:00,55.6,51.2,30.06,South,171,0.0,10.0,85,0.00,,---,0.00,VWS V14.01,2013-05-03 20:19:00,
2013-05-03 16:20:00,55.6,51.2,30.06,South,186,6.0,10.0,85,0.00,,---,0.00,VWS V14.01,2013-05-03 20:20:00,
2013-05-03 16:21:00,55.6,51.2,30.06,SW,235,7.0,15.0,85,0.00,,---,0.00,VWS V14.01,2013-05-03 20:21:00,
2013-05-03 16:22:00,55.6,51.2,30.06,South,174,4.0,15.0,85,0.00,,---,0.00,VWS V14.01,2013-05-03 20:22:00,
2013-05-03 16:23:00,55.6,51.2,30.06,South,182,2.0,15.0,85,0.00,,---,0.00,VWS V14.01,2013-05-03 20:23:00,
2013-05-03 16:24:00,55.6,51.2,30.06,SE,141,7.0,15.0,85,0.00,,---,0.00,VWS V14.01,2013-05-03 20:24:00,
2013-05-03 16:25:00,55.6,51.2,30.06,SSE,163,4.0,15.0,85,0.00,,---,0.00,VWS V14.01,2013-05-03 20:25:00,
2013-05-03 16:26:00,55.7,51.3,30.06,South,173,2.0,15.0,85,0.00,,---,0.00,VWS V14.01,2013-05-03 20:26:00,
2013-05-03 16:27:00,55.7,51.3,30.06,South,188,0.0,15.0,85,0.00,,---,0.00,VWS V14.01,2013-05-03 20:27:00,
2013-05-03 16:28:00,55.7,51.3,30.05,South,173,6.0,15.0,85,0.00,,---,0.00,VWS V14.01,2013-05-03 20:28:00,
2013-05-03 16:29:00,55.7,51.3,30.05,South,170,4.0,15.0,85,0.00,,---,0.00,VWS V14.01,2013-05-03 20:29:00,
2013-05-03 16:30:00,55.7,51.3,30.05,SSE,163,4.0,15.0,85,0.00,,---,0.00,VWS V14.01,2013-05-03 20:30:00,
2013-05-03 16:31:00,55.7,51.3,30.05,South,176,3.0,8.0,85,0.00,,---,0.00,VWS V14.01,2013-05-03 20:31:00,
2013-05-03 16:32:00,55.7,51.3,30.05,South,184,1.0,8.0,85,0.00,,---,0.00,VWS V14.01,2013-05-03 20:32:00,
2013-05-03 16:33:00,55.7,51.3,30.05,South,190,2.0,11.0,85,0.00,,---,0.00,VWS V14.01,2013-05-03 20:33:00,
2013-05-03 16:34:00,55.7,51.3,30.05,South,185,11.0,11.0,85,0.00,,---,0.00,VWS V14.01,2013-05-03 20:34:00,
2013-05-03 16:35:00,55.7,51.3,30.05,SE,144,5.0,11.0,85,0.00,,---,0.00,VWS V14.01,2013-05-03 20:35:00,
2013-05-03 16:36:00,55.7,51.3,30.05,SSE,162,3.0,11.0,85,0.00,,---,0.00,VWS V14.01,2013-05-03 20:36:00,
2013-05-03 16:37:00,55.7,51.3,30.05,South,190,11.0,13.0,85,0.00,,---,0.00,VWS V14.01,2013-05-03 20:37:00,
2013-05-03 16:38:00,55.7,51.3,30.05,SSE,164,5.0,13.0,85,0.00,,---,0.00,VWS V14.01,2013-05-03 20:38:00,
2013-05-03 16:39:00,55.7,51.3,30.05,SSE,154,2.0,13.0,85,0.00,,---,0.00,VWS V14.01,2013-05-03 20:39:00,
2013-05-03 16:40:00,55.7,51.3,30.05,SSE,158,4.0,13.0,85,0.00,,---,0.00,VWS V14.01,2013-05-03 20:40:00,
2013-05-03 16:41:00,55.8,51.4,30.05,South,180,6.0,13.0,85,0.00,,---,0.00,VWS V14.01,2013-05-03 20:41:00,
2013-05-03 16:42:00,55.7,51.3,30.05,South,189,3.0,13.0,85,0.00,,---,0.00,VWS V14.01,2013-05-03 20:42:00,
2013-05-03 16:43:00,55.8,51.4,30.05,SSE,162,0.0,13.0,85,0.00,,---,0.00,VWS V14.01,2013-05-03 20:43:00,
2013-05-03 16:44:00,55.8,51.4,30.05,South,171,7.0,13.0,85,0.00,,---,0.00,VWS V14.01,2013-05-03 20:44:00,
2013-05-03 16:45:00,55.8,51.4,30.05,SW,221,1.0,13.0,85,0.00,,---,0.00,VWS V14.01,2013-05-03 20:45:00,
2013-05-03 16:46:00,55.9,51.5,30.05,South,173,4.0,13.0,85,0.00,,---,0.00,VWS V14.01,2013-05-03 20:46:00,
2013-05-03 16:47:00,55.9,51.5,30.05,SSW,200,5.0,13.0,85,0.00,,---,0.00,VWS V14.01,2013-05-03 20:47:00,
2013-05-03 16:48:00,55.9,51.5,30.05,SSE,161,2.0,13.0,85,0.00,,---,0.00,VWS V14.01,2013-05-03 20:48:00,
2013-05-03 16:49:00,55.9,51.5,30.05,SSE,165,8.0,15.0,85,0.00,,---,0.00,VWS V14.01,2013-05-03 20:49:00,
2013-05-03 16:50:00,55.9,51.5,30.05,South,169,6.0,15.0,85,0.00,,---,0.00,VWS V14.01,2013-05-03 20:50:00,
2013-05-03 16:51:00,55.9,51.5,30.05,SSE,159,7.0,15.0,85,0.00,,---,0.00,VWS V14.01,2013-05-03 20:51:00,
2013-05-03 16:52:00,55.9,51.5,30.05,SSE,161,1.0,15.0,85,0.00,,---,0.00,VWS V14.01,2013-05-03 20:52:00,
2013-05-03 16:53:00,55.9,51.5,30.05,South,181,4.0,15.0,85,0.00,,---,0.00,VWS V14.01,2013-05-03 20:53:00,
2013-05-03 16:54:00,55.9,51.5,30.05,South,190,0.0,15.0,85,0.00,,---,0.00,VWS V14.01,2013-05-03 20:54:00,
2013-05-03 16:55:00,55.9,51.5,30.05,South,178,5.0,15.0,85,0.00,,---,0.00,VWS V14.01,2013-05-03 20:55:00,
2013-05-03 16:56:00,56.0,51.6,30.05,SSE,163,2.0,15.0,85,0.00,,---,0.00,VWS V14.01,2013-05-03 20:56:00,
2013-05-03 16:57:00,56.0,51.6,30.05,SSE,157,9.0,15.0,85,0.00,,---,0.00,VWS V14.01,2013-05-03 20:57:00,
2013-05-03 16:58:00,55.9,51.5,30.05,SSW,204,8.0,16.0,85,0.00,,---,0.00,VWS V14.01,2013-05-03 20:58:00,
2013-05-03 16:59:00,55.9,51.5,30.05,SSW,194,7.0,16.0,85,0.00,,---,0.00,VWS V14.01,2013-05-03 20:59:00,
2013-05-03 17:00:00,55.9,51.5,30.05,SSE,157,10.0,16.0,85,0.00,,---,0.00,VWS V14.01,2013-05-03 21:00:00,
2013-05-03 17:01:00,55.9,51.5,30.05,SSW,196,6.0,11.0,85,0.00,,---,0.00,VWS V14.01,2013-05-03 21:01:00,
2013-05-03 17:02:00,55.8,51.4,30.05,South,189,6.0,11.0,85,0.00,,---,0.00,VWS V14.01,2013-05-03 21:02:00,
2013-05-03 17:03:00,55.8,51.4,30.05,South,175,8.0,11.0,85,0.00,,---,0.00,VWS V14.01,2013-05-03 21:03:00,
2013-05-03 17:04:00,55.8,51.4,30.05,SSE,153,3.0,12.0,85,0.00,,---,0.00,VWS V14.01,2013-05-03 21:04:00,
2013-05-03 17:05:00,55.7,51.3,30.05,South,177,9.0,12.0,85,0.00,,---,0.00,VWS V14.01,2013-05-03 21:05:00,
2013-05-03 17:06:00,55.7,51.6,30.05,SE,142,0.0,12.0,86,0.00,,---,0.00,VWS V14.01,2013-05-03 21:06:00,
2013-05-03 17:07:00,55.7,51.6,30.05,SSW,192,6.0,12.0,86,0.00,,---,0.00,VWS V14.01,2013-05-03 21:07:00,
2013-05-03 17:08:00,55.7,51.6,30.05,South,188,6.0,12.0,86,0.00,,---,0.00,VWS V14.01,2013-05-03 21:08:00,
2013-05-03 17:09:00,55.6,51.5,30.05,South,186,7.0,12.0,86,0.00,,---,0.00,VWS V14.01,2013-05-03 21:09:00,
2013-05-03 17:10:00,55.6,51.8,30.05,SSE,166,2.0,12.0,87,0.00,,---,0.00,VWS V14.01,2013-05-03 21:10:00,
2013-05-03 17:11:00,55.6,51.8,30.05,SSE,147,4.0,12.0,87,0.00,,---,0.00,VWS V14.01,2013-05-03 21:11:00,
2013-05-03 17:12:00,55.5,51.7,30.05,South,181,9.0,12.0,87,0.00,,---,0.00,VWS V14.01,2013-05-03 21:12:00,
2013-05-03 17:13:00,55.5,51.7,30.05,SSW,195,7.0,20.0,87,0.00,,---,0.00,VWS V14.01,2013-05-03 21:13:00,
2013-05-03 17:14:00,55.5,51.7,30.05,SSE,147,6.0,20.0,87,0.00,,---,0.00,VWS V14.01,2013-05-03 21:14:00,
2013-05-03 17:15:00,55.4,51.6,30.05,South,184,6.0,20.0,87,0.00,,---,0.00,VWS V14.01,2013-05-03 21:15:00,
2013-05-03 17:16:00,55.4,51.6,30.05,SSW,202,7.0,20.0,87,0.00,,---,0.00,VWS V14.01,2013-05-03 21:16:00,
2013-05-03 17:17:00,55.3,51.8,30.05,South,180,2.0,20.0,88,0.00,,---,0.00,VWS V14.01,2013-05-03 21:17:00,
2013-05-03 17:18:00,55.3,51.8,30.05,South,178,3.0,20.0,88,0.00,,---,0.00,VWS V14.01,2013-05-03 21:18:00,
2013-05-03 17:19:00,55.3,51.8,30.05,South,175,0.0,20.0,88,0.00,,---,0.00,VWS V14.01,2013-05-03 21:19:00,
2013-05-03 17:20:00,55.2,51.7,30.05,SSE,150,5.0,20.0,88,0.00,,---,0.00,VWS V14.01,2013-05-03 21:20:00,
2013-05-03 17:21:00,55.2,51.7,30.05,SSE,147,0.0,20.0,88,0.00,,---,0.00,VWS V14.01,2013-05-03 21:21:00,
2013-05-03 17:22:00,55.2,51.7,30.05,SSE,163,5.0,20.0,88,0.00,,---,0.00,VWS V14.01,2013-05-03 21:22:00,
2013-05-03 17:23:00,55.2,52.0,30.05,ESE,116,0.0,20.0,89,0.00,,---,0.00,VWS V14.01,2013-05-03 21:23:00,
2013-05-03 17:24:00,55.2,52.0,30.05,SSE,159,1.0,20.0,89,0.00,,---,0.00,VWS V14.01,2013-05-03 21:24:00,
2013-05-03 17:25:00,55.2,52.0,30.05,SSE,161,3.0,20.0,89,0.00,,---,0.00,VWS V14.01,2013-05-03 21:25:00,
2013-05-03 17:26:00,55.2,52.0,30.05,SSE,157,1.0,20.0,89,0.00,,---,0.00,VWS V14.01,2013-05-03 21:26:00,
2013-05-03 17:27:00,55.2,52.0,30.05,SSE,167,2.0,20.0,89,0.00,,---,0.00,VWS V14.01,2013-05-03 21:27:00,
2013-05-03 17:28:00,55.3,52.1,30.05,SSW,206,10.0,20.0,89,0.00,,---,0.00,VWS V14.01,2013-05-03 21:28:00,
2013-05-03 17:29:00,55.3,52.1,30.05,South,176,0.0,20.0,89,0.00,,---,0.00,VWS V14.01,2013-05-03 21:29:00,
2013-05-03 17:30:00,55.3,52.1,30.05,South,182,9.0,9.0,89,0.00,,---,0.00,VWS V14.01,2013-05-03 21:30:00,
2013-05-03 17:31:00,55.3,52.1,30.05,South,180,0.0,9.0,89,0.00,,---,0.00,VWS V14.01,2013-05-03 21:31:00,
2013-05-03 17:32:00,55.4,52.2,30.05,SSW,192,4.0,9.0,89,0.00,,---,0.00,VWS V14.01,2013-05-03 21:32:00,
2013-05-03 17:33:00,55.4,52.2,30.05,South,178,3.0,9.0,89,0.00,,---,0.00,VWS V14.01,2013-05-03 21:33:00,
2013-05-03 17:34:00,55.5,52.3,30.05,South,188,7.0,11.0,89,0.00,,---,0.00,VWS V14.01,2013-05-03 21:34:00,
2013-05-03 17:35:00,55.5,52.0,30.05,SSE,153,9.0,11.0,88,0.00,,---,0.00,VWS V14.01,2013-05-03 21:35:00,
2013-05-03 17:36:00,55.6,52.1,30.05,South,175,2.0,11.0,88,0.00,,---,0.00,VWS V14.01,2013-05-03 21:36:00,
2013-05-03 17:37:00,55.6,52.1,30.05,SSE,158,1.0,11.0,88,0.00,,---,0.00,VWS V14.01,2013-05-03 21:37:00,
2013-05-03 17:38:00,55.7,52.2,30.05,South,178,0.0,11.0,88,0.00,,---,0.00,VWS V14.01,2013-05-03 21:38:00,
2013-05-03 17:39:00,55.7,52.2,30.05,SSW,212,1.0,11.0,88,0.00,,---,0.00,VWS V14.01,2013-05-03 21:39:00,
2013-05-03 17:40:00,55.8,52.3,30.05,South,171,0.0,11.0,88,0.00,,---,0.00,VWS V14.01,2013-05-03 21:40:00,
2013-05-03 17:41:00,55.9,52.4,30.05,South,169,0.0,11.0,88,0.00,,---,0.00,VWS V14.01,2013-05-03 21:41:00,
2013-05-03 17:42:00,56.0,52.5,30.05,South,190,8.0,13.0,88,0.00,,---,0.00,VWS V14.01,2013-05-03 21:42:00,
2013-05-03 17:43:00,56.0,52.2,30.05,SSE,149,5.0,13.0,87,0.00,,---,0.00,VWS V14.01,2013-05-03 21:43:00,
2013-05-03 17:44:00,56.0,52.2,30.06,SSW,205,0.0,13.0,87,0.00,,---,0.00,VWS V14.01,2013-05-03 21:44:00,
2013-05-03 17:45:00,56.1,52.3,30.06,SSW,205,0.0,13.0,87,0.00,,---,0.00,VWS V14.01,2013-05-03 21:45:00,
2013-05-03 17:46:00,56.2,52.7,30.05,SSE,161,6.0,13.0,88,0.00,,---,0.00,VWS V14.01,2013-05-03 21:46:00,
2013-05-03 17:47:00,56.2,52.4,30.05,SSW,200,4.0,13.0,87,0.00,,---,0.00,VWS V14.01,2013-05-03 21:47:00,
2013-05-03 17:48:00,56.3,52.5,30.06,South,191,3.0,13.0,87,0.00,,---,0.00,VWS V14.01,2013-05-03 21:48:00,
2013-05-03 17:49:00,56.3,52.5,30.06,South,175,3.0,13.0,87,0.00,,---,0.00,VWS V14.01,2013-05-03 21:49:00,
2013-05-03 17:50:00,56.3,52.5,30.06,ESE,122,0.0,13.0,87,0.00,,---,0.00,VWS V14.01,2013-05-03 21:50:00,
2013-05-03 17:51:00,56.4,52.6,30.06,South,174,5.0,13.0,87,0.00,,---,0.00,VWS V14.01,2013-05-03 21:51:00,
2013-05-03 17:52:00,56.4,52.3,30.06,SSE,168,0.0,13.0,86,0.00,,---,0.00,VWS V14.01,2013-05-03 21:52:00,
2013-05-03 17:53:00,56.5,52.4,30.06,SSE,160,5.0,13.0,86,0.00,,---,0.00,VWS V14.01,2013-05-03 21:53:00,
2013-05-03 17:54:00,56.5,52.4,30.06,East,94,0.0,13.0,86,0.00,,---,0.00,VWS V14.01,2013-05-03 21:54:00,
2013-05-03 17:55:00,56.6,52.5,30.06,SSE,154,4.0,13.0,86,0.00,,---,0.00,VWS V14.01,2013-05-03 21:55:00,
2013-05-03 17:56:00,56.6,52.5,30.06,South,179,0.0,13.0,86,0.00,,---,0.00,VWS V14.01,2013-05-03 21:56:00,
2013-05-03 17:57:00,56.7,52.6,30.06,South,171,0.0,13.0,86,0.00,,---,0.00,VWS V14.01,2013-05-03 21:57:00,
2013-05-03 17:58:00,56.8,52.7,30.06,SSE,166,1.0,13.0,86,0.00,,---,0.00,VWS V14.01,2013-05-03 21:58:00,
2013-05-03 17:59:00,56.8,52.7,30.06,South,180,2.0,13.0,86,0.00,,---,0.00,VWS V14.01,2013-05-03 21:59:00,
2013-05-03 18:00:00,56.9,52.4,30.06,South,177,8.0,13.0,85,0.00,,---,0.00,VWS V14.01,2013-05-03 22:00:00,
2013-05-03 18:01:00,56.9,52.4,30.06,SSW,194,7.0,11.0,85,0.00,,---,0.00,VWS V14.01,2013-05-03 22:01:00,
2013-05-03 18:02:00,56.9,52.4,30.05,South,182,11.0,11.0,85,0.00,,---,0.00,VWS V14.01,2013-05-03 22:02:00,
2013-05-03 18:03:00,56.9,52.4,30.05,South,171,0.0,11.0,85,0.00,,---,0.00,VWS V14.01,2013-05-03 22:03:00,
2013-05-03 18:04:00,57.0,52.5,30.05,SSE,161,7.0,11.0,85,0.00,,---,0.00,VWS V14.01,2013-05-03 22:04:00,
2013-05-03 18:05:00,57.1,52.6,30.05,South,180,0.0,11.0,85,0.00,,---,0.00,VWS V14.01,2013-05-03 22:05:00,
2013-05-03 18:06:00,57.1,52.6,30.05,SSE,148,0.0,11.0,85,0.00,,---,0.00,VWS V14.01,2013-05-03 22:06:00,
2013-05-03 18:07:00,57.2,52.7,30.05,SSE,167,5.0,11.0,85,0.00,,---,0.00,VWS V14.01,2013-05-03 22:07:00,
2013-05-03 18:08:00,57.3,52.5,30.05,West,272,0.0,11.0,84,0.00,,---,0.00,VWS V14.01,2013-05-03 22:08:00,
2013-05-03 18:09:00,57.3,52.5,30.05,South,181,6.0,11.0,84,0.00,,---,0.00,VWS V14.01,2013-05-03 22:09:00,
2013-05-03 18:10:00,57.4,52.6,30.05,WNW,293,0.0,11.0,84,0.00,,---,0.00,VWS V14.01,2013-05-03 22:10:00,
2013-05-03 18:11:00,57.5,52.7,30.05,South,186,5.0,11.0,84,0.00,,---,0.00,VWS V14.01,2013-05-03 22:11:00,
2013-05-03 18:12:00,57.6,52.8,30.05,SSE,147,6.0,11.0,84,0.00,,---,0.00,VWS V14.01,2013-05-03 22:12:00,
2013-05-03 18:13:00,57.7,52.9,30.05,South,181,0.0,11.0,84,0.00,,---,0.00,VWS V14.01,2013-05-03 22:13:00,
2013-05-03 18:14:00,57.8,53.0,30.05,South,180,2.0,11.0,84,0.00,,---,0.00,VWS V14.01,2013-05-03 22:14:00,
2013-05-03 18:15:00,57.9,53.1,30.05,West,271,0.0,11.0,84,0.00,,---,0.00,VWS V14.01,2013-05-03 22:15:00,
2013-05-03 18:16:00,58.0,53.2,30.05,South,182,0.0,11.0,84,0.00,,---,0.00,VWS V14.01,2013-05-03 22:16:00,
2013-05-03 18:17:00,58.1,53.3,30.05,South,179,1.0,11.0,84,0.00,,---,0.00,VWS V14.01,2013-05-03 22:17:00,
2013-05-03 18:18:00,58.2,53.1,30.05,South,186,4.0,11.0,83,0.00,,---,0.00,VWS V14.01,2013-05-03 22:18:00,
2013-05-03 18:19:00,58.2,53.1,30.05,South,190,9.0,14.0,83,0.00,,---,0.00,VWS V14.01,2013-05-03 22:19:00,
2013-05-03 18:20:00,58.3,53.2,30.05,SSE,149,8.0,14.0,83,0.00,,---,0.00,VWS V14.01,2013-05-03 22:20:00,
2013-05-03 18:21:00,58.3,53.2,30.04,SSE,163,1.0,14.0,83,0.00,,---,0.00,VWS V14.01,2013-05-03 22:21:00,
2013-05-03 18:22:00,58.4,52.9,30.04,South,184,12.0,14.0,82,0.00,,---,0.00,VWS V14.01,2013-05-03 22:22:00,
2013-05-03 18:23:00,58.4,52.9,30.04,South,175,4.0,14.0,82,0.00,,---,0.00,VWS V14.01,2013-05-03 22:23:00,
2013-05-03 18:24:00,58.4,52.9,30.04,SSE,158,0.0,14.0,82,0.00,,---,0.00,VWS V14.01,2013-05-03 22:24:00,
2013-05-03 18:25:00,58.4,53.3,30.04,East,99,0.0,14.0,83,0.00,,---,0.00,VWS V14.01,2013-05-03 22:25:00,
2013-05-03 18:26:00,58.5,53.4,30.04,South,178,0.0,14.0,83,0.00,,---,0.00,VWS V14.01,2013-05-03 22:26:00,
2013-05-03 18:27:00,58.6,53.5,30.04,SSE,164,0.0,14.0,83,0.00,,---,0.00,VWS V14.01,2013-05-03 22:27:00,
2013-05-03 18:28:00,58.7,53.6,30.04,South,187,2.0,14.0,83,0.00,,---,0.00,VWS V14.01,2013-05-03 22:28:00,
2013-05-03 18:29:00,58.8,53.7,30.04,South,172,1.0,14.0,83,0.00,,---,0.00,VWS V14.01,2013-05-03 22:29:00,
2013-05-03 18:30:00,58.8,53.7,30.04,SSE,163,0.0,14.0,83,0.00,,---,0.00,VWS V14.01,2013-05-03 22:30:00,
2013-05-03 18:31:00,58.9,53.4,30.04,SSW,201,7.0,8.0,82,0.00,,---,0.00,VWS V14.01,2013-05-03 22:31:00,
2013-05-03 18:32:00,58.9,53.4,30.04,South,186,7.0,11.0,82,0.00,,---,0.00,VWS V14.01,2013-05-03 22:32:00,
2013-05-03 18:33:00,58.9,53.1,30.04,SSW,196,7.0,11.0,81,0.00,,---,0.00,VWS V14.01,2013-05-03 22:33:00,
2013-05-03 18:34:00,58.9,53.4,30.04,SSE,165,4.0,12.0,82,0.00,,---,0.00,VWS V14.01,2013-05-03 22:34:00,
2013-05-03 18:35:00,58.8,53.0,30.04,SSE,166,7.0,12.0,81,0.00,,---,0.00,VWS V14.01,2013-05-03 22:35:00,
2013-05-03 18:36:00,58.9,53.4,30.04,SSE,154,4.0,12.0,82,0.00,,---,0.00,VWS V14.01,2013-05-03 22:36:00,
2013-05-03 18:37:00,58.9,53.4,30.04,SE,132,0.0,12.0,82,0.00,,---,0.00,VWS V14.01,2013-05-03 22:37:00,
2013-05-03 18:38:00,58.9,53.4,30.04,West,279,2.0,12.0,82,0.00,,---,0.00,VWS V14.01,2013-05-03 22:38:00,
2013-05-03 18:39:00,59.0,53.5,30.04,SSE,159,6.0,12.0,82,0.00,,---,0.00,VWS V14.01,2013-05-03 22:39:00,
2013-05-03 18:40:00,59.0,53.5,30.04,SSE,166,6.0,12.0,82,0.00,,---,0.00,VWS V14.01,2013-05-03 22:40:00,
2013-05-03 18:41:00,59.1,53.3,30.04,SSE,165,7.0,12.0,81,0.00,,---,0.00,VWS V14.01,2013-05-03 22:41:00,
2013-05-03 18:42:00,59.1,53.3,30.04,SSE,165,3.0,12.0,81,0.00,,---,0.00,VWS V14.01,2013-05-03 22:42:00,
2013-05-03 18:43:00,59.2,53.4,30.03,South,184,8.0,12.0,81,0.00,,---,0.00,VWS V14.01,2013-05-03 22:43:00,
2013-05-03 18:44:00,59.3,53.5,30.03,South,188,4.0,12.0,81,0.00,,---,0.00,VWS V14.01,2013-05-03 22:44:00,
2013-05-03 18:45:00,59.3,53.5,30.03,SSE,159,8.0,15.0,81,0.00,,---,0.00,VWS V14.01,2013-05-03 22:45:00,
2013-05-03 18:46:00,59.4,53.6,30.03,South,183,2.0,15.0,81,0.00,,---,0.00,VWS V14.01,2013-05-03 22:46:00,
2013-05-03 18:47:00,59.5,53.7,30.03,South,178,4.0,15.0,81,0.00,,---,0.00,VWS V14.01,2013-05-03 22:47:00,
2013-05-03 18:48:00,59.6,53.8,30.03,SSE,150,10.0,15.0,81,0.00,,---,0.00,VWS V14.01,2013-05-03 22:48:00,
2013-05-03 18:49:00,59.7,54.2,30.03,SSE,158,7.0,15.0,82,0.00,,---,0.00,VWS V14.01,2013-05-03 22:49:00,
2013-05-03 18:50:00,59.8,53.6,30.03,South,179,6.0,15.0,80,0.00,,---,0.00,VWS V14.01,2013-05-03 22:50:00,
2013-05-03 18:51:00,59.8,53.6,30.03,SSW,196,7.0,15.0,80,0.00,,---,0.00,VWS V14.01,2013-05-03 22:51:00,
2013-05-03 18:52:00,59.9,53.7,30.03,South,187,8.0,15.0,80,0.00,,---,0.00,VWS V14.01,2013-05-03 22:52:00,
2013-05-03 18:53:00,59.9,53.7,30.03,SSW,196,8.0,15.0,80,0.00,,---,0.00,VWS V14.01,2013-05-03 22:53:00,
2013-05-03 18:54:00,60.0,53.8,30.03,South,186,5.0,15.0,80,0.00,,---,0.00,VWS V14.01,2013-05-03 22:54:00,
2013-05-03 18:55:00,60.0,54.2,30.03,SSW,192,0.0,15.0,81,0.00,,---,0.00,VWS V14.01,2013-05-03 22:55:00,
2013-05-03 18:56:00,60.1,53.9,30.03,South,188,5.0,15.0,80,0.00,,---,0.00,VWS V14.01,2013-05-03 22:56:00,
2013-05-03 18:57:00,60.2,54.0,30.03,SSW,208,2.0,15.0,80,0.00,,---,0.00,VWS V14.01,2013-05-03 22:57:00,
2013-05-03 18:58:00,60.1,53.9,30.03,SW,217,3.0,15.0,80,0.00,,---,0.00,VWS V14.01,2013-05-03 22:58:00,
2013-05-03 18:59:00,60.2,54.0,30.03,South,176,7.0,15.0,80,0.00,,---,0.00,VWS V14.01,2013-05-03 22:59:00,
2013-05-03 19:00:00,60.2,54.0,30.03,SSE,163,5.0,15.0,80,0.00,,---,0.00,VWS V14.01,2013-05-03 23:00:00,
2013-05-03 19:01:00,60.2,54.0,30.03,SSE,167,4.0,11.0,80,0.00,,---,0.00,VWS V14.01,2013-05-03 23:01:00,
2013-05-03 19:02:00,60.1,53.9,30.03,South,171,9.0,11.0,80,0.00,,---,0.00,VWS V14.01,2013-05-03 23:02:00,
2013-05-03 19:03:00,60.1,53.9,30.03,SSW,194,9.0,14.0,80,0.00,,---,0.00,VWS V14.01,2013-05-03 23:03:00,
2013-05-03 19:04:00,60.1,53.9,30.03,SE,136,5.0,14.0,80,0.00,,---,0.00,VWS V14.01,2013-05-03 23:04:00,
2013-05-03 19:05:00,60.1,53.9,30.03,SE,142,7.0,14.0,80,0.00,,---,0.00,VWS V14.01,2013-05-03 23:05:00,
2013-05-03 19:06:00,60.2,54.0,30.03,South,186,7.0,14.0,80,0.00,,---,0.00,VWS V14.01,2013-05-03 23:06:00,
2013-05-03 19:07:00,60.2,54.0,30.03,South,188,6.0,14.0,80,0.00,,---,0.00,VWS V14.01,2013-05-03 23:07:00,
2013-05-03 19:08:00,60.2,53.7,30.03,SSW,202,8.0,14.0,79,0.00,,---,0.00,VWS V14.01,2013-05-03 23:08:00,
2013-05-03 19:09:00,60.3,54.1,30.02,SSE,161,5.0,16.0,80,0.00,,---,0.00,VWS V14.01,2013-05-03 23:09:00,
2013-05-03 19:10:00,60.3,54.1,30.02,SSE,157,4.0,16.0,80,0.00,,---,0.00,VWS V14.01,2013-05-03 23:10:00,
2013-05-03 19:11:00,60.4,54.2,30.02,South,175,9.0,16.0,80,0.00,,---,0.00,VWS V14.01,2013-05-03 23:11:00,
2013-05-03 19:12:00,60.5,54.3,30.02,SSW,195,5.0,16.0,80,0.00,,---,0.00,VWS V14.01,2013-05-03 23:12:00,
2013-05-03 19:13:00,60.7,54.5,30.02,SSW,204,7.0,16.0,80,0.00,,---,0.00,VWS V14.01,2013-05-03 23:13:00,
2013-05-03 19:14:00,60.9,54.7,30.02,South,187,11.0,16.0,80,0.00,,---,0.00,VWS V14.01,2013-05-03 23:14:00,
2013-05-03 19:15:00,61.0,54.5,30.02,SSE,147,10.0,16.0,79,0.00,,---,0.00,VWS V14.01,2013-05-03 23:15:00,
2013-05-03 19:16:00,61.1,54.5,30.02,South,189,7.0,16.0,79,0.00,,---,0.00,VWS V14.01,2013-05-03 23:16:00,
2013-05-03 19:17:00,61.2,54.6,30.02,SSW,198,8.0,16.0,79,0.00,,---,0.00,VWS V14.01,2013-05-03 23:17:00,
2013-05-03 19:18:00,61.3,54.4,30.02,SSE,159,5.0,16.0,78,0.00,,---,0.00,VWS V14.01,2013-05-03 23:18:00,
2013-05-03 19:19:00,61.3,54.7,30.02,South,175,5.0,16.0,79,0.00,,---,0.00,VWS V14.01,2013-05-03 23:19:00,
2013-05-03 19:20:00,61.5,54.9,30.02,South,188,15.0,16.0,79,0.00,,---,0.00,VWS V14.01,2013-05-03 23:20:00,
2013-05-03 19:21:00,61.5,54.6,30.02,South,174,6.0,16.0,78,0.00,,---,0.00,VWS V14.01,2013-05-03 23:21:00,
2013-05-03 19:22:00,61.5,54.6,30.02,South,180,16.0,16.0,78,0.00,,---,0.00,VWS V14.01,2013-05-03 23:22:00,
2013-05-03 19:23:00,61.4,54.5,30.02,SSE,166,7.0,16.0,78,0.00,,---,0.00,VWS V14.01,2013-05-03 23:23:00,
2013-05-03 19:24:00,61.4,54.5,30.02,South,189,2.0,16.0,78,0.00,,---,0.00,VWS V14.01,2013-05-03 23:24:00,
2013-05-03 19:25:00,61.5,54.6,30.02,South,187,15.0,16.0,78,0.00,,---,0.00,VWS V14.01,2013-05-03 23:25:00,
2013-05-03 19:26:00,61.5,54.6,30.02,South,178,4.0,16.0,78,0.00,,---,0.00,VWS V14.01,2013-05-03 23:26:00,
2013-05-03 19:27:00,61.6,54.7,30.01,WNW,297,7.0,16.0,78,0.00,,---,0.00,VWS V14.01,2013-05-03 23:27:00,
2013-05-03 19:28:00,61.7,54.8,30.01,South,183,9.0,16.0,78,0.00,,---,0.00,VWS V14.01,2013-05-03 23:28:00,
2013-05-03 19:29:00,61.9,55.0,30.02,South,186,12.0,16.0,78,0.00,,---,0.00,VWS V14.01,2013-05-03 23:29:00,
2013-05-03 19:30:00,61.9,55.0,30.02,SSE,150,8.0,14.0,78,0.00,,---,0.00,VWS V14.01,2013-05-03 23:30:00,
2013-05-03 19:31:00,61.8,54.9,30.01,WSW,254,6.0,14.0,78,0.00,,---,0.00,VWS V14.01,2013-05-03 23:31:00,
2013-05-03 19:32:00,61.9,55.0,30.01,South,177,0.0,14.0,78,0.00,,---,0.00,VWS V14.01,2013-05-03 23:32:00,
2013-05-03 19:33:00,62.1,55.5,30.02,SSE,167,3.0,14.0,79,0.00,,---,0.00,VWS V14.01,2013-05-03 23:33:00,
2013-05-03 19:34:00,62.2,55.6,30.02,SSW,199,10.0,14.0,79,0.00,,---,0.00,VWS V14.01,2013-05-03 23:34:00,
2013-05-03 19:35:00,62.2,55.3,30.01,South,178,7.0,19.0,78,0.00,,---,0.00,VWS V14.01,2013-05-03 23:35:00,
2013-05-03 19:36:00,62.2,55.3,30.01,SSE,165,3.0,19.0,78,0.00,,---,0.00,VWS V14.01,2013-05-03 23:36:00,
2013-05-03 19:37:00,62.1,55.2,30.01,South,181,12.0,19.0,78,0.00,,---,0.00,VWS V14.01,2013-05-03 23:37:00,
2013-05-03 19:38:00,61.9,55.0,30.01,SSE,148,10.0,19.0,78,0.00,,---,0.00,VWS V14.01,2013-05-03 23:38:00,
2013-05-03 19:39:00,61.7,55.1,30.01,South,188,10.0,19.0,79,0.00,,---,0.00,VWS V14.01,2013-05-03 23:39:00,
2013-05-03 19:40:00,61.5,55.3,30.01,South,180,5.0,19.0,80,0.00,,---,0.00,VWS V14.01,2013-05-03 23:40:00,
2013-05-03 19:41:00,61.5,55.3,30.01,South,186,7.0,19.0,80,0.00,,---,0.00,VWS V14.01,2013-05-03 23:41:00,
2013-05-03 19:42:00,61.5,55.6,30.01,SSE,167,2.0,19.0,81,0.00,,---,0.00,VWS V14.01,2013-05-03 23:42:00,
2013-05-03 19:43:00,61.6,55.7,30.01,South,178,5.0,19.0,81,0.00,,---,0.00,VWS V14.01,2013-05-03 23:43:00,
2013-05-03 19:44:00,61.6,55.7,30.01,South,190,7.0,19.0,81,0.00,,---,0.00,VWS V14.01,2013-05-03 23:44:00,
2013-05-03 19:45:00,61.6,55.7,30.01,SSE,155,8.0,19.0,81,0.00,,---,0.00,VWS V14.01,2013-05-03 23:45:00,
2013-05-03 19:46:00,61.5,55.6,30.01,South,179,5.0,19.0,81,0.00,,---,0.00,VWS V14.01,2013-05-03 23:46:00,
2013-05-03 19:47:00,61.4,55.5,30.01,South,171,4.0,19.0,81,0.00,,---,0.00,VWS V14.01,2013-05-03 23:47:00,
2013-05-03 19:48:00,61.4,55.5,30.01,South,179,4.0,19.0,81,0.00,,---,0.00,VWS V14.01,2013-05-03 23:48:00,
2013-05-03 19:49:00,61.3,55.4,30.01,SSE,165,11.0,19.0,81,0.00,,---,0.00,VWS V14.01,2013-05-03 23:49:00,
2013-05-03 19:50:00,61.1,55.2,30.01,West,265,3.0,19.0,81,0.00,,---,0.00,VWS V14.01,2013-05-03 23:50:00,
2013-05-03 19:51:00,61.1,55.6,30.01,South,186,8.0,19.0,82,0.00,,---,0.00,VWS V14.01,2013-05-03 23:51:00,
2013-05-03 19:52:00,61.1,55.6,30.01,WSW,244,5.0,19.0,82,0.00,,---,0.00,VWS V14.01,2013-05-03 23:52:00,
2013-05-03 19:53:00,61.1,55.6,30.01,WSW,244,4.0,19.0,82,0.00,,---,0.00,VWS V14.01,2013-05-03 23:53:00,
2013-05-03 19:54:00,61.2,55.7,30.01,WSW,256,1.0,19.0,82,0.00,,---,0.00,VWS V14.01,2013-05-03 23:54:00,
2013-05-03 19:55:00,61.3,55.8,30.01,SSW,205,7.0,19.0,82,0.00,,---,0.00,VWS V14.01,2013-05-03 23:55:00,
2013-05-03 19:56:00,61.5,56.0,30.00,South,182,3.0,19.0,82,0.00,,---,0.00,VWS V14.01,2013-05-03 23:56:00,
2013-05-03 19:57:00,61.7,56.2,30.00,South,177,4.0,19.0,82,0.00,,---,0.00,VWS V14.01,2013-05-03 23:57:00,
2013-05-03 19:58:00,61.9,56.3,30.01,SSE,157,9.0,19.0,82,0.00,,---,0.00,VWS V14.01,2013-05-03 23:58:00,
2013-05-03 19:59:00,62.0,56.5,30.00,SSW,194,8.0,22.0,82,0.00,,---,0.00,VWS V14.01,2013-05-03 23:59:00,
2013-05-03 20:00:00,62.0,56.5,30.00,South,185,6.0,22.0,82,0.00,,---,0.00,VWS V14.01,2013-05-04 00:00:00,
2013-05-03 20:01:00,62.1,56.5,30.00,South,181,5.0,9.0,82,0.00,,---,0.00,VWS V14.01,2013-05-04 00:01:00,
2013-05-03 20:02:00,62.3,56.7,30.00,South,188,11.0,12.0,82,0.00,,---,0.00,VWS V14.01,2013-05-04 00:02:00,
2013-05-03 20:03:00,62.2,56.6,30.00,SSE,159,2.0,14.0,82,0.00,,---,0.00,VWS V14.01,2013-05-04 00:03:00,
2013-05-03 20:04:00,62.1,56.2,30.00,South,182,0.0,14.0,81,0.00,,---,0.00,VWS V14.01,2013-05-04 00:04:00,
2013-05-03 20:05:00,62.1,56.5,30.00,SE,142,9.0,14.0,82,0.00,,---,0.00,VWS V14.01,2013-05-04 00:05:00,
2013-05-03 20:06:00,62.1,56.5,30.00,South,172,2.0,14.0,82,0.00,,---,0.00,VWS V14.01,2013-05-04 00:06:00,
2013-05-03 20:07:00,62.1,56.2,30.00,South,184,3.0,14.0,81,0.00,,---,0.00,VWS V14.01,2013-05-04 00:07:00,
2013-05-03 20:08:00,62.2,56.6,30.00,SW,214,4.0,14.0,82,0.00,,---,0.00,VWS V14.01,2013-05-04 00:08:00,
2013-05-03 20:09:00,62.3,56.7,30.00,SW,221,5.0,14.0,82,0.00,,---,0.00,VWS V14.01,2013-05-04 00:09:00,
2013-05-03 20:10:00,62.4,56.8,30.00,SSE,164,5.0,14.0,82,0.00,,---,0.00,VWS V14.01,2013-05-04 00:10:00,
2013-05-03 20:11:00,62.5,56.9,30.00,SE,126,2.0,14.0,82,0.00,,---,0.00,VWS V14.01,2013-05-04 00:11:00,
2013-05-03 20:12:00,62.5,56.6,30.00,SSE,161,5.0,15.0,81,0.00,,---,0.00,VWS V14.01,2013-05-04 00:12:00,
2013-05-03 20:13:00,62.3,56.4,30.00,South,172,6.0,15.0,81,0.00,,---,0.00,VWS V14.01,2013-05-04 00:13:00,
2013-05-03 20:14:00,61.9,56.0,30.00,South,171,6.0,15.0,81,0.00,,---,0.00,VWS V14.01,2013-05-04 00:14:00,
2013-05-03 20:15:00,61.6,55.7,30.00,South,171,12.0,15.0,81,0.00,,---,0.00,VWS V14.01,2013-05-04 00:15:00,
2013-05-03 20:16:00,61.4,55.9,30.00,South,184,8.0,15.0,82,0.00,,---,0.00,VWS V14.01,2013-05-04 00:16:00,
2013-05-03 20:17:00,61.2,55.7,30.00,SW,219,9.0,15.0,82,0.00,,---,0.00,VWS V14.01,2013-05-04 00:17:00,
2013-05-03 20:18:00,61.2,56.0,30.00,SSW,197,9.0,15.0,83,0.00,,---,0.00,VWS V14.01,2013-05-04 00:18:00,
2013-05-03 20:19:00,61.1,55.6,30.00,South,181,6.0,15.0,82,0.00,,---,0.00,VWS V14.01,2013-05-04 00:19:00,
2013-05-03 20:20:00,61.2,56.0,30.00,South,171,8.0,15.0,83,0.00,,---,0.00,VWS V14.01,2013-05-04 00:20:00,
2013-05-03 20:21:00,61.2,56.0,30.00,SSE,157,9.0,15.0,83,0.00,,---,0.00,VWS V14.01,2013-05-04 00:21:00,
2013-05-03 20:22:00,61.3,56.1,30.00,SE,138,8.0,15.0,83,0.00,,---,0.00,VWS V14.01,2013-05-04 00:22:00,
2013-05-03 20:23:00,61.3,55.8,30.00,SSW,194,7.0,15.0,82,0.00,,---,0.00,VWS V14.01,2013-05-04 00:23:00,
2013-05-03 20:24:00,61.4,55.9,30.00,SSE,161,3.0,15.0,82,0.00,,---,0.00,VWS V14.01,2013-05-04 00:24:00,
2013-05-03 20:25:00,61.4,55.9,30.00,SSE,149,4.0,15.0,82,0.00,,---,0.00,VWS V14.01,2013-05-04 00:25:00,
2013-05-03 20:26:00,61.6,56.1,30.00,SSE,155,0.0,15.0,82,0.00,,---,0.00,VWS V14.01,2013-05-04 00:26:00,
2013-05-03 20:27:00,61.7,56.5,30.00,SSE,156,2.0,15.0,83,0.00,,---,0.00,VWS V14.01,2013-05-04 00:27:00,
2013-05-03 20:28:00,62.0,56.8,30.00,South,169,0.0,15.0,83,0.00,,---,0.00,VWS V14.01,2013-05-04 00:28:00,
2013-05-03 20:29:00,62.3,57.1,30.00,SSW,196,11.0,15.0,83,0.00,,---,0.00,VWS V14.01,2013-05-04 00:29:00,
2013-05-03 20:30:00,62.5,56.9,30.01,SSE,166,5.0,5.0,82,0.00,,---,0.00,VWS V14.01,2013-05-04 00:30:00,
2013-05-03 20:31:00,62.6,56.7,30.01,South,169,5.0,9.0,81,0.00,,---,0.00,VWS V14.01,2013-05-04 00:31:00,
2013-05-03 20:32:00,62.6,56.3,30.01,SSW,209,4.0,9.0,80,0.00,,---,0.00,VWS V14.01,2013-05-04 00:32:00,
2013-05-03 20:33:00,62.7,56.5,30.01,South,171,4.0,9.0,80,0.00,,---,0.00,VWS V14.01,2013-05-04 00:33:00,
2013-05-03 20:34:00,62.7,56.5,30.01,WSW,240,11.0,11.0,80,0.00,,---,0.00,VWS V14.01,2013-05-04 00:34:00,
2013-05-03 20:35:00,62.7,56.1,30.01,West,264,4.0,11.0,79,0.00,,---,0.00,VWS V14.01,2013-05-04 00:35:00,
2013-05-03 20:36:00,62.7,56.5,30.01,South,190,1.0,11.0,80,0.00,,---,0.00,VWS V14.01,2013-05-04 00:36:00,
2013-05-03 20:37:00,62.7,56.5,30.01,SW,232,1.0,11.0,80,0.00,,---,0.00,VWS V14.01,2013-05-04 00:37:00,
2013-05-03 20:38:00,62.8,56.5,30.01,SSW,201,5.0,11.0,80,0.00,,---,0.00,VWS V14.01,2013-05-04 00:38:00,
2013-05-03 20:39:00,62.9,56.6,30.01,SSE,161,0.0,11.0,80,0.00,,---,0.00,VWS V14.01,2013-05-04 00:39:00,
2013-05-03 20:40:00,63.0,56.4,30.01,SSE,163,2.0,11.0,79,0.00,,---,0.00,VWS V14.01,2013-05-04 00:40:00,
2013-05-03 20:41:00,63.0,56.7,30.01,South,179,2.0,11.0,80,0.00,,---,0.00,VWS V14.01,2013-05-04 00:41:00,
2013-05-03 20:42:00,63.1,56.5,30.01,South,179,0.0,11.0,79,0.00,,---,0.00,VWS V14.01,2013-05-04 00:42:00,
2013-05-03 20:43:00,63.1,56.8,30.01,South,188,0.0,11.0,80,0.00,,---,0.00,VWS V14.01,2013-05-04 00:43:00,
2013-05-03 20:44:00,63.1,56.8,30.01,South,178,5.0,11.0,80,0.00,,---,0.00,VWS V14.01,2013-05-04 00:44:00,
2013-05-03 20:45:00,63.2,56.6,30.00,SSE,163,8.0,11.0,79,0.00,,---,0.00,VWS V14.01,2013-05-04 00:45:00,
2013-05-03 20:46:00,63.2,56.6,30.00,South,181,4.0,11.0,79,0.00,,---,0.00,VWS V14.01,2013-05-04 00:46:00,
2013-05-03 20:47:00,63.2,56.6,30.01,South,186,5.0,11.0,79,0.00,,---,0.00,VWS V14.01,2013-05-04 00:47:00,
2013-05-03 20:48:00,63.2,56.2,30.01,SSW,192,4.0,11.0,78,0.00,,---,0.00,VWS V14.01,2013-05-04 00:48:00,
2013-05-03 20:49:00,63.2,56.2,30.01,SE,139,0.0,11.0,78,0.00,,---,0.00,VWS V14.01,2013-05-04 00:49:00,
2013-05-03 20:50:00,63.2,56.6,30.01,SSE,161,0.0,11.0,79,0.00,,---,0.00,VWS V14.01,2013-05-04 00:50:00,
2013-05-03 20:51:00,63.3,56.3,30.01,South,188,4.0,11.0,78,0.00,,---,0.00,VWS V14.01,2013-05-04 00:51:00,
2013-05-03 20:52:00,63.4,56.4,30.01,South,169,6.0,11.0,78,0.00,,---,0.00,VWS V14.01,2013-05-04 00:52:00,
2013-05-03 20:53:00,63.4,56.4,30.01,SE,130,0.0,11.0,78,0.00,,---,0.00,VWS V14.01,2013-05-04 00:53:00,
2013-05-03 20:54:00,63.3,56.3,30.01,South,181,5.0,11.0,78,0.00,,---,0.00,VWS V14.01,2013-05-04 00:54:00,
2013-05-03 20:55:00,63.3,56.7,30.01,South,180,3.0,11.0,79,0.00,,---,0.00,VWS V14.01,2013-05-04 00:55:00,
2013-05-03 20:56:00,63.3,56.3,30.00,SSE,162,0.0,11.0,78,0.00,,---,0.00,VWS V14.01,2013-05-04 00:56:00,
2013-05-03 20:57:00,63.4,56.4,30.00,South,181,1.0,11.0,78,0.00,,---,0.00,VWS V14.01,2013-05-04 00:57:00,
2013-05-03 20:58:00,63.4,56.4,30.00,South,179,1.0,11.0,78,0.00,,---,0.00,VWS V14.01,2013-05-04 00:58:00,
2013-05-03 20:59:00,63.5,56.5,30.00,SSE,158,7.0,11.0,78,0.00,,---,0.00,VWS V14.01,2013-05-04 00:59:00,
2013-05-03 21:00:00,63.4,56.4,30.00,South,188,0.0,11.0,78,0.00,,---,0.00,VWS V14.01,2013-05-04 01:00:00,
2013-05-03 21:01:00,63.5,56.5,30.00,South,191,0.0,4.0,78,0.00,,---,0.00,VWS V14.01,2013-05-04 01:01:00,
2013-05-03 21:02:00,63.5,56.5,30.00,South,176,0.0,5.0,78,0.00,,---,0.00,VWS V14.01,2013-05-04 01:02:00,
2013-05-03 21:03:00,63.5,56.5,30.00,South,190,0.0,5.0,78,0.00,,---,0.00,VWS V14.01,2013-05-04 01:03:00,
2013-05-03 21:04:00,63.5,56.9,30.00,South,190,0.0,5.0,79,0.00,,---,0.00,VWS V14.01,2013-05-04 01:04:00,
2013-05-03 21:05:00,63.5,56.5,30.00,South,173,4.0,9.0,78,0.00,,---,0.00,VWS V14.01,2013-05-04 01:05:00,
2013-05-03 21:06:00,63.5,56.5,30.00,SE,144,3.0,9.0,78,0.00,,---,0.00,VWS V14.01,2013-05-04 01:06:00,
2013-05-03 21:07:00,63.5,56.5,30.00,SSE,148,0.0,9.0,78,0.00,,---,0.00,VWS V14.01,2013-05-04 01:07:00,
2013-05-03 21:08:00,63.6,56.6,30.00,SSE,167,1.0,9.0,78,0.00,,---,0.00,VWS V14.01,2013-05-04 01:08:00,
2013-05-03 21:09:00,63.6,56.6,30.00,South,170,3.0,9.0,78,0.00,,---,0.00,VWS V14.01,2013-05-04 01:09:00,
2013-05-03 21:10:00,63.6,56.6,30.00,SSW,197,1.0,9.0,78,0.00,,---,0.00,VWS V14.01,2013-05-04 01:10:00,
2013-05-03 21:11:00,63.5,56.2,30.00,SSE,163,4.0,9.0,77,0.00,,---,0.00,VWS V14.01,2013-05-04 01:11:00,
2013-05-03 21:12:00,63.5,56.2,30.00,South,178,4.0,11.0,77,0.00,,---,0.00,VWS V14.01,2013-05-04 01:12:00,
2013-05-03 21:13:00,63.5,56.2,30.00,South,179,5.0,11.0,77,0.00,,---,0.00,VWS V14.01,2013-05-04 01:13:00,
2013-05-03 21:14:00,63.4,56.4,30.00,SE,142,0.0,11.0,78,0.00,,---,0.00,VWS V14.01,2013-05-04 01:14:00,
2013-05-03 21:15:00,63.4,56.4,30.00,South,178,0.0,11.0,78,0.00,,---,0.00,VWS V14.01,2013-05-04 01:15:00,
2013-05-03 21:16:00,63.4,56.4,30.00,South,176,0.0,11.0,78,0.00,,---,0.00,VWS V14.01,2013-05-04 01:16:00,
2013-05-03 21:17:00,63.4,56.4,30.00,South,175,0.0,11.0,78,0.00,,---,0.00,VWS V14.01,2013-05-04 01:17:00,
2013-05-03 21:18:00,63.4,56.4,30.00,South,176,0.0,11.0,78,0.00,,---,0.00,VWS V14.01,2013-05-04 01:18:00,
2013-05-03 21:19:00,63.5,56.5,30.00,South,176,0.0,11.0,78,0.00,,---,0.00,VWS V14.01,2013-05-04 01:19:00,
2013-05-03 21:20:00,63.5,56.5,30.00,South,175,2.0,11.0,78,0.00,,---,0.00,VWS V14.01,2013-05-04 01:20:00,
2013-05-03 21:21:00,63.5,56.5,30.00,South,174,3.0,11.0,78,0.00,,---,0.00,VWS V14.01,2013-05-04 01:21:00,
2013-05-03 21:22:00,63.5,56.2,30.00,WSW,239,5.0,11.0,77,0.00,,---,0.00,VWS V14.01,2013-05-04 01:22:00,
2013-05-03 21:23:00,63.5,56.2,30.00,South,177,3.0,11.0,77,0.00,,---,0.00,VWS V14.01,2013-05-04 01:23:00,
2013-05-03 21:24:00,63.5,56.2,30.00,SSE,164,5.0,11.0,77,0.00,,---,0.00,VWS V14.01,2013-05-04 01:24:00,
2013-05-03 21:25:00,63.5,56.5,30.00,SE,142,2.0,11.0,78,0.00,,---,0.00,VWS V14.01,2013-05-04 01:25:00,
2013-05-03 21:26:00,63.5,56.9,30.00,South,184,2.0,11.0,79,0.00,,---,0.00,VWS V14.01,2013-05-04 01:26:00,
2013-05-03 21:27:00,63.4,56.8,30.00,WSW,242,0.0,11.0,79,0.00,,---,0.00,VWS V14.01,2013-05-04 01:27:00,
2013-05-03 21:28:00,63.4,56.8,30.00,SSW,202,0.0,11.0,79,0.00,,---,0.00,VWS V14.01,2013-05-04 01:28:00,
2013-05-03 21:29:00,63.3,56.7,30.00,WSW,256,5.0,11.0,79,0.00,,---,0.00,VWS V14.01,2013-05-04 01:29:00,
2013-05-03 21:30:00,63.2,56.6,30.00,SW,225,2.0,14.0,79,0.00,,---,0.00,VWS V14.01,2013-05-04 01:30:00,
2013-05-03 21:31:00,63.1,56.5,30.00,South,187,3.0,4.0,79,0.00,,---,0.00,VWS V14.01,2013-05-04 01:31:00,
2013-05-03 21:32:00,63.0,56.7,30.00,South,180,2.0,8.0,80,0.00,,---,0.00,VWS V14.01,2013-05-04 01:32:00,
2013-05-03 21:33:00,62.9,56.6,30.00,South,180,2.0,8.0,80,0.00,,---,0.00,VWS V14.01,2013-05-04 01:33:00,
2013-05-03 21:34:00,63.0,56.7,30.00,South,181,0.0,8.0,80,0.00,,---,0.00,VWS V14.01,2013-05-04 01:34:00,
2013-05-03 21:35:00,63.0,56.7,30.00,South,181,1.0,8.0,80,0.00,,---,0.00,VWS V14.01,2013-05-04 01:35:00,
2013-05-03 21:36:00,63.0,56.7,30.00,SW,217,0.0,8.0,80,0.00,,---,0.00,VWS V14.01,2013-05-04 01:36:00,
2013-05-03 21:37:00,63.0,56.7,30.00,West,263,2.0,8.0,80,0.00,,---,0.00,VWS V14.01,2013-05-04 01:37:00,
2013-05-03 21:38:00,63.1,57.2,30.00,SSW,196,2.0,8.0,81,0.00,,---,0.00,VWS V14.01,2013-05-04 01:38:00,
2013-05-03 21:39:00,63.1,57.2,30.00,South,173,4.0,8.0,81,0.00,,---,0.00,VWS V14.01,2013-05-04 01:39:00,
2013-05-03 21:40:00,63.1,57.2,30.00,South,174,4.0,8.0,81,0.00,,---,0.00,VWS V14.01,2013-05-04 01:40:00,
2013-05-03 21:41:00,63.0,57.1,30.00,SW,234,5.0,8.0,81,0.00,,---,0.00,VWS V14.01,2013-05-04 01:41:00,
2013-05-03 21:42:00,62.8,56.9,30.00,South,173,0.0,8.0,81,0.00,,---,0.00,VWS V14.01,2013-05-04 01:42:00,
2013-05-03 21:43:00,62.8,57.6,30.00,South,173,0.0,8.0,83,0.00,,---,0.00,VWS V14.01,2013-05-04 01:43:00,
2013-05-03 21:44:00,62.7,57.5,30.00,South,183,0.0,8.0,83,0.00,,---,0.00,VWS V14.01,2013-05-04 01:44:00,
2013-05-03 21:45:00,62.6,57.4,30.00,SSE,163,3.0,8.0,83,0.00,,---,0.00,VWS V14.01,2013-05-04 01:45:00,
2013-05-03 21:46:00,62.5,57.6,30.00,SSE,164,3.0,8.0,84,0.00,,---,0.00,VWS V14.01,2013-05-04 01:46:00,
2013-05-03 21:47:00,62.3,57.4,30.00,SSE,166,0.0,8.0,84,0.00,,---,0.00,VWS V14.01,2013-05-04 01:47:00,
2013-05-03 21:48:00,62.2,57.6,30.00,SW,225,0.0,8.0,85,0.00,,---,0.00,VWS V14.01,2013-05-04 01:48:00,
2013-05-03 21:49:00,62.0,57.5,30.00,SSE,165,0.0,8.0,85,0.00,,---,0.00,VWS V14.01,2013-05-04 01:49:00,
2013-05-03 21:50:00,62.0,57.5,30.00,SSE,165,0.0,8.0,85,0.00,,---,0.00,VWS V14.01,2013-05-04 01:50:00,
2013-05-03 21:51:00,61.9,57.7,30.00,SSE,165,0.0,8.0,86,0.00,,---,0.00,VWS V14.01,2013-05-04 01:51:00,
2013-05-03 21:52:00,61.8,57.6,30.00,SSE,165,0.0,8.0,86,0.00,,---,0.00,VWS V14.01,2013-05-04 01:52:00,
2013-05-03 21:53:00,61.8,57.9,30.00,SSE,165,0.0,8.0,87,0.00,,---,0.00,VWS V14.01,2013-05-04 01:53:00,
2013-05-03 21:54:00,61.7,57.8,30.00,South,180,0.0,8.0,87,0.00,,---,0.00,VWS V14.01,2013-05-04 01:54:00,
2013-05-03 21:55:00,61.7,57.5,30.00,South,186,2.0,8.0,86,0.00,,---,0.00,VWS V14.01,2013-05-04 01:55:00,
2013-05-03 21:56:00,61.6,57.7,30.00,SSE,155,0.0,8.0,87,0.00,,---,0.00,VWS V14.01,2013-05-04 01:56:00,
2013-05-03 21:57:00,61.5,57.3,30.00,West,266,5.0,8.0,86,0.00,,---,0.00,VWS V14.01,2013-05-04 01:57:00,
2013-05-03 21:58:00,61.4,57.2,30.00,WSW,240,0.0,8.0,86,0.00,,---,0.00,VWS V14.01,2013-05-04 01:58:00,
2013-05-03 21:59:00,61.4,57.2,30.00,SSW,198,0.0,8.0,86,0.01,,---,0.01,VWS V14.01,2013-05-04 01:59:00,
2013-05-03 22:00:00,61.4,57.2,30.00,SSE,149,1.0,8.0,86,0.01,,---,0.01,VWS V14.01,2013-05-04 02:00:00,
2013-05-03 22:01:00,61.3,57.1,30.00,West,277,0.0,1.0,86,0.01,,---,0.01,VWS V14.01,2013-05-04 02:01:00,
2013-05-03 22:02:00,61.3,57.1,30.00,WSW,237,0.0,6.0,86,0.01,,---,0.01,VWS V14.01,2013-05-04 02:02:00,
2013-05-03 22:03:00,61.3,57.4,30.00,SSW,209,4.0,6.0,87,0.01,,---,0.01,VWS V14.01,2013-05-04 02:03:00,
2013-05-03 22:04:00,61.3,57.1,30.00,South,184,2.0,6.0,86,0.01,,---,0.01,VWS V14.01,2013-05-04 02:04:00,
2013-05-03 22:05:00,61.2,57.0,30.00,SSE,159,0.0,7.0,86,0.01,,---,0.01,VWS V14.01,2013-05-04 02:05:00,
2013-05-03 22:06:00,61.3,57.1,30.00,SSW,201,0.0,7.0,86,0.01,,---,0.01,VWS V14.01,2013-05-04 02:06:00,
2013-05-03 22:07:00,61.3,57.1,30.00,West,266,0.0,7.0,86,0.01,,---,0.01,VWS V14.01,2013-05-04 02:07:00,
2013-05-03 22:08:00,61.3,57.4,30.00,West,266,0.0,7.0,87,0.01,,---,0.01,VWS V14.01,2013-05-04 02:08:00,
2013-05-03 22:09:00,61.4,57.5,30.00,SW,221,0.0,7.0,87,0.01,,---,0.01,VWS V14.01,2013-05-04 02:09:00,
2013-05-03 22:10:00,61.4,57.5,30.00,South,176,6.0,7.0,87,0.01,,---,0.01,VWS V14.01,2013-05-04 02:10:00,
2013-05-03 22:11:00,61.4,57.5,30.00,South,179,0.0,7.0,87,0.01,,---,0.01,VWS V14.01,2013-05-04 02:11:00,
2013-05-03 22:12:00,61.4,57.2,30.00,West,267,0.0,7.0,86,0.01,,---,0.01,VWS V14.01,2013-05-04 02:12:00,
2013-05-03 22:13:00,61.4,57.2,30.00,WSW,257,0.0,7.0,86,0.01,,---,0.01,VWS V14.01,2013-05-04 02:13:00,
2013-05-03 22:14:00,61.4,57.5,30.00,West,267,1.0,7.0,87,0.01,,---,0.01,VWS V14.01,2013-05-04 02:14:00,
2013-05-03 22:15:00,61.4,57.2,30.00,SSW,199,0.0,7.0,86,0.01,,---,0.01,VWS V14.01,2013-05-04 02:15:00,
2013-05-03 22:16:00,61.4,57.2,30.00,SW,218,1.0,7.0,86,0.01,,---,0.01,VWS V14.01,2013-05-04 02:16:00,
2013-05-03 22:17:00,61.4,57.2,30.00,South,173,5.0,7.0,86,0.01,,---,0.01,VWS V14.01,2013-05-04 02:17:00,
2013-05-03 22:18:00,61.3,57.1,30.00,South,189,3.0,7.0,86,0.01,,---,0.01,VWS V14.01,2013-05-04 02:18:00,
2013-05-03 22:19:00,61.3,57.1,30.00,WSW,254,6.0,7.0,86,0.01,,---,0.01,VWS V14.01,2013-05-04 02:19:00,
2013-05-03 22:20:00,61.3,57.1,30.00,SW,217,0.0,7.0,86,0.01,,---,0.01,VWS V14.01,2013-05-04 02:20:00,
2013-05-03 22:21:00,61.3,57.1,30.00,SW,217,0.0,7.0,86,0.01,,---,0.01,VWS V14.01,2013-05-04 02:21:00,
2013-05-03 22:22:00,61.3,57.4,30.00,SW,233,4.0,8.0,87,0.01,,---,0.01,VWS V14.01,2013-05-04 02:22:00,
2013-05-03 22:23:00,61.2,57.3,30.00,WSW,257,0.0,8.0,87,0.01,,---,0.01,VWS V14.01,2013-05-04 02:23:00,
2013-05-03 22:24:00,61.2,57.0,30.00,South,172,3.0,8.0,86,0.01,,---,0.01,VWS V14.01,2013-05-04 02:24:00,
2013-05-03 22:25:00,61.1,57.2,30.00,South,177,0.0,8.0,87,0.01,,---,0.01,VWS V14.01,2013-05-04 02:25:00,
2013-05-03 22:26:00,61.1,57.2,29.99,SSE,159,0.0,8.0,87,0.01,,---,0.01,VWS V14.01,2013-05-04 02:26:00,
2013-05-03 22:27:00,61.1,57.2,29.99,South,175,0.0,8.0,87,0.01,,---,0.01,VWS V14.01,2013-05-04 02:27:00,
2013-05-03 22:28:00,61.1,57.2,29.99,South,175,0.0,8.0,87,0.01,,---,0.01,VWS V14.01,2013-05-04 02:28:00,
2013-05-03 22:29:00,61.1,57.2,29.99,South,175,4.0,8.0,87,0.01,,---,0.01,VWS V14.01,2013-05-04 02:29:00,
2013-05-03 22:30:00,61.1,57.5,29.99,South,175,0.0,8.0,88,0.01,,---,0.01,VWS V14.01,2013-05-04 02:30:00,
2013-05-03 22:31:00,61.0,57.4,29.99,South,175,1.0,1.0,88,0.01,,---,0.01,VWS V14.01,2013-05-04 02:31:00,
2013-05-03 22:32:00,61.1,57.5,29.99,South,175,0.0,3.0,88,0.01,,---,0.01,VWS V14.01,2013-05-04 02:32:00,
2013-05-03 22:33:00,61.1,57.5,29.99,South,175,0.0,3.0,88,0.01,,---,0.01,VWS V14.01,2013-05-04 02:33:00,
2013-05-03 22:34:00,61.0,57.7,29.99,South,169,5.0,9.0,89,0.01,,---,0.01,VWS V14.01,2013-05-04 02:34:00,
2013-05-03 22:35:00,61.0,57.4,29.99,SW,233,6.0,9.0,88,0.01,,---,0.01,VWS V14.01,2013-05-04 02:35:00,
2013-05-03 22:36:00,61.0,57.7,29.99,SSE,153,3.0,9.0,89,0.01,,---,0.01,VWS V14.01,2013-05-04 02:36:00,
2013-05-03 22:37:00,60.9,57.6,29.99,SSE,168,4.0,12.0,89,0.01,,---,0.01,VWS V14.01,2013-05-04 02:37:00,
2013-05-03 22:38:00,60.9,57.6,29.99,SSE,165,0.0,12.0,89,0.01,,---,0.01,VWS V14.01,2013-05-04 02:38:00,
2013-05-03 22:39:00,60.8,57.2,29.99,SSW,213,0.0,12.0,88,0.01,,---,0.01,VWS V14.01,2013-05-04 02:39:00,
2013-05-03 22:40:00,60.8,57.5,29.99,SSW,209,3.0,12.0,89,0.01,,---,0.01,VWS V14.01,2013-05-04 02:40:00,
2013-05-03 22:41:00,60.8,57.5,29.99,South,171,4.0,12.0,89,0.01,,---,0.01,VWS V14.01,2013-05-04 02:41:00,
2013-05-03 22:42:00,60.7,57.4,29.99,South,186,4.0,13.0,89,0.01,,---,0.01,VWS V14.01,2013-05-04 02:42:00,
2013-05-03 22:43:00,60.6,57.3,29.99,SSE,165,2.0,13.0,89,0.01,,---,0.01,VWS V14.01,2013-05-04 02:43:00,
2013-05-03 22:44:00,60.6,57.3,29.99,South,169,3.0,13.0,89,0.01,,---,0.01,VWS V14.01,2013-05-04 02:44:00,
2013-05-03 22:45:00,60.5,57.2,29.99,South,175,0.0,13.0,89,0.01,,---,0.01,VWS V14.01,2013-05-04 02:45:00,
2013-05-03 22:46:00,60.6,57.7,29.98,SSE,157,2.0,13.0,90,0.01,,---,0.01,VWS V14.01,2013-05-04 02:46:00,
2013-05-03 22:47:00,60.6,57.3,29.98,South,171,0.0,13.0,89,0.01,,---,0.01,VWS V14.01,2013-05-04 02:47:00,
2013-05-03 22:48:00,60.6,57.7,29.99,SSE,167,0.0,13.0,90,0.01,,---,0.01,VWS V14.01,2013-05-04 02:48:00,
2013-05-03 22:49:00,60.7,57.8,29.99,SSE,167,0.0,13.0,90,0.01,,---,0.01,VWS V14.01,2013-05-04 02:49:00,
2013-05-03 22:50:00,60.7,57.8,29.99,SSE,167,0.0,13.0,90,0.01,,---,0.01,VWS V14.01,2013-05-04 02:50:00,
2013-05-03 22:51:00,60.7,57.8,29.99,South,188,0.0,13.0,90,0.01,,---,0.01,VWS V14.01,2013-05-04 02:51:00,
2013-05-03 22:52:00,60.7,57.8,29.99,SE,143,1.0,13.0,90,0.01,,---,0.01,VWS V14.01,2013-05-04 02:52:00,
2013-05-03 22:53:00,60.7,57.8,29.98,South,185,4.0,13.0,90,0.01,,---,0.01,VWS V14.01,2013-05-04 02:53:00,
2013-05-03 22:54:00,60.7,57.8,29.98,SSW,194,3.0,13.0,90,0.01,,---,0.01,VWS V14.01,2013-05-04 02:54:00,
2013-05-03 22:55:00,60.6,57.7,29.98,WSW,254,5.0,13.0,90,0.01,,---,0.01,VWS V14.01,2013-05-04 02:55:00,
2013-05-03 22:56:00,60.7,57.8,29.98,South,190,5.0,13.0,90,0.01,,---,0.01,VWS V14.01,2013-05-04 02:56:00,
2013-05-03 22:57:00,60.7,57.8,29.98,South,190,0.0,13.0,90,0.01,,---,0.01,VWS V14.01,2013-05-04 02:57:00,
2013-05-03 22:58:00,60.7,58.1,29.98,WSW,257,1.0,13.0,91,0.01,,---,0.01,VWS V14.01,2013-05-04 02:58:00,
2013-05-03 22:59:00,60.7,57.8,29.98,South,173,0.0,13.0,90,0.01,,---,0.01,VWS V14.01,2013-05-04 02:59:00,
2013-05-03 23:00:00,60.8,58.2,29.98,SW,227,0.0,13.0,91,0.01,,---,0.01,VWS V14.01,2013-05-04 03:00:00,
2013-05-03 23:01:00,60.8,58.2,29.99,South,181,0.0,5.0,91,0.00,,---,0.01,VWS V14.01,2013-05-04 03:01:00,
2013-05-03 23:02:00,60.9,58.0,29.98,SSE,150,0.0,5.0,90,0.00,,---,0.01,VWS V14.01,2013-05-04 03:02:00,
2013-05-03 23:03:00,60.9,58.3,29.98,South,173,0.0,6.0,91,0.00,,---,0.01,VWS V14.01,2013-05-04 03:03:00,
2013-05-03 23:04:00,60.9,58.0,29.98,SSW,207,0.0,6.0,90,0.00,,---,0.01,VWS V14.01,2013-05-04 03:04:00,
2013-05-03 23:05:00,60.9,58.0,29.98,SW,218,0.0,6.0,90,0.00,,---,0.01,VWS V14.01,2013-05-04 03:05:00,
2013-05-03 23:06:00,60.9,58.0,29.98,West,268,0.0,6.0,90,0.00,,---,0.01,VWS V14.01,2013-05-04 03:06:00,
2013-05-03 23:07:00,60.9,58.0,29.98,SSW,208,0.0,6.0,90,0.00,,---,0.01,VWS V14.01,2013-05-04 03:07:00,
2013-05-03 23:08:00,60.9,58.0,29.98,SSW,208,0.0,6.0,90,0.00,,---,0.01,VWS V14.01,2013-05-04 03:08:00,
2013-05-03 23:09:00,60.9,58.0,29.98,South,169,0.0,6.0,90,0.00,,---,0.01,VWS V14.01,2013-05-04 03:09:00,
2013-05-03 23:10:00,61.0,58.0,29.98,South,175,0.0,6.0,90,0.00,,---,0.01,VWS V14.01,2013-05-04 03:10:00,
2013-05-03 23:11:00,61.0,58.0,29.98,South,175,0.0,6.0,90,0.00,,---,0.01,VWS V14.01,2013-05-04 03:11:00,
2013-05-03 23:12:00,61.1,58.2,29.98,South,175,0.0,6.0,90,0.00,,---,0.01,VWS V14.01,2013-05-04 03:12:00,
2013-05-03 23:13:00,61.1,58.5,29.98,South,175,0.0,6.0,91,0.00,,---,0.01,VWS V14.01,2013-05-04 03:13:00,
2013-05-03 23:14:00,61.1,58.2,29.98,South,177,0.0,6.0,90,0.00,,---,0.01,VWS V14.01,2013-05-04 03:14:00,
2013-05-03 23:15:00,61.1,58.2,29.98,South,177,0.0,6.0,90,0.00,,---,0.01,VWS V14.01,2013-05-04 03:15:00,
2013-05-03 23:16:00,61.1,58.2,29.98,South,177,0.0,6.0,90,0.00,,---,0.01,VWS V14.01,2013-05-04 03:16:00,
2013-05-03 23:17:00,61.1,58.8,29.98,South,177,0.0,6.0,92,0.00,,---,0.01,VWS V14.01,2013-05-04 03:17:00,
2013-05-03 23:18:00,61.1,58.2,29.98,SSW,193,3.0,6.0,90,0.00,,---,0.01,VWS V14.01,2013-05-04 03:18:00,
2013-05-03 23:19:00,61.1,58.2,29.98,South,182,0.0,6.0,90,0.00,,---,0.01,VWS V14.01,2013-05-04 03:19:00,
2013-05-03 23:20:00,61.0,58.0,29.98,South,174,3.0,7.0,90,0.00,,---,0.01,VWS V14.01,2013-05-04 03:20:00,
2013-05-03 23:21:00,61.0,58.0,29.98,South,175,0.0,7.0,90,0.00,,---,0.01,VWS V14.01,2013-05-04 03:21:00,
2013-05-03 23:22:00,60.9,58.0,29.98,South,188,8.0,8.0,90,0.00,,---,0.01,VWS V14.01,2013-05-04 03:22:00,
2013-05-03 23:23:00,60.9,58.0,29.98,South,179,0.0,8.0,90,0.00,,---,0.01,VWS V14.01,2013-05-04 03:23:00,
2013-05-03 23:24:00,60.9,58.0,29.98,SSE,155,0.0,8.0,90,0.00,,---,0.01,VWS V14.01,2013-05-04 03:24:00,
2013-05-03 23:25:00,60.9,58.0,29.98,SSE,155,0.0,8.0,90,0.00,,---,0.01,VWS V14.01,2013-05-04 03:25:00,
2013-05-03 23:26:00,60.9,58.0,29.98,SSE,155,1.0,8.0,90,0.00,,---,0.01,VWS V14.01,2013-05-04 03:26:00,
2013-05-03 23:27:00,60.9,58.0,29.98,South,183,7.0,10.0,90,0.00,,---,0.01,VWS V14.01,2013-05-04 03:27:00,
2013-05-03 23:28:00,60.9,58.0,29.98,South,169,4.0,10.0,90,0.00,,---,0.01,VWS V14.01,2013-05-04 03:28:00,
2013-05-03 23:29:00,60.9,58.0,29.98,SSE,167,2.0,10.0,90,0.00,,---,0.01,VWS V14.01,2013-05-04 03:29:00,
2013-05-03 23:30:00,60.9,58.0,29.98,SSE,167,2.0,2.0,90,0.00,,---,0.01,VWS V14.01,2013-05-04 03:30:00,
2013-05-03 23:31:00,60.9,58.0,29.98,WSW,244,1.0,2.0,90,0.00,,---,0.01,VWS V14.01,2013-05-04 03:31:00,
2013-05-03 23:32:00,60.9,58.3,29.98,SSE,158,2.0,3.0,91,0.00,,---,0.01,VWS V14.01,2013-05-04 03:32:00,
2013-05-03 23:33:00,60.8,58.2,29.98,SSE,159,0.0,4.0,91,0.00,,---,0.01,VWS V14.01,2013-05-04 03:33:00,
2013-05-03 23:34:00,60.9,58.3,29.97,South,182,0.0,5.0,91,0.00,,---,0.01,VWS V14.01,2013-05-04 03:34:00,
2013-05-03 23:35:00,60.8,58.2,29.97,South,182,0.0,5.0,91,0.00,,---,0.01,VWS V14.01,2013-05-04 03:35:00,
2013-05-03 23:36:00,60.9,58.3,29.97,South,182,0.0,5.0,91,0.00,,---,0.01,VWS V14.01,2013-05-04 03:36:00,
2013-05-03 23:37:00,60.9,58.3,29.97,South,182,0.0,5.0,91,0.00,,---,0.01,VWS V14.01,2013-05-04 03:37:00,
2013-05-03 23:38:00,60.9,58.3,29.97,WSW,242,2.0,10.0,91,0.00,,---,0.01,VWS V14.01,2013-05-04 03:38:00,
2013-05-03 23:39:00,60.8,58.2,29.97,South,183,0.0,10.0,91,0.00,,---,0.01,VWS V14.01,2013-05-04 03:39:00,
2013-05-03 23:40:00,60.8,58.2,29.97,SSE,166,2.0,10.0,91,0.00,,---,0.01,VWS V14.01,2013-05-04 03:40:00,
2013-05-03 23:41:00,60.8,58.2,29.97,WSW,240,3.0,10.0,91,0.00,,---,0.01,VWS V14.01,2013-05-04 03:41:00,
2013-05-03 23:42:00,60.8,58.2,29.97,South,171,0.0,10.0,91,0.00,,---,0.01,VWS V14.01,2013-05-04 03:42:00,
2013-05-03 23:43:00,60.8,58.2,29.97,SSE,149,0.0,10.0,91,0.00,,---,0.01,VWS V14.01,2013-05-04 03:43:00,
2013-05-03 23:44:00,60.8,58.2,29.97,SSE,155,0.0,10.0,91,0.00,,---,0.01,VWS V14.01,2013-05-04 03:44:00,
2013-05-03 23:45:00,60.8,58.2,29.97,SSE,153,0.0,10.0,91,0.00,,---,0.01,VWS V14.01,2013-05-04 03:45:00,
2013-05-03 23:46:00,60.9,58.3,29.97,WSW,241,5.0,10.0,91,0.00,,---,0.01,VWS V14.01,2013-05-04 03:46:00,
2013-05-03 23:47:00,60.9,58.3,29.97,WSW,248,2.0,10.0,91,0.00,,---,0.01,VWS V14.01,2013-05-04 03:47:00,
2013-05-03 23:48:00,60.8,58.2,29.97,South,183,4.0,10.0,91,0.00,,---,0.01,VWS V14.01,2013-05-04 03:48:00,
2013-05-03 23:49:00,60.9,58.3,29.97,South,187,1.0,10.0,91,0.00,,---,0.01,VWS V14.01,2013-05-04 03:49:00,
2013-05-03 23:50:00,60.9,58.3,29.97,SSE,165,0.0,10.0,91,0.00,,---,0.01,VWS V14.01,2013-05-04 03:50:00,
2013-05-03 23:51:00,60.9,58.3,29.97,ESE,117,0.0,10.0,91,0.00,,---,0.01,VWS V14.01,2013-05-04 03:51:00,
2013-05-03 23:52:00,60.9,58.3,29.97,South,178,0.0,10.0,91,0.00,,---,0.01,VWS V14.01,2013-05-04 03:52:00,
2013-05-03 23:53:00,60.9,58.3,29.97,South,185,1.0,10.0,91,0.00,,---,0.01,VWS V14.01,2013-05-04 03:53:00,
2013-05-03 23:54:00,60.9,58.3,29.97,South,173,4.0,10.0,91,0.00,,---,0.01,VWS V14.01,2013-05-04 03:54:00,
2013-05-03 23:55:00,60.9,58.3,29.97,South,180,4.0,10.0,91,0.00,,---,0.01,VWS V14.01,2013-05-04 03:55:00,
2013-05-03 23:56:00,60.9,58.3,29.97,South,181,0.0,10.0,91,0.00,,---,0.01,VWS V14.01,2013-05-04 03:56:00,
2013-05-03 23:57:00,60.9,58.3,29.97,South,181,0.0,10.0,91,0.00,,---,0.01,VWS V14.01,2013-05-04 03:57:00,
2013-05-03 23:58:00,60.9,58.3,29.97,South,181,0.0,10.0,91,0.00,,---,0.01,VWS V14.01,2013-05-04 03:58:00,
2013-05-03 23:59:00,61.0,58.4,29.97,South,181,0.0,10.0,91,0.00,,---,0.01,VWS V14.01,2013-05-04 03:59:00,